[[{"header":{"parameterUnit":"m.s-1","parameterCategory":1,"la1":31.0,"la2":29.5877,"lo1":-88.7671,"lo2":-86.6584,"dy":0.0162,"dx":0.0185,"nx":115,"ny":88,"refTime":"2023-06-25T18:00:00:Z","depth":0,"parameterNumber":2,"parameterNumberName":"U-component_of_WINDS"},"data":[0.0,0.0,0.0,0.0,0.0,0.0,0.0,0.0,0.0,0.0,0.0,0.0,0.0,0.0,0.0,0.0,0.0,0.0,0.0,0.0,0.0,0.0,0.0,0.0,0.0,0.0,0.0,0.0,0.0,0.0,0.0,0.0,0.0,0.0,0.0,0.0,0.0,0.0,0.0,0.0,0.0,0.0,0.0,0.0,0.0,0.0,0.0,0.0,0.0,0.0,0.0,0.0,0.0,0.0,0.0,0.0,0.0,0.0,0.0,0.0,0.0,0.0,0.0,0.0,0.0,0.0,0.0,0.0,0.0,0.0,0.0,0.0,0.0,0.0,0.0,0.0,0.0,0.0,0.0,0.0,0.0,0.0,0.0,0.0,0.0,0.0,0.0,0.0,0.0,0.0,0.0,0.0,0.0,0.0,0.0,0.0,0.0,0.0,0.0,0.0,0.0,0.0,0.0,0.0,0.0,0.0,0.0,0.0,0.0,0.0,0.0,0.0,0.0,0.0,0.0,0.0,0.0,0.0,0.0,0.0,0.0,0.0,0.0,0.0,0.0,0.0,0.0,0.0,0.0,0.0,0.0,0.0,0.0,0.0,0.0,0.0,0.0,0.0,0.0,0.0,0.0,0.0,0.0,0.0,0.0,0.0,0.0,0.0,0.0,0.0,0.0,0.0,0.0,0.0,0.0,0.0,0.0,0.0,0.0,0.0,0.0,0.0,0.0,0.0,0.0,0.0,0.0,0.0,0.0,0.0,0.0,0.0,0.0,0.0,0.0,0.0,0.0,0.0,0.0,0.0,0.0,0.0,0.0,0.0,0.0,0.0,0.0,0.0,0.0,0.0,0.0,0.0,0.0,0.0,0.0,0.0,0.0,0.0,0.0,0.0,0.0,0.0,0.0,0.0,0.0,0.0,0.0,0.0,0.0,0.0,0.0,0.0,0.0,0.0,0.0,0.0,0.0,0.0,0.0,0.0,0.0,0.0,0.0,0.0,0.0,0.0,0.0,0.0,0.0,0.0,0.0,0.0,0.0,0.0,0.0,0.0,0.0,0.0,0.0,0.0,0.0,0.0,0.0,0.0,0.0,0.0,0.0,0.0,0.0,0.0,0.0,0.0,0.0,0.0,0.0,0.0,0.0,0.0,0.0,0.0,0.0,0.0,0.0,0.0,0.0,0.0,0.0,0.0,0.0,0.0,0.0,0.0,0.0,0.0,0.0,0.0,0.0,0.0,0.0,0.0,0.0,0.0,0.0,0.0,0.0,0.0,0.0,0.0,0.0,0.0,0.0,0.0,0.0,0.0,0.0,0.0,0.0,0.0,0.0,0.0,0.0,0.0,0.0,0.0,0.0,0.0,0.0,0.0,0.0,0.0,0.0,0.0,0.0,0.0,0.0,0.0,0.0,0.0,0.0,0.0,0.0,0.0,0.0,0.0,0.0,0.0,0.0,0.0,0.0,0.0,0.0,0.0,0.0,0.0,0.0,0.0,0.0,0.0,0.0,0.0,0.0,0.0,0.0,0.0,0.0,0.0,0.0,0.0,0.0,0.0,0.0,0.0,0.0,0.0,0.0,0.0,0.0,0.0,0.0,0.0,0.0,0.0,0.0,0.0,0.0,0.0,0.0,0.0,0.0,0.0,0.0,0.0,0.0,0.0,0.0,0.0,0.0,0.0,0.0,0.0,0.0,0.0,0.0,0.0,0.0,0.0,0.0,0.0,0.0,0.0,0.0,0.0,0.0,0.0,0.0,0.0,0.0,0.0,0.0,0.0,0.0,0.0,0.0,0.0,0.0,0.0,0.0,0.0,0.0,0.0,0.0,0.0,0.0,0.0,0.0,0.0,0.0,0.0,0.0,0.0,0.0,0.0,0.0,0.0,0.0,0.0,0.0,0.0,0.0,0.0,0.0,0.0,0.0,0.0,0.0,0.0,0.0,0.0,0.0,0.0,0.0,0.0,0.0,0.0,0.0,0.0,0.0,0.0,0.0,0.0,0.0,0.0,0.0,0.0,0.0,0.0,0.0,0.0,0.0,0.0,0.0,0.0,0.0,0.0,0.0,0.0,0.0,0.0,0.0,0.0,0.0,0.0,0.0,0.0,0.0,0.0,0.0,0.0,0.0,0.0,0.0,0.0,0.0,0.0,0.0,0.0,0.0,0.0,0.0,0.0,0.0,0.0,0.0,0.0,0.0,0.0,0.0,0.0,0.0,0.0,0.0,0.0,0.0,0.0,0.0,0.0,0.0,0.0,0.0,0.0,0.0,0.0,0.0,0.0,0.0,0.0,0.0,0.0,0.0,0.0,0.0,0.0,0.0,0.0,0.0,0.0,0.0,0.0,0.0,0.0,0.0,0.0,0.0,0.0,0.0,0.0,0.0,0.0,0.0,0.0,0.0,0.0,0.0,0.0,0.0,0.0,0.0,0.0,0.0,0.0,0.0,0.0,0.0,0.0,0.0,0.0,0.0,0.0,0.0,0.0,0.0,0.0,0.0,0.0,0.0,0.0,0.0,0.0,0.0,0.0,0.0,0.0,0.0,0.0,0.0,0.0,0.0,0.0,0.0,0.0,0.0,0.0,0.0,0.0,0.0,0.0,0.0,0.0,0.0,0.0,0.0,0.0,0.0,0.0,0.0,0.0,0.0,0.0,0.0,0.0,0.0,0.0,0.0,0.0,0.0,0.0,0.0,0.0,0.0,0.0,0.0,0.0,0.0,0.0,0.0,0.0,0.0,0.0,0.0,0.0,0.0,0.0,0.0,0.0,0.0,0.0,0.0,0.0,0.0,0.0,0.0,0.0,0.0,0.0,0.0,0.0,0.0,0.0,0.0,0.0,0.0,0.0,0.0,0.0,0.0,0.0,0.0,0.0,0.0,0.0,0.0,0.0,0.0,0.0,0.0,0.0,0.0,0.0,0.0,0.0,0.0,0.0,0.0,0.0,0.0,0.0,0.0,0.0,0.0,0.0,0.0,0.0,0.0,0.0,0.0,0.0,0.0,0.0,0.0,0.0,0.0,0.0,0.0,0.0,0.0,0.0,0.0,0.0,0.0,0.0,0.0,0.0,0.0,0.0,0.0,0.0,0.0,0.0,0.0,0.0,0.0,0.0,0.0,0.0,0.0,0.0,0.0,0.0,0.0,0.0,0.0,0.0,0.0,0.0,0.0,0.0,0.0,0.0,0.0,0.0,0.0,0.0,0.0,0.0,0.0,0.0,0.0,0.0,0.0,0.0,0.0,0.0,0.0,0.0,0.0,0.0,0.0,0.0,0.0,0.0,0.0,0.0,0.0,0.0,0.0,0.0,0.0,0.0,0.0,0.0,0.0,0.0,0.0,0.0,0.0,0.0,0.0,0.0,0.0,0.0,0.0,0.0,0.0,0.0,0.0,0.0,0.0,0.0,0.0,0.0,0.0,0.0,0.0,0.0,0.0,0.0,0.0,0.0,0.0,0.0,0.0,0.0,0.0,0.0,0.0,0.0,0.0,0.0,0.0,0.0,0.0,0.0,0.0,0.0,0.0,0.0,0.0,0.0,0.0,0.0,0.0,0.0,0.0,0.0,0.0,0.0,0.0,0.0,0.0,0.0,0.0,0.0,0.0,0.0,0.0,0.0,0.0,0.0,0.0,0.0,0.0,0.0,0.0,0.0,0.0,0.0,0.0,0.0,0.0,0.0,0.0,0.0,0.0,0.0,0.0,0.0,0.0,0.0,0.0,0.0,0.0,0.0,0.0,0.0,0.0,0.0,0.0,0.0,0.0,0.0,0.0,0.0,0.0,0.0,0.0,0.0,0.0,0.0,0.0,0.0,0.0,0.0,0.0,0.0,0.0,0.0,0.0,0.0,0.0,0.0,0.0,0.0,0.0,0.0,0.0,0.0,0.0,0.0,0.0,0.0,0.0,0.0,0.0,0.0,0.0,0.0,0.0,0.0,0.0,0.0,0.0,0.0,0.0,0.0,0.0,0.0,0.0,0.0,0.0,0.0,0.0,0.0,0.0,0.0,0.0,0.0,0.0,0.0,0.0,0.0,0.0,0.0,0.0,0.0,0.0,0.0,0.0,0.0,0.0,0.0,0.0,0.0,0.0,0.0,0.0,0.0,0.0,0.0,0.0,0.0,0.0,0.0,0.0,0.0,0.0,0.0,0.0,0.0,0.0,0.0,0.0,0.0,0.0,0.0,0.0,0.0,0.0,0.0,0.0,0.0,0.0,0.0,0.0,0.0,0.0,0.0,0.0,0.0,0.0,0.0,0.0,0.0,0.0,0.0,0.0,0.0,-1.5799,0.0,0.0,0.0,0.0,0.0,0.0,0.0,0.0,0.0,0.0,0.0,0.0,0.0,0.0,0.0,0.0,0.0,0.0,0.0,0.0,0.0,0.0,0.0,0.0,0.0,0.0,0.0,0.0,0.0,0.0,0.0,0.0,0.0,0.0,0.0,0.0,0.0,0.0,0.0,0.0,0.0,0.0,0.0,0.0,0.0,0.0,0.0,0.0,0.0,0.0,0.0,0.0,0.0,0.0,0.0,0.0,0.0,0.0,0.0,0.0,0.0,0.0,0.0,0.0,0.0,0.0,0.0,0.0,0.0,0.0,0.0,0.0,0.0,0.0,0.0,0.0,0.0,0.0,0.0,0.0,0.0,0.0,0.0,0.0,0.0,0.0,0.0,0.0,0.0,0.0,0.0,0.0,0.0,0.0,0.0,0.0,0.0,0.0,0.0,0.0,0.0,0.0,0.0,0.0,0.0,0.0,0.0,0.0,0.0,0.0,-1.5814,-1.5814,-1.5814,-1.5814,-1.5814,0.0,0.0,0.0,0.0,0.0,0.0,0.0,0.0,0.0,0.0,0.0,0.0,0.0,0.0,0.0,0.0,0.0,0.0,0.0,0.0,0.0,0.0,0.0,0.0,0.0,0.0,0.0,0.0,0.0,0.0,0.0,0.0,0.0,0.0,0.0,0.0,0.0,0.0,0.0,0.0,0.0,0.0,0.0,0.0,0.0,0.0,0.0,0.0,0.0,0.0,0.0,0.0,0.0,0.0,0.0,0.0,0.0,0.0,0.0,0.0,0.0,0.0,0.0,0.0,0.0,0.0,0.0,0.0,0.0,0.0,0.0,0.0,0.0,0.0,0.0,0.0,0.0,0.0,0.0,0.0,0.0,0.0,0.0,0.0,0.0,0.0,0.0,0.0,0.0,0.0,0.0,0.0,0.0,0.0,0.0,0.0,0.0,0.0,0.0,0.0,0.0,0.0,0.0,0.0,0.0,0.0,0.0,0.0,0.0,0.0,0.0,0.0,-1.5741,-1.5726,-1.5741,0.0,0.0,0.0,0.0,0.0,0.0,0.0,0.0,0.0,0.0,0.0,0.0,0.0,0.0,0.0,0.0,0.0,0.0,0.0,0.0,0.0,0.0,0.0,0.0,0.0,0.0,0.0,0.0,0.0,0.0,0.0,0.0,0.0,0.0,0.0,0.0,0.0,0.0,0.0,0.0,0.0,0.0,0.0,0.0,0.0,0.0,0.0,0.0,0.0,0.0,0.0,0.0,0.0,0.0,0.0,0.0,0.0,0.0,0.0,0.0,0.0,0.0,0.0,0.0,0.0,0.0,0.0,0.0,0.0,0.0,0.0,0.0,0.0,0.0,0.0,0.0,0.0,0.0,0.0,0.0,0.0,0.0,0.0,0.0,0.0,0.0,0.0,0.0,0.0,0.0,0.0,0.0,0.0,0.0,0.0,0.0,0.0,0.0,0.0,0.0,0.0,0.0,0.0,0.0,0.0,0.0,0.0,0.0,0.0,0.0,-1.5551,-1.561,-1.5551,0.0,-1.5507,0.0,0.0,0.0,0.0,0.0,0.0,0.0,0.0,0.0,0.0,0.0,0.0,0.0,0.0,0.0,0.0,0.0,0.0,0.0,0.0,0.0,0.0,0.0,0.0,0.0,0.0,0.0,0.0,0.0,0.0,0.0,0.0,0.0,0.0,0.0,0.0,0.0,0.0,0.0,0.0,0.0,0.0,0.0,0.0,0.0,0.0,0.0,0.0,0.0,0.0,0.0,0.0,0.0,0.0,0.0,0.0,0.0,0.0,0.0,0.0,0.0,0.0,0.0,0.0,0.0,0.0,0.0,0.0,0.0,0.0,0.0,0.0,0.0,0.0,0.0,0.0,0.0,0.0,0.0,0.0,0.0,0.0,0.0,0.0,0.0,0.0,0.0,0.0,0.0,0.0,0.0,0.0,0.0,0.0,0.0,0.0,0.0,0.0,0.0,0.0,0.0,0.0,0.0,0.0,0.0,0.0,0.0,0.0,0.0,0.0,-1.6111,-1.6157,-1.5728,-1.5477,0.0,0.0,0.0,0.0,0.0,0.0,0.0,0.0,0.0,0.0,0.0,0.0,0.0,0.0,0.0,0.0,0.0,0.0,0.0,0.0,0.0,0.0,0.0,0.0,0.0,0.0,0.0,0.0,0.0,0.0,0.0,0.0,0.0,0.0,0.0,0.0,0.0,0.0,0.0,0.0,0.0,0.0,0.0,0.0,0.0,0.0,0.0,0.0,0.0,0.0,0.0,0.0,0.0,0.0,0.0,0.0,0.0,0.0,0.0,0.0,0.0,0.0,0.0,0.0,0.0,0.0,0.0,0.0,0.0,0.0,0.0,0.0,0.0,0.0,0.0,0.0,0.0,0.0,0.0,0.0,0.0,0.0,0.0,0.0,0.0,0.0,0.0,0.0,0.0,0.0,0.0,0.0,0.0,0.0,0.0,0.0,0.0,0.0,0.0,0.0,0.0,0.0,0.0,0.0,0.0,0.0,0.0,0.0,0.0,0.0,-1.6884,-1.6615,-1.66,-1.6147,-1.5899,-1.5823,0.0,0.0,0.0,0.0,0.0,0.0,0.0,0.0,0.0,0.0,0.0,0.0,0.0,0.0,0.0,0.0,0.0,0.0,0.0,0.0,0.0,0.0,0.0,0.0,0.0,0.0,0.0,0.0,0.0,0.0,0.0,0.0,0.0,0.0,0.0,0.0,0.0,0.0,0.0,0.0,0.0,0.0,0.0,0.0,0.0,0.0,0.0,0.0,0.0,0.0,0.0,0.0,0.0,0.0,0.0,0.0,0.0,0.0,0.0,0.0,0.0,0.0,0.0,0.0,0.0,0.0,0.0,0.0,0.0,0.0,0.0,0.0,0.0,0.0,0.0,0.0,0.0,0.0,0.0,0.0,0.0,0.0,0.0,0.0,0.0,0.0,0.0,0.0,0.0,0.0,0.0,0.0,0.0,0.0,0.0,0.0,0.0,0.0,0.0,0.0,0.0,0.0,0.0,0.0,0.0,0.0,0.0,0.0,-1.7841,-1.7227,-1.6884,-1.687,-1.6909,-1.6909,0.0,0.0,0.0,0.0,0.0,0.0,0.0,0.0,0.0,0.0,0.0,0.0,0.0,0.0,0.0,0.0,0.0,0.0,0.0,0.0,0.0,0.0,0.0,0.0,0.0,0.0,0.0,0.0,0.0,0.0,0.0,0.0,0.0,0.0,0.0,0.0,0.0,0.0,0.0,0.0,0.0,0.0,0.0,0.0,0.0,0.0,0.0,0.0,0.0,0.0,0.0,0.0,0.0,0.0,0.0,0.0,0.0,0.0,0.0,0.0,0.0,0.0,0.0,0.0,0.0,0.0,0.0,0.0,0.0,0.0,0.0,0.0,0.0,0.0,0.0,0.0,0.0,0.0,0.0,0.0,0.0,0.0,0.0,0.0,0.0,0.0,0.0,0.0,0.0,0.0,0.0,0.0,0.0,0.0,0.0,0.0,0.0,0.0,0.0,0.0,0.0,0.0,0.0,0.0,0.0,0.0,0.0,0.0,0.0,-1.8124,-1.7585,-1.71,-1.6733,-1.6739,-1.6719,0.0,0.0,0.0,0.0,0.0,0.0,0.0,0.0,0.0,0.0,0.0,0.0,0.0,0.0,0.0,0.0,0.0,0.0,0.0,0.0,0.0,0.0,0.0,0.0,0.0,0.0,0.0,0.0,0.0,0.0,0.0,0.0,0.0,0.0,0.0,0.0,0.0,0.0,0.0,0.0,0.0,0.0,0.0,0.0,0.0,0.0,0.0,0.0,0.0,0.0,0.0,0.0,0.0,0.0,0.0,0.0,0.0,0.0,0.0,0.0,0.0,0.0,0.0,0.0,0.0,0.0,0.0,0.0,0.0,0.0,0.0,0.0,0.0,0.0,0.0,0.0,0.0,0.0,0.0,0.0,0.0,0.0,0.0,0.0,0.0,0.0,0.0,0.0,0.0,0.0,0.0,0.0,0.0,0.0,0.0,0.0,0.0,0.0,0.0,0.0,0.0,0.0,0.0,0.0,0.0,0.0,0.0,0.0,0.0,-1.8161,0.0,-1.7436,-1.7047,-1.7019,-1.6996,0.0,0.0,0.0,0.0,0.0,0.0,0.0,0.0,0.0,0.0,0.0,0.0,0.0,0.0,0.0,0.0,0.0,0.0,0.0,0.0,0.0,0.0,0.0,0.0,0.0,0.0,0.0,0.0,0.0,0.0,0.0,0.0,0.0,0.0,0.0,0.0,0.0,0.0,0.0,0.0,0.0,0.0,0.0,0.0,0.0,0.0,0.0,0.0,0.0,0.0,0.0,0.0,0.0,0.0,0.0,0.0,0.0,0.0,0.0,0.0,0.0,0.0,0.0,0.0,0.0,0.0,0.0,0.0,0.0,0.0,0.0,0.0,0.0,0.0,0.0,0.0,0.0,0.0,0.0,0.0,0.0,0.0,0.0,0.0,0.0,0.0,0.0,0.0,0.0,0.0,0.0,0.0,0.0,0.0,0.0,0.0,0.0,0.0,0.0,0.0,0.0,0.0,0.0,0.0,0.0,0.0,0.0,0.0,-1.7936,-1.7896,-1.7923,-1.7963,-1.7896,-1.7909,-1.7868,0.0,0.0,0.0,0.0,0.0,0.0,0.0,0.0,0.0,0.0,0.0,0.0,0.0,0.0,0.0,0.0,0.0,0.0,0.0,0.0,0.0,0.0,0.0,0.0,0.0,0.0,0.0,0.0,0.0,0.0,0.0,0.0,0.0,0.0,0.0,0.0,0.0,0.0,0.0,0.0,0.0,0.0,0.0,0.0,0.0,0.0,0.0,0.0,0.0,0.0,0.0,0.0,0.0,0.0,0.0,0.0,0.0,0.0,0.0,0.0,0.0,0.0,0.0,0.0,0.0,0.0,0.0,0.0,0.0,0.0,0.0,0.0,0.0,0.0,0.0,0.0,0.0,0.0,0.0,0.0,0.0,0.0,0.0,0.0,0.0,0.0,0.0,0.0,0.0,0.0,0.0,0.0,0.0,0.0,0.0,0.0,0.0,0.0,0.0,0.0,0.0,0.0,0.0,0.0,0.0,0.0,0.0,0.0,0.0,-1.8126,-1.8585,-1.8886,-1.8829,-1.8454,-1.8185,0.0,0.0,0.0,0.0,0.0,0.0,0.0,0.0,0.0,0.0,0.0,0.0,0.0,0.0,0.0,0.0,0.0,0.0,0.0,0.0,0.0,0.0,0.0,0.0,0.0,0.0,0.0,0.0,0.0,0.0,0.0,0.0,0.0,0.0,0.0,0.0,0.0,0.0,0.0,0.0,0.0,0.0,0.0,0.0,0.0,0.0,0.0,0.0,0.0,0.0,0.0,0.0,0.0,0.0,0.0,0.0,0.0,0.0,0.0,0.0,0.0,0.0,0.0,0.0,0.0,0.0,0.0,0.0,0.0,0.0,0.0,0.0,0.0,0.0,0.0,0.0,0.0,0.0,0.0,0.0,0.0,0.0,0.0,0.0,0.0,0.0,0.0,0.0,0.0,0.0,0.0,0.0,0.0,0.0,0.0,0.0,0.0,0.0,0.0,0.0,0.0,0.0,0.0,0.0,0.0,0.0,0.0,0.0,0.0,-1.9227,-1.929,-1.9205,-1.9028,-1.8629,-1.8388,-1.8317,0.0,0.0,0.0,0.0,0.0,0.0,0.0,0.0,0.0,0.0,0.0,0.0,0.0,0.0,0.0,0.0,0.0,0.0,0.0,0.0,0.0,0.0,0.0,0.0,0.0,0.0,0.0,0.0,0.0,0.0,0.0,0.0,0.0,0.0,0.0,0.0,0.0,0.0,0.0,0.0,0.0,0.0,0.0,0.0,0.0,0.0,0.0,0.0,0.0,0.0,0.0,0.0,0.0,0.0,0.0,0.0,0.0,0.0,0.0,0.0,0.0,0.0,0.0,0.0,0.0,0.0,0.0,0.0,0.0,0.0,0.0,0.0,0.0,0.0,0.0,0.0,0.0,0.0,0.0,0.0,0.0,0.0,0.0,0.0,0.0,0.0,0.0,0.0,0.0,0.0,0.0,0.0,0.0,0.0,0.0,0.0,0.0,0.0,0.0,0.0,0.0,0.0,0.0,0.0,0.0,0.0,0.0,0.0,-2.0901,-2.0016,-1.9326,-1.8763,-1.8699,-1.8588,0.0,0.0,0.0,0.0,0.0,0.0,0.0,0.0,0.0,0.0,0.0,0.0,0.0,0.0,0.0,0.0,0.0,0.0,0.0,0.0,0.0,0.0,0.0,0.0,0.0,0.0,0.0,0.0,0.0,0.0,0.0,0.0,0.0,0.0,0.0,0.0,0.0,0.0,0.0,0.0,0.0,0.0,0.0,0.0,0.0,0.0,0.0,0.0,0.0,0.0,0.0,0.0,0.0,0.0,0.0,0.0,0.0,0.0,0.0,0.0,0.0,0.0,0.0,0.0,0.0,0.0,0.0,0.0,0.0,0.0,0.0,0.0,0.0,0.0,0.0,0.0,0.0,0.0,0.0,0.0,0.0,0.0,0.0,0.0,0.0,0.0,0.0,0.0,0.0,0.0,0.0,0.0,0.0,0.0,0.0,0.0,0.0,0.0,0.0,0.0,0.0,0.0,0.0,0.0,0.0,0.0,0.0,0.0,0.0,-2.1335,-2.1448,-2.1357,-2.1025,-2.0591,-2.0118,0.0,0.0,0.0,0.0,0.0,0.0,0.0,0.0,0.0,0.0,0.0,0.0,0.0,0.0,0.0,0.0,0.0,0.0,0.0,0.0,0.0,0.0,0.0,0.0,0.0,0.0,0.0,0.0,0.0,0.0,0.0,0.0,0.0,0.0,0.0,0.0,0.0,0.0,0.0,0.0,0.0,0.0,0.0,0.0,0.0,0.0,0.0,0.0,0.0,0.0,0.0,0.0,0.0,0.0,0.0,0.0,0.0,0.0,0.0,0.0,0.0,0.0,0.0,0.0,0.0,0.0,0.0,0.0,0.0,0.0,0.0,0.0,0.0,0.0,0.0,0.0,0.0,0.0,0.0,0.0,0.0,0.0,0.0,0.0,0.0,0.0,0.0,0.0,0.0,0.0,0.0,0.0,0.0,0.0,0.0,0.0,0.0,0.0,0.0,0.0,0.0,0.0,0.0,0.0,0.0,0.0,0.0,0.0,-2.2071,-2.2535,-2.2862,-2.2934,-2.2794,-2.1767,-2.0901,0.0,0.0,0.0,0.0,0.0,0.0,0.0,0.0,0.0,0.0,0.0,0.0,0.0,0.0,0.0,0.0,0.0,0.0,0.0,0.0,0.0,0.0,0.0,0.0,0.0,0.0,0.0,0.0,0.0,0.0,0.0,0.0,0.0,0.0,0.0,0.0,0.0,0.0,0.0,0.0,0.0,0.0,0.0,0.0,0.0,0.0,0.0,0.0,0.0,0.0,0.0,0.0,0.0,0.0,0.0,0.0,0.0,0.0,0.0,0.0,0.0,0.0,0.0,0.0,0.0,0.0,0.0,0.0,0.0,0.0,0.0,0.0,0.0,0.0,0.0,0.0,0.0,0.0,0.0,0.0,0.0,0.0,0.0,0.0,0.0,0.0,0.0,0.0,0.0,0.0,0.0,0.0,0.0,0.0,0.0,0.0,0.0,0.0,0.0,0.0,0.0,0.0,0.0,0.0,0.0,0.0,0.0,0.0,-2.2912,-2.3966,-2.4054,-2.4042,-2.3966,-2.2548,-2.1455,0.0,0.0,0.0,0.0,0.0,0.0,0.0,0.0,0.0,0.0,0.0,0.0,0.0,0.0,0.0,0.0,0.0,0.0,0.0,0.0,0.0,0.0,0.0,0.0,0.0,0.0,0.0,0.0,0.0,0.0,0.0,0.0,0.0,0.0,0.0,0.0,0.0,0.0,0.0,0.0,0.0,0.0,0.0,0.0,0.0,0.0,0.0,0.0,0.0,0.0,0.0,0.0,0.0,0.0,0.0,0.0,0.0,0.0,0.0,0.0,0.0,0.0,0.0,0.0,0.0,0.0,0.0,0.0,0.0,0.0,0.0,0.0,0.0,0.0,0.0,0.0,0.0,0.0,0.0,0.0,0.0,0.0,0.0,0.0,0.0,0.0,0.0,0.0,0.0,0.0,0.0,0.0,0.0,0.0,0.0,0.0,0.0,0.0,0.0,0.0,0.0,0.0,0.0,0.0,0.0,0.0,0.0,0.0,-2.3301,-2.3991,-2.4279,-2.4163,-2.3791,-2.3591,-2.2987,0.0,0.0,0.0,0.0,0.0,0.0,0.0,0.0,0.0,0.0,0.0,0.0,0.0,0.0,0.0,0.0,0.0,0.0,0.0,0.0,0.0,0.0,0.0,0.0,0.0,0.0,0.0,0.0,0.0,0.0,0.0,0.0,0.0,0.0,0.0,0.0,0.0,0.0,0.0,0.0,0.0,0.0,0.0,0.0,0.0,0.0,0.0,0.0,-0.8444,0.0,0.0,0.0,0.0,0.0,0.0,0.0,0.0,0.0,0.0,0.0,0.0,0.0,0.0,0.0,0.0,0.0,0.0,0.0,0.0,0.0,0.0,0.0,0.0,0.0,0.0,0.0,0.0,0.0,0.0,0.0,0.0,0.0,0.0,0.0,0.0,0.0,0.0,0.0,0.0,0.0,0.0,0.0,0.0,0.0,0.0,0.0,0.0,0.0,0.0,0.0,0.0,0.0,0.0,0.0,0.0,0.0,0.0,0.0,-2.3692,-2.4241,-2.4583,-2.4666,-2.4381,-2.4263,-2.3542,0.0,0.0,0.0,0.0,0.0,0.0,0.0,0.0,0.0,0.0,0.0,0.0,0.0,0.0,0.0,0.0,0.0,0.0,0.0,0.0,0.0,0.0,0.0,0.0,0.0,0.0,0.0,0.0,0.0,0.0,0.0,0.0,0.0,0.0,0.0,0.0,0.0,0.0,0.0,0.0,0.0,0.0,0.0,0.0,0.0,0.0,0.0,0.0,0.0,0.0,0.0,0.0,0.0,0.0,0.0,0.0,0.0,0.0,0.0,0.0,0.0,0.0,0.0,0.0,0.0,0.0,0.0,0.0,0.0,0.0,0.0,0.0,0.0,0.0,0.0,0.0,0.0,0.0,0.0,0.0,0.0,0.0,0.0,0.0,0.0,0.0,0.0,0.0,0.0,0.0,0.0,0.0,0.0,0.0,0.0,0.0,0.0,0.0,0.0,0.0,0.0,0.0,0.0,0.0,0.0,0.0,0.0,-2.3032,-2.4013,-2.4406,-2.489,-2.508,-2.4841,-2.4335,-2.3399,-2.1975,0.0,0.0,0.0,0.0,0.0,0.0,0.0,0.0,0.0,0.0,0.0,0.0,0.0,0.0,0.0,0.0,0.0,0.0,0.0,0.0,0.0,0.0,0.0,0.0,0.0,0.0,0.0,0.0,0.0,0.0,0.0,0.0,0.0,0.0,0.0,0.0,0.0,0.0,-0.8148,-0.8332,0.0,0.0,0.0,0.0,0.0,0.0,0.0,0.0,-0.9479,0.0,0.0,0.0,0.0,0.0,0.0,0.0,0.0,0.0,0.0,0.0,0.0,0.0,0.0,0.0,0.0,0.0,0.0,0.0,0.0,0.0,0.0,0.0,0.0,0.0,0.0,0.0,0.0,0.0,0.0,0.0,0.0,0.0,0.0,0.0,0.0,0.0,0.0,0.0,0.0,0.0,0.0,0.0,0.0,0.0,0.0,0.0,0.0,0.0,0.0,0.0,0.0,0.0,0.0,0.0,0.0,-2.1256,-2.3344,-2.4255,-2.4103,-2.4824,-2.4771,-2.3795,-2.3408,-2.2628,-2.1416,0.0,0.0,0.0,0.0,0.0,0.0,0.0,0.0,0.0,0.0,0.0,0.0,0.0,0.0,0.0,0.0,0.0,0.0,0.0,0.0,0.0,0.0,0.0,0.0,0.0,0.0,0.0,0.0,0.0,0.0,0.0,0.0,0.0,0.0,0.0,0.0,0.0,0.0,0.0,-0.8811,-0.9103,0.0,0.0,0.0,0.0,0.0,0.0,0.0,0.0,-0.9813,0.0,0.0,0.0,0.0,0.0,0.0,0.0,0.0,0.0,0.0,0.0,0.0,0.0,0.0,0.0,0.0,0.0,0.0,0.0,0.0,0.0,0.0,0.0,0.0,0.0,0.0,0.0,0.0,0.0,0.0,0.0,0.0,0.0,0.0,0.0,0.0,0.0,0.0,0.0,0.0,0.0,0.0,0.0,0.0,0.0,0.0,0.0,0.0,0.0,0.0,0.0,0.0,0.0,0.0,0.0,-2.2092,-2.3389,-2.4135,-2.4292,-2.4648,-2.4472,-2.3649,-2.3016,-2.2209,0.0,0.0,0.0,0.0,0.0,0.0,0.0,0.0,0.0,0.0,0.0,0.0,0.0,0.0,0.0,0.0,0.0,0.0,0.0,0.0,0.0,0.0,0.0,0.0,0.0,0.0,0.0,0.0,0.0,0.0,0.0,0.0,0.0,0.0,0.0,0.0,0.0,0.0,0.0,0.0,-0.8901,-0.9296,-0.9532,0.0,0.0,0.0,0.0,0.0,0.0,-1.028,-1.0219,0.0,0.0,0.0,0.0,0.0,0.0,0.0,0.0,0.0,0.0,0.0,0.0,0.0,0.0,0.0,0.0,0.0,0.0,0.0,0.0,0.0,0.0,0.0,0.0,0.0,0.0,0.0,0.0,0.0,0.0,0.0,0.0,0.0,0.0,0.0,0.0,0.0,0.0,0.0,0.0,0.0,0.0,0.0,0.0,0.0,0.0,0.0,0.0,0.0,0.0,0.0,0.0,0.0,0.0,0.0,-2.2714,-2.3325,-2.3855,-2.4243,-2.4294,-2.4057,-2.3444,-2.2535,-2.1699,0.0,0.0,0.0,0.0,0.0,0.0,0.0,0.0,0.0,0.0,0.0,0.0,0.0,0.0,0.0,0.0,0.0,0.0,0.0,0.0,0.0,0.0,0.0,0.0,0.0,0.0,0.0,0.0,0.0,0.0,0.0,0.0,0.0,0.0,0.0,0.0,0.0,0.0,0.0,0.0,0.0,-0.9479,-0.9886,-0.99,0.0,0.0,0.0,0.0,-1.0688,-1.0681,0.0,0.0,0.0,0.0,0.0,0.0,0.0,0.0,0.0,0.0,0.0,0.0,0.0,0.0,0.0,0.0,0.0,0.0,0.0,0.0,0.0,0.0,0.0,0.0,0.0,0.0,0.0,0.0,0.0,0.0,0.0,0.0,0.0,0.0,0.0,0.0,0.0,0.0,0.0,0.0,0.0,0.0,0.0,0.0,0.0,0.0,0.0,0.0,0.0,0.0,0.0,0.0,0.0,0.0,0.0,0.0,-2.2149,-2.287,-2.3314,-2.349,-2.3636,-2.3239,-2.2121,-2.1522,-2.0495,0.0,0.0,0.0,0.0,0.0,0.0,0.0,0.0,0.0,0.0,0.0,0.0,0.0,0.0,0.0,0.0,0.0,0.0,0.0,0.0,0.0,0.0,0.0,0.0,0.0,0.0,0.0,0.0,0.0,0.0,0.0,0.0,0.0,0.0,0.0,0.0,0.0,0.0,0.0,0.0,0.0,-0.9927,-1.0728,-1.0685,-1.0641,0.0,0.0,-1.0989,-1.1283,-1.1109,0.0,0.0,0.0,0.0,0.0,0.0,0.0,0.0,0.0,0.0,0.0,0.0,0.0,0.0,0.0,0.0,0.0,0.0,0.0,0.0,0.0,0.0,0.0,0.0,0.0,0.0,0.0,0.0,0.0,0.0,0.0,0.0,0.0,0.0,0.0,0.0,0.0,0.0,0.0,0.0,0.0,0.0,0.0,0.0,0.0,0.0,0.0,0.0,0.0,0.0,0.0,0.0,0.0,0.0,0.0,-2.1224,-2.2681,-2.2712,-2.2983,-2.3485,-2.3334,-2.282,-2.1996,-2.1147,-2.0049,0.0,0.0,0.0,0.0,0.0,0.0,0.0,0.0,0.0,0.0,0.0,0.0,0.0,0.0,0.0,0.0,0.0,0.0,0.0,0.0,0.0,0.0,0.0,0.0,0.0,0.0,0.0,0.0,0.0,0.0,0.0,0.0,0.0,0.0,0.0,0.0,0.0,0.0,0.0,0.0,0.0,0.0,-1.0895,-1.1029,0.0,0.0,0.0,-1.1336,-1.1637,0.0,0.0,0.0,0.0,0.0,0.0,0.0,0.0,0.0,0.0,0.0,0.0,0.0,0.0,0.0,0.0,0.0,0.0,0.0,0.0,0.0,0.0,0.0,0.0,0.0,0.0,0.0,0.0,0.0,0.0,0.0,0.0,0.0,0.0,0.0,0.0,0.0,0.0,0.0,0.0,0.0,0.0,0.0,0.0,0.0,0.0,0.0,0.0,0.0,0.0,0.0,0.0,0.0,0.0,0.0,0.0,0.0,-2.2875,-2.2389,-2.2525,-2.3327,-2.2927,-2.2391,-2.1773,-2.0823,0.0,0.0,0.0,0.0,0.0,0.0,0.0,0.0,0.0,0.0,0.0,0.0,0.0,0.0,0.0,0.0,0.0,0.0,0.0,0.0,0.0,0.0,0.0,0.0,0.0,0.0,0.0,-1.0992,0.0,0.0,0.0,0.0,0.0,0.0,0.0,0.0,0.0,0.0,0.0,0.0,0.0,0.0,-1.0468,-1.1122,-1.1463,-1.1643,0.0,0.0,-1.1804,-1.1957,-1.173,-1.1443,0.0,0.0,0.0,0.0,0.0,0.0,0.0,0.0,0.0,0.0,0.0,0.0,0.0,0.0,0.0,0.0,0.0,0.0,0.0,0.0,0.0,0.0,0.0,0.0,0.0,0.0,0.0,0.0,0.0,0.0,0.0,0.0,0.0,0.0,0.0,0.0,0.0,0.0,0.0,0.0,0.0,0.0,0.0,0.0,0.0,0.0,0.0,0.0,0.0,0.0,0.0,0.0,0.0,0.0,0.0,-2.2104,-2.1768,-2.1958,-2.2734,-2.2176,-2.1665,-2.1198,-2.0161,-1.9293,0.0,0.0,0.0,0.0,0.0,0.0,0.0,0.0,0.0,0.0,0.0,0.0,0.0,0.0,0.0,0.0,0.0,0.0,0.0,0.0,0.0,0.0,0.0,0.0,0.0,0.0,0.0,0.0,0.0,0.0,0.0,0.0,0.0,0.0,0.0,0.0,0.0,0.0,0.0,0.0,0.0,-1.0842,-1.169,-1.2058,-1.2238,0.0,0.0,-1.2572,-1.2311,-1.2024,-1.1737,-1.1443,0.0,0.0,0.0,0.0,0.0,0.0,0.0,0.0,0.0,0.0,0.0,0.0,0.0,0.0,0.0,0.0,0.0,0.0,0.0,0.0,0.0,0.0,0.0,0.0,0.0,0.0,0.0,0.0,0.0,0.0,0.0,0.0,0.0,0.0,0.0,0.0,0.0,0.0,0.0,0.0,0.0,0.0,0.0,0.0,0.0,0.0,0.0,0.0,0.0,0.0,0.0,0.0,0.0,-2.008,-2.1724,-2.1269,-2.1373,-2.2134,-2.1807,-2.1497,-2.1181,-2.0426,-1.963,0.0,0.0,0.0,0.0,0.0,0.0,0.0,0.0,0.0,0.0,0.0,0.0,0.0,0.0,0.0,0.0,0.0,0.0,0.0,0.0,0.0,0.0,0.0,0.0,0.0,0.0,0.0,0.0,-1.1584,-1.1274,-1.0735,0.0,0.0,0.0,0.0,0.0,0.0,0.0,0.0,0.0,0.0,-1.1283,-1.1797,-1.2271,0.0,0.0,-1.2552,-1.2714,-1.2345,-1.2211,-1.2037,-1.1744,-1.1216,0.0,0.0,0.0,0.0,0.0,0.0,0.0,0.0,0.0,0.0,0.0,0.0,0.0,0.0,0.0,0.0,0.0,0.0,0.0,0.0,0.0,0.0,0.0,0.0,0.0,0.0,0.0,0.0,0.0,0.0,0.0,0.0,0.0,0.0,0.0,0.0,0.0,0.0,0.0,0.0,0.0,0.0,0.0,0.0,0.0,0.0,0.0,0.0,0.0,0.0,0.0,0.0,-1.9821,-2.1188,-2.0913,-2.1073,-2.1645,-2.1436,-2.1282,-2.1128,-2.045,-1.9851,0.0,0.0,0.0,0.0,0.0,0.0,0.0,0.0,0.0,0.0,0.0,0.0,0.0,0.0,0.0,0.0,0.0,0.0,0.0,0.0,0.0,0.0,0.0,0.0,0.0,0.0,0.0,0.0,-1.1751,-1.137,-1.0806,0.0,0.0,0.0,0.0,0.0,0.0,0.0,0.0,0.0,0.0,-1.1697,-1.2084,-1.264,-1.2806,-1.2599,-1.2752,-1.2779,-1.2478,-1.2358,-1.2204,-1.1911,0.0,0.0,0.0,0.0,0.0,0.0,0.0,0.0,0.0,0.0,0.0,0.0,0.0,0.0,0.0,0.0,0.0,0.0,0.0,0.0,0.0,0.0,0.0,0.0,0.0,0.0,0.0,0.0,0.0,0.0,-1.763,0.0,0.0,0.0,0.0,0.0,0.0,0.0,0.0,0.0,0.0,0.0,0.0,0.0,0.0,0.0,0.0,0.0,0.0,0.0,0.0,0.0,0.0,-1.9704,-2.04,-2.0855,-2.1107,-2.1205,-2.1061,-2.0916,-2.0906,-2.0242,-1.9912,-1.9873,0.0,0.0,0.0,0.0,0.0,0.0,0.0,0.0,0.0,0.0,0.0,0.0,0.0,0.0,0.0,0.0,0.0,0.0,0.0,0.0,0.0,0.0,0.0,0.0,0.0,0.0,-1.21,-1.1666,-1.1303,0.0,0.0,0.0,0.0,0.0,0.0,0.0,0.0,0.0,0.0,-1.167,-1.2078,-1.2714,-1.2993,-1.3173,-1.316,-1.3173,-1.308,-1.2842,-1.2492,-1.2204,0.0,0.0,0.0,0.0,0.0,0.0,0.0,0.0,0.0,0.0,0.0,0.0,0.0,0.0,0.0,0.0,0.0,0.0,0.0,0.0,0.0,0.0,0.0,0.0,0.0,0.0,0.0,-1.8677,-1.8721,0.0,0.0,0.0,0.0,0.0,0.0,0.0,0.0,0.0,0.0,0.0,-2.236,-2.2424,0.0,0.0,0.0,0.0,0.0,0.0,0.0,0.0,0.0,0.0,0.0,0.0,-1.9903,-2.0389,-2.0594,-2.0969,-2.1382,-2.1174,-2.1095,-2.1105,-2.0879,-2.0518,-1.9922,0.0,0.0,0.0,0.0,0.0,0.0,0.0,0.0,0.0,0.0,0.0,0.0,0.0,0.0,0.0,0.0,0.0,0.0,0.0,0.0,0.0,0.0,0.0,0.0,0.0,-1.2038,0.0,0.0,0.0,0.0,0.0,0.0,0.0,0.0,0.0,0.0,0.0,-1.1577,-1.1957,-1.2438,-1.2759,-1.2829,-1.3006,-1.3066,0.0,0.0,0.0,0.0,0.0,0.0,0.0,0.0,0.0,0.0,0.0,0.0,0.0,0.0,-1.1042,-1.0755,-1.0855,-1.1015,-1.1116,0.0,0.0,0.0,0.0,0.0,0.0,0.0,0.0,0.0,0.0,0.0,0.0,0.0,0.0,-1.956,0.0,-1.9239,0.0,0.0,0.0,0.0,0.0,0.0,0.0,0.0,-2.2533,-2.2753,-2.2854,-2.2989,-2.2881,0.0,-2.2422,-2.1846,0.0,0.0,0.0,0.0,0.0,0.0,0.0,0.0,-2.0226,-2.0667,-2.0772,-2.1123,-2.1578,-2.1546,-2.1465,-2.1455,-2.1465,-2.1055,-2.0176,-1.9346,-1.8691,0.0,0.0,0.0,0.0,0.0,0.0,0.0,0.0,0.0,0.0,0.0,0.0,0.0,0.0,0.0,0.0,0.0,0.0,0.0,0.0,0.0,0.0,0.0,-1.208,0.0,0.0,0.0,0.0,0.0,0.0,0.0,0.0,0.0,-1.1081,-1.1666,-1.2091,-1.2278,-1.2826,-1.31,-1.2869,0.0,0.0,0.0,0.0,0.0,0.0,0.0,-1.2685,-1.2879,-1.2746,-1.2619,-1.2619,-1.2298,-1.2044,-1.2044,0.0,0.0,-1.1557,-1.1683,-1.1917,-1.2024,-1.2044,-1.2044,-1.2044,-1.2044,-1.2044,0.0,0.0,0.0,0.0,0.0,0.0,0.0,0.0,-1.9976,-1.9911,0.0,-1.9628,0.0,0.0,0.0,0.0,0.0,-2.167,0.0,0.0,-2.2799,-2.2583,-2.2422,-2.2788,-2.2902,-2.2674,-2.2913,-2.264,-2.1882,-2.1063,0.0,0.0,0.0,0.0,0.0,0.0,-2.0645,-2.1165,-2.1391,-2.1617,-2.1885,-2.1904,-2.1904,-2.1904,-2.1885,-2.1475,-2.0664,-2.0557,-1.998,-1.8689,-1.8262,0.0,0.0,0.0,0.0,0.0,0.0,0.0,0.0,0.0,0.0,0.0,0.0,0.0,0.0,0.0,0.0,0.0,0.0,0.0,0.0,-1.2224,0.0,0.0,0.0,0.0,0.0,0.0,0.0,0.0,0.0,0.0,-1.1904,-1.2158,-1.2338,-1.2358,0.0,0.0,0.0,0.0,-1.3634,-1.3607,-1.3539,-1.3614,-1.3607,-1.338,-1.3206,-1.322,0.0,0.0,-1.3227,-1.3213,-1.3166,-1.32,-1.3166,-1.3033,-1.2452,-1.2545,-1.2812,-1.3093,-1.3126,-1.3186,-1.3193,-1.308,-1.3113,-2.0755,0.0,0.0,0.0,0.0,-1.9499,-1.9774,-2.0038,-2.0038,-2.0188,-2.0477,-2.0408,0.0,0.0,0.0,0.0,0.0,0.0,-2.3133,-2.3515,-2.3891,-2.4095,-2.4186,-2.4348,-2.4348,-2.4348,-2.4198,-2.3982,-2.3613,-2.3134,-2.2017,-2.0445,0.0,0.0,0.0,0.0,-2.1085,-2.0994,-2.163,-2.2142,-2.2324,-2.2334,-2.2334,-2.2324,-2.2041,-2.1768,-2.1514,-2.0908,-2.0391,-2.0019,-1.9014,0.0,0.0,0.0,0.0,0.0,0.0,0.0,0.0,0.0,0.0,0.0,0.0,0.0,0.0,0.0,0.0,0.0,0.0,0.0,-1.2849,-1.2775,-1.2465,0.0,0.0,0.0,0.0,0.0,0.0,0.0,0.0,0.0,-1.2766,-1.2899,-1.3026,0.0,0.0,-1.3728,-1.3434,-1.3534,-1.3567,-1.3367,-1.3333,0.0,-1.3333,-1.3267,-1.328,-1.348,-1.352,-1.352,-1.352,-1.3353,-1.3206,-1.3213,-1.338,-1.3454,-1.33,-1.3146,-1.3126,-1.3193,-1.3206,-1.3206,-1.3206,-1.3206,-1.3213,-2.2487,-2.1352,-2.1013,-2.0601,-2.0206,-2.0466,-2.0752,-2.1065,-2.1075,-2.1226,-2.1367,-2.1192,-2.1104,-2.1125,-2.1172,0.0,0.0,0.0,-2.3631,-2.4036,-2.4336,-2.4637,-2.4826,-2.4814,-2.4814,-2.4758,-2.4679,-2.4443,-2.4147,-2.3748,-2.2862,-2.1419,0.0,0.0,-2.0832,-2.1433,-2.165,-2.1589,-2.2103,-2.2408,-2.2744,-2.2764,-2.2764,-2.2754,-2.2519,-2.2305,-2.2139,-2.1621,-2.1182,-2.084,-1.9922,-1.9199,0.0,0.0,0.0,0.0,0.0,0.0,0.0,0.0,0.0,0.0,0.0,-1.3194,0.0,0.0,0.0,0.0,-1.276,-1.2966,-1.318,-1.3039,0.0,0.0,0.0,0.0,0.0,0.0,0.0,-1.2438,-1.2585,-1.2846,-1.3313,-1.338,-1.34,-1.346,-1.3828,-1.3935,-1.3527,0.0,-1.3714,-1.342,-1.3487,-1.3561,-1.3561,-1.3561,-1.3621,-1.3788,-1.3821,-1.3821,-1.3814,-1.3667,-1.3561,-1.3581,-1.3701,-1.3821,-1.3821,-1.3674,-1.3561,-1.3561,-1.3561,-1.3561,-1.3561,-1.3554,-1.3561,-2.4326,-2.3818,-2.2375,-2.1879,-2.193,-2.193,-2.217,-2.2531,-2.2501,-2.2501,-2.2451,-2.202,-2.1909,-2.2107,-2.2174,0.0,-2.3292,-2.3292,-2.3705,-2.4429,-2.4429,-2.4483,-2.465,-2.4777,-2.4799,-2.4727,-2.4614,-2.4363,-2.3981,-2.3585,-2.3156,-2.2734,-2.2858,-2.2504,-2.188,-2.2036,-2.2453,-2.2755,-2.2624,-2.2744,-2.3125,-2.3144,-2.3144,-2.3135,-2.3144,-2.2949,-2.2588,-2.2529,-2.2148,-2.1377,-2.0879,-2.042,-1.9961,0.0,0.0,0.0,0.0,0.0,0.0,0.0,0.0,0.0,0.0,0.0,0.0,0.0,0.0,0.0,-1.3138,0.0,-1.328,-1.3253,0.0,0.0,0.0,-1.2672,-1.2405,-1.2694,-1.2876,-1.2923,0.0,0.0,-1.3707,-1.3748,-1.3647,-1.338,-1.3794,-1.3921,-1.3387,-1.3821,-1.4062,-1.3821,-1.3988,-1.4148,-1.4155,-1.4155,-1.4162,-1.4182,-1.4155,-1.4162,-1.4135,-1.4115,-1.4122,-1.4048,-1.4082,-1.4082,-1.4082,-1.4055,-1.4088,-1.4055,-1.4062,-1.4068,-1.4041,-1.4041,-1.4028,-2.5664,-2.5215,-2.4555,-2.3673,-2.2771,-2.2867,-2.2916,-2.2889,-2.267,-2.2606,-2.2661,-2.2307,-2.2199,-2.2443,-2.2724,-2.2974,-2.3148,-2.3477,-2.4052,-2.4724,-2.4735,-2.5228,-2.6103,-2.6103,-2.6225,-2.6401,-2.6411,-2.614,-2.5585,-2.5352,-2.5009,-2.4535,-2.4027,-2.3137,-2.1942,-2.2232,-2.2497,-2.2595,-2.2832,-2.3037,-2.3135,-2.3144,-2.3144,-2.3144,-2.3144,-2.3096,-2.2988,-2.2685,-2.2422,-2.2197,-2.1484,-2.0869,-2.043,-1.9814,0.0,0.0,0.0,0.0,0.0,0.0,0.0,0.0,0.0,-1.3573,-1.3562,0.0,-1.3499,0.0,-1.348,-1.3634,-1.3861,-1.3674,0.0,0.0,-1.3233,-1.3073,-1.2999,-1.306,-1.3267,-1.3721,-1.3834,-1.4075,-1.4589,-1.4649,-1.4623,-1.4556,-1.4469,-1.4355,-1.4235,-1.4516,-1.4736,-1.4656,-1.4683,-1.475,-1.4736,-1.4756,-1.4736,-1.4756,-1.475,-1.4683,-1.4456,-1.4422,-1.4355,-1.4142,-1.4088,-1.4088,-1.4102,-1.4088,-1.4095,-1.4088,-1.4088,-1.4088,-1.4088,-1.4088,-1.4088,-2.6523,-2.6279,-2.6035,-2.5518,-2.4805,-2.4053,-2.3711,-2.3682,-2.3457,-2.3448,-2.3516,-2.3367,-2.3441,-2.3527,-2.3957,-2.4214,-2.4204,-2.465,-2.52,-2.5605,-2.569,-2.6238,-2.6922,-2.6933,-2.691,-2.7004,-2.6904,-2.6615,-2.6235,-2.5896,-2.5543,-2.5178,-2.4645,-2.3979,-2.3037,-2.2871,-2.2793,-2.2793,-2.3018,-2.3144,-2.3144,-2.3144,-2.3144,-2.3144,-2.3144,-2.3144,-2.3144,-2.291,-2.2705,-2.2519,-2.206,-2.1602,-2.1162,-2.0547,-1.9814,0.0,0.0,0.0,0.0,0.0,0.0,0.0,0.0,0.0,0.0,0.0,-1.3894,-1.3804,-1.383,-1.3908,-1.4075,-1.4055,-1.4035,-1.4035,-1.4008,-1.3988,-1.3995,-1.3995,-1.4122,-1.4436,-1.4476,-1.4596,-1.4923,-1.506,-1.506,-1.506,-1.4937,-1.4863,-1.4756,-1.4863,-1.506,-1.506,-1.506,-1.506,-1.506,-1.506,-1.506,-1.506,-1.506,-1.4903,-1.475,-1.4716,-1.4663,-1.4516,-1.4476,-1.4476,-1.4476,-1.4476,-1.4476,-1.4476,-1.4482,-1.4429,-1.4309,-1.4282,-1.4309,-2.7226,-2.7178,-2.7119,-2.707,-2.6894,-2.5391,-2.4746,-2.4736,-2.4629,-2.4521,-2.4424,-2.4608,-2.471,-2.4792,-2.527,-2.5452,-2.5543,-2.6087,-2.6436,-2.6615,-2.6872,-2.7171,-2.7413,-2.7403,-2.7279,-2.7166,-2.6896,-2.6605,-2.6233,-2.5798,-2.5533,-2.5349,-2.5003,-2.4697,-2.4463,-2.3711,-2.3301,-2.3301,-2.3301,-2.3301,-2.3301,-2.3252,-2.3213,-2.3223,-2.3174,-2.3144,-2.3144,-2.3144,-2.2969,-2.2617,-2.2539,-2.2353,-2.1973,-2.1182,-2.0537,0.0,-1.9385,0.0,0.0,0.0,0.0,0.0,0.0,0.0,0.0,-1.4367,-1.4358,-1.4206,-1.4182,-1.4195,-1.4195,-1.4422,-1.4576,-1.4583,-1.4803,-1.506,-1.4963,-1.506,-1.5073,-1.501,-1.5017,-1.503,-1.509,-1.5077,-1.5077,-1.513,-1.5297,-1.5344,-1.5137,-1.5104,-1.5124,-1.507,-1.5077,-1.515,-1.513,-1.5104,-1.511,-1.509,-1.5117,-1.5057,-1.503,-1.5017,-1.5003,-1.4957,-1.5013,-1.4943,-1.4963,-1.504,-1.504,-1.4923,-1.4917,-1.4843,-1.4643,-1.4576,-1.4663,-2.8359,-2.8027,-2.7685,-2.7344,-2.6982,-2.666,-2.6523,-2.6475,-2.5791,-2.5088,-2.4424,-2.4414,-2.4516,-2.4506,-2.4995,-2.528,-2.527,-2.5996,-2.6446,-2.6615,-2.6883,-2.7344,-2.7894,-2.7905,-2.7828,-2.7814,-2.7742,-2.7369,-2.673,-2.6435,-2.6149,-2.5938,-2.5317,-2.5045,-2.4922,0.0,0.0,0.0,-2.417,-2.417,-2.416,-2.3838,-2.3672,-2.3652,-2.332,0.0,-2.3144,-2.3144,-2.3105,-2.3018,-2.2695,0.0,0.0,0.0,0.0,0.0,0.0,0.0,0.0,0.0,0.0,0.0,-1.7041,-1.623,-1.512,-1.4844,-1.4647,-1.4436,-1.4656,-1.4796,-1.4796,-1.4843,-1.4883,-1.4883,-1.493,-1.506,-1.506,-1.4977,-1.5044,-1.5291,-1.5324,-1.5411,-1.5625,-1.5665,-1.5665,-1.5665,-1.5705,-1.5725,-1.5678,-1.5651,-1.5651,-1.5658,-1.5618,-1.5651,-1.5665,-1.5638,-1.5611,-1.5665,-1.5665,-1.5565,-1.5364,-1.5311,-1.5217,-1.5044,-1.506,-1.5073,-1.4983,-1.506,-1.5003,-1.5066,-1.5073,-1.4943,-1.489,-1.4883,-1.4897,-2.9121,0.0,-2.8467,-2.8154,0.0,-2.7734,-2.7646,-2.7578,-2.6728,-2.6113,-2.5713,-2.5703,-2.5586,-2.5391,-2.5859,-2.6034,-2.5916,-2.6743,-2.7204,-2.7296,-2.7844,-2.8156,-2.8396,-2.8488,-2.8332,-2.7987,-2.7987,-2.762,-2.69,-2.6602,-2.64,-2.6091,-2.5594,-2.54,-2.5391,-2.5176,-2.4853,-2.4424,-2.4424,-2.4424,-2.4404,-2.4209,-2.4102,-2.4092,-2.3887,0.0,0.0,0.0,0.0,0.0,0.0,0.0,0.0,-2.2422,0.0,-2.1885,-2.167,-2.1293,-2.0576,-2.0233,-1.9743,-1.8837,-1.7839,-1.6768,-1.5573,-1.5259,-1.5001,-1.4743,-1.4877,-1.506,-1.497,-1.509,-1.5177,-1.5184,-1.5304,-1.5444,-1.5585,-1.5611,-1.5725,-1.5985,-1.6046,-1.6106,-1.6246,-1.6259,-1.6259,-1.6259,-1.6266,-1.6253,-1.6226,-1.6012,-1.5825,-1.5825,-1.5825,-1.5825,-1.5825,-1.5825,-1.5825,-1.5825,-1.5825,-1.5765,-1.5638,-1.5611,-1.5558,-1.5418,-1.5391,-1.5391,-1.5391,-1.5391,-1.5391,-1.5391,-1.5391,-1.5391,-1.5384,-1.5277,-1.5224,-2.9687,-2.9639,-2.9219,-2.9033,-2.9004,-2.8574,-2.8359,-2.8242,0.0,0.0,0.0,-2.7012,-2.6826,-2.6604,-2.6973,-2.707,-2.6835,-2.7777,-2.8242,-2.8253,-2.9019,-2.9289,-2.9008,-2.9289,-2.8997,-2.8242,-2.8253,-2.7883,-2.7028,-2.6754,-2.6413,-2.6112,-2.5859,-2.5732,-2.5732,-2.5732,-2.5381,-2.4697,-2.4648,-2.4648,-2.4658,-2.457,-2.4531,-2.4531,-2.4453,-2.4248,-2.3916,-2.3896,-2.373,-2.3379,-2.3291,-2.3252,-2.3232,-2.2852,-2.2617,-2.2607,-2.2295,-2.1932,-2.1493,-2.124,-2.0647,-1.9609,-1.8313,-1.7113,-1.5857,-1.5528,-1.5286,-1.5134,-1.509,-1.5144,-1.5197,-1.5404,-1.5571,-1.5618,-1.5838,-1.6086,-1.6306,-1.6353,-1.6413,-1.666,-1.666,-1.67,-1.668,-1.6673,-1.6707,-1.67,-1.6653,-1.6707,-1.664,-1.6246,-1.5939,-1.5932,-1.5892,-1.5825,-1.5825,-1.5825,-1.5825,-1.5825,-1.5825,-1.5825,-1.5825,-1.5825,-1.5825,-1.5785,-1.5825,-1.5805,-1.5818,-1.5785,-1.5825,-1.5825,-1.5825,-1.5825,-1.5805,-1.5638,-1.5545,-3.0107,-3.0068,-2.9658,-2.9473,-2.9443,-2.9014,-2.8623,-2.8252,-2.7793,-2.7363,-2.7012,-2.7012,-2.6982,-2.6924,-2.7431,-2.7693,-2.7733,-2.8718,-2.921,-2.921,-3.0002,-3.0292,-3.0002,-3.0292,-2.9991,-2.921,-2.921,-2.8619,-2.7693,-2.7261,-2.6873,-2.6339,-2.5918,-2.5742,-2.5732,-2.5732,-2.5674,-2.5557,-2.5557,-2.5557,-2.5547,-2.5176,-2.4971,-2.4961,-2.4619,-2.4394,-2.4326,-2.4326,-2.4307,-2.4228,-2.3896,-2.3701,-2.3682,-2.3301,-2.3047,-2.3047,-2.2988,-2.2698,-2.2261,-2.2095,-2.1291,-1.976,-1.8851,-1.7697,-1.6084,-1.6,-1.5782,-1.5443,-1.5571,-1.5818,-1.6052,-1.6112,-1.6219,-1.6453,-1.6547,-1.6607,-1.664,-1.664,-1.6667,-1.674,-1.6707,-1.6734,-1.676,-1.6747,-1.676,-1.6727,-1.68,-1.6734,-1.6714,-1.6426,-1.6233,-1.6172,-1.5992,-1.5852,-1.5858,-1.5832,-1.5845,-1.5825,-1.5825,-1.5825,-1.5825,-1.5825,-1.5825,-1.5825,-1.5825,-1.5825,-1.5825,-1.5825,-1.5825,-1.5825,-1.5825,-1.5825,-1.5825,-1.5778,-1.5772,-3.0576,-3.0518,-3.0098,-2.9912,-2.9883,-2.9453,-2.9023,-2.8623,-2.8437,-2.8105,-2.7725,-2.7705,-2.7588,-2.7476,-2.7971,-2.8045,-2.7814,-2.8917,-2.9402,-2.9511,-3.0383,-3.0599,-3.0307,-3.0588,-3.0285,-2.9402,-2.9402,-2.8817,-2.7895,-2.7603,-2.7222,-2.6709,-2.6523,-2.6426,-2.6435,-2.6435,-2.6426,-2.6416,-2.5967,-2.5732,-2.5732,-2.5537,-2.543,-2.543,-2.5225,-2.501,-2.4775,-2.4775,-2.4658,-2.4424,-2.4238,-2.4131,-2.4131,-2.3935,-2.3838,-2.3838,-2.3828,-2.3657,-2.3396,-2.2758,-2.1922,-2.0891,-1.9952,-1.8973,-1.7811,-1.7008,-1.6504,-1.6388,-1.6337,-1.6359,-1.6493,-1.6506,-1.656,-1.6687,-1.6707,-1.6774,-1.6921,-1.6947,-1.7007,-1.7148,-1.7181,-1.7181,-1.7181,-1.7181,-1.7181,-1.7181,-1.7181,-1.7181,-1.7161,-1.6927,-1.6687,-1.6533,-1.6386,-1.6246,-1.6106,-1.6072,-1.6005,-1.5865,-1.5825,-1.5825,-1.5825,-1.5832,-1.5832,-1.5825,-1.5825,-1.5825,-1.5825,-1.5825,-1.5825,-1.5825,-1.5825,-1.5825,-1.5825,-1.5825,-1.5825,-3.0898,-3.085,-3.0508,-3.0293,-3.0166,-2.9844,-2.9463,-2.9072,-2.8965,-2.874,-2.8447,-2.834,-2.8105,-2.7927,-2.8421,-2.8438,-2.8238,-2.9231,-2.9732,-2.992,-3.0909,-3.1116,-3.0833,-3.1105,-3.0811,-2.992,-2.9732,-2.913,-2.8198,-2.8015,-2.761,-2.7031,-2.7012,-2.7012,-2.7012,-2.7012,-2.7012,-2.6973,-2.6367,-2.5986,-2.5879,-2.5791,-2.5732,-2.5732,-2.5723,-2.5576,-2.5244,-2.5215,-2.5059,-2.4736,-2.4619,-2.457,-2.456,-2.4463,-2.4424,-2.4424,-2.4424,-2.4331,-2.3961,-2.3214,-2.2452,-2.1796,-2.0925,-2.0087,-1.9344,-1.8174,-1.7309,-1.7086,-1.688,-1.6814,-1.6787,-1.68,-1.6827,-1.6887,-1.6901,-1.7014,-1.7208,-1.7248,-1.7328,-1.7549,-1.7589,-1.7569,-1.7589,-1.7589,-1.7562,-1.7549,-1.7589,-1.7589,-1.7555,-1.7375,-1.7154,-1.6961,-1.6807,-1.6613,-1.6406,-1.6373,-1.6279,-1.6052,-1.6052,-1.6039,-1.5992,-1.5939,-1.5885,-1.5865,-1.5825,-1.5825,-1.5825,-1.5825,-1.5825,-1.5825,-1.5825,-1.5825,-1.5825,-1.5825,-1.5825,-3.0898,-3.0889,-3.083,-3.0576,-3.0225,-3.0156,-2.9902,-2.9492,-2.9101,-2.8906,-2.8838,-2.8457,-2.8281,-2.8349,-2.885,-2.9011,-2.9076,-3.0172,-3.076,-3.1057,-3.1905,-3.2308,-3.2264,-3.2286,-3.1905,-3.1057,-3.0749,-2.9984,-2.891,-2.8589,-2.7918,-2.7153,-2.7012,-2.7041,-2.7031,-2.7031,-2.7021,-2.7021,-2.6943,-2.6719,-2.6328,-2.5937,-2.5732,-2.5732,-2.5742,-2.5723,-2.5644,-2.5674,-2.5654,-2.5586,-2.5215,-2.501,-2.4971,-2.4639,-2.4424,-2.4443,-2.4443,-2.4229,-2.3784,-2.3308,-2.2677,-2.1882,-2.1142,-2.0508,-1.9906,-1.9119,-1.8175,-1.7424,-1.7141,-1.7069,-1.717,-1.7114,-1.7201,-1.7395,-1.7442,-1.7515,-1.7515,-1.7542,-1.7549,-1.7575,-1.7589,-1.7589,-1.7589,-1.7589,-1.7589,-1.7589,-1.7589,-1.7589,-1.7582,-1.7542,-1.7495,-1.7388,-1.7081,-1.676,-1.6673,-1.6667,-1.662,-1.6593,-1.6607,-1.6473,-1.6299,-1.6219,-1.6166,-1.6032,-1.5899,-1.5919,-1.5892,-1.5832,-1.5872,-1.5952,-1.5932,-1.5858,-1.5838,-1.5879,-1.5899,-3.0898,-3.0898,-3.0898,-3.0781,-3.0625,-3.0605,-3.0351,-2.9932,-2.9756,-2.9541,-2.9268,-2.9085,-2.876,-2.8514,-2.893,-2.9343,-2.9669,-3.0412,-3.1034,-3.1527,-3.2139,-3.2544,-3.2544,-3.2544,-3.2037,-3.1219,-3.0931,-3.0203,-2.9207,-2.8635,-2.815,-2.7783,-2.7773,-2.7764,-2.7764,-2.7773,-2.7773,-2.7764,-2.7529,-2.7314,-2.7119,-2.6719,-2.6367,-2.6152,-2.6123,-2.5986,-2.5762,-2.5732,-2.5732,-2.5732,-2.5557,-2.5459,-2.5469,-2.5293,-2.5195,-2.5195,-2.5195,-2.5005,-2.4718,-2.4131,-2.3639,-2.2957,-2.2163,-2.1445,-2.0788,-2.0296,-1.9623,-1.8606,-1.7963,-1.7605,-1.7603,-1.7513,-1.7455,-1.7569,-1.7589,-1.7589,-1.7589,-1.7589,-1.7589,-1.7589,-1.7589,-1.7589,-1.7589,-1.7589,-1.7589,-1.7589,-1.7589,-1.7589,-1.7589,-1.7589,-1.7589,-1.7555,-1.7355,-1.7168,-1.7014,-1.6967,-1.6901,-1.6767,-1.6707,-1.6627,-1.658,-1.6526,-1.6473,-1.6346,-1.6313,-1.6306,-1.638,-1.6346,-1.6346,-1.6319,-1.6339,-1.6346,-1.6346,-1.6353,-1.6346,-3.0898,-3.0898,-3.0898,-3.0898,-3.0898,-3.0898,-3.0703,-3.0381,-3.0264,-3.0019,-2.9717,-2.9638,-2.9401,-2.9192,-2.9263,-2.9554,-3.0099,-3.0713,-3.123,-3.1721,-3.2342,-3.2656,-3.2656,-3.2555,-3.2037,-3.1333,-3.092,-3.0193,-2.9132,-2.8611,-2.8301,-2.8301,-2.8301,-2.8301,-2.8301,-2.8301,-2.8301,-2.8262,-2.7978,-2.7842,-2.7793,-2.7529,-2.7109,-2.6621,-2.6553,-2.6406,-2.6103,-2.5977,-2.5918,-2.5918,-2.581,-2.5732,-2.5732,-2.5732,-2.5732,-2.5732,-2.5732,-2.5538,-2.5333,-2.4843,-2.4332,-2.3827,-2.3029,-2.2325,-2.1623,-2.1121,-2.0506,-1.9672,-1.8855,-1.8318,-1.8016,-1.7799,-1.7694,-1.7589,-1.7589,-1.7589,-1.7589,-1.7589,-1.7589,-1.7589,-1.7589,-1.7589,-1.7589,-1.7589,-1.7589,-1.7589,-1.7589,-1.7589,-1.7589,-1.7589,-1.7589,-1.7589,-1.7575,-1.7495,-1.7315,-1.7268,-1.7148,-1.7054,-1.6987,-1.6967,-1.686,-1.6827,-1.6734,-1.66,-1.6687,-1.6687,-1.6593,-1.6647,-1.6714,-1.6707,-1.6707,-1.6707,-1.6627,-1.6687,-1.6693,-3.0898,-3.0898,-3.0898,-3.0898,-3.0898,-3.0898,-3.0879,-3.0781,-3.04,-3.0185,-3.0117,-3.0083,-3.0097,-3.0329,-3.012,-3.0015,-3.0214,-3.1127,-3.1721,-3.2026,-3.2566,-3.298,-3.3192,-3.2768,-3.2139,-3.1527,-3.1023,-3.0193,-2.9132,-2.8611,-2.8301,-2.8301,-2.8301,-2.8301,-2.8301,-2.8301,-2.8301,-2.8281,-2.8242,-2.8242,-2.8252,-2.8223,-2.7793,-2.7109,-2.6992,-2.6953,-2.6875,-2.6562,-2.6357,-2.6357,-2.5986,-2.5752,-2.5752,-2.5742,-2.5732,-2.5732,-2.5732,-2.5635,-2.5342,-2.5039,-2.4637,-2.4134,-2.3429,-2.2627,-2.2021,-2.142,-2.0925,-2.0418,-1.9695,-1.8959,-1.8227,-1.8122,-1.7911,-1.7687,-1.7582,-1.7582,-1.7589,-1.7589,-1.7589,-1.7589,-1.7589,-1.7589,-1.7589,-1.7589,-1.7589,-1.7589,-1.7589,-1.7589,-1.7589,-1.7589,-1.7589,-1.7589,-1.7589,-1.7575,-1.7562,-1.7495,-1.7502,-1.7428,-1.7328,-1.7402,-1.7255,-1.7101,-1.6961,-1.6854,-1.686,-1.6834,-1.6747,-1.674,-1.6794,-1.682,-1.684,-1.6834,-1.6927,-1.6774,-1.68,-3.0898,-3.0898,-3.0898,-3.0898,-3.0898,-3.0898,-3.0898,-3.0879,-3.0723,-3.0635,-3.0682,-3.0631,-3.077,-3.0862,-3.1241,-3.1338,-3.1253,-3.1462,-3.1936,-3.2555,-3.2779,-3.3092,-3.3192,-3.2757,-3.2139,-3.1629,-3.1034,-3.0193,-2.9122,-2.8601,-2.8301,-2.8301,-2.8301,-2.8301,-2.8301,-2.8301,-2.8301,-2.8301,-2.8301,-2.8301,-2.8301,-2.8301,-2.8125,-2.7842,-2.7568,-2.7295,-2.7021,-2.6865,-2.6797,-2.6787,-2.6387,-2.6152,-2.6123,-2.5889,-2.5732,-2.5732,-2.5732,-2.5635,-2.5538,-2.5333,-2.4932,-2.443,-2.3935,-2.3229,-2.2535,-2.2123,-2.1725,-2.1121,-2.0609,-1.999,-1.9361,-1.8736,-1.8122,-1.7911,-1.7905,-1.7799,-1.7694,-1.7589,-1.7589,-1.7589,-1.7589,-1.7589,-1.7589,-1.7589,-1.7589,-1.7589,-1.7589,-1.7589,-1.7589,-1.7589,-1.7589,-1.7589,-1.7589,-1.7589,-1.7589,-1.7582,-1.7582,-1.7582,-1.7549,-1.7528,-1.7422,-1.7395,-1.7281,-1.7241,-1.7188,-1.7168,-1.7148,-1.7154,-1.7161,-1.7181,-1.7188,-1.7141,-1.7275,-1.7148,-1.7181,-3.0898,-3.0898,-3.0898,-3.0898,-3.0898,-3.0898,-3.0898,-3.0898,-3.0898,-3.0898,-3.0946,-3.1237,-3.1335,-3.1481,-3.2096,-3.2501,-3.2447,-3.2279,-3.2474,-3.3095,-3.306,-3.3081,-3.3081,-3.2667,-3.2139,-3.1424,-3.0599,-2.9774,-2.9036,-2.8495,-2.8291,-2.8301,-2.8301,-2.8301,-2.8301,-2.8301,-2.8301,-2.8301,-2.8301,-2.8301,-2.8301,-2.8301,-2.8301,-2.8252,-2.8018,-2.7734,-2.7432,-2.7305,-2.7226,-2.7178,-2.6816,-2.6592,-2.6553,-2.6182,-2.5947,-2.5937,-2.581,-2.5732,-2.5635,-2.544,-2.5137,-2.4745,-2.4332,-2.3728,-2.302,-2.2728,-2.2224,-2.1725,-2.1216,-2.0806,-2.0292,-1.9569,-1.884,-1.8429,-1.822,-1.801,-1.7799,-1.7694,-1.7694,-1.7589,-1.7589,-1.7589,-1.7589,-1.7589,-1.7589,-1.7589,-1.7589,-1.7589,-1.7589,-1.7589,-1.7589,-1.7589,-1.7589,-1.7589,-1.7589,-1.7589,-1.7589,-1.7589,-1.7589,-1.7589,-1.7589,-1.7589,-1.7589,-1.7589,-1.7589,-1.7589,-1.7589,-1.7589,-1.7589,-1.7589,-1.7508,-1.7415,-1.7495,-1.7542,-1.7488,-3.0898,-3.0898,-3.0898,-3.0898,-3.0898,-3.0898,-3.0898,-3.0898,-3.0898,-3.0898,-3.0995,-3.1526,-3.1707,-3.1896,-3.2535,-3.3222,-3.3465,-3.3243,-3.3308,-3.3504,-3.3421,-3.3215,-3.2891,-3.2555,-3.1936,-3.1127,-2.9764,-2.9036,-2.8737,-2.8398,-2.8301,-2.8301,-2.8301,-2.8301,-2.8301,-2.8301,-2.8301,-2.8301,-2.8301,-2.8301,-2.8301,-2.8301,-2.8301,-2.8301,-2.8262,-2.8232,-2.8223,-2.7871,-2.7666,-2.7627,-2.7256,-2.7031,-2.6924,-2.6602,-2.6387,-2.6328,-2.6016,-2.5801,-2.5703,-2.5508,-2.541,-2.5194,-2.4557,-2.4134,-2.3827,-2.3129,-2.2526,-2.2325,-2.1868,-2.1256,-2.0972,-2.0599,-1.9955,-1.9034,-1.8632,-1.8325,-1.8016,-1.8016,-1.7905,-1.7687,-1.7589,-1.7589,-1.7589,-1.7589,-1.7589,-1.7589,-1.7589,-1.7589,-1.7589,-1.7589,-1.7589,-1.7589,-1.7589,-1.7589,-1.7589,-1.7589,-1.7589,-1.7589,-1.7589,-1.7589,-1.7589,-1.7589,-1.7589,-1.7589,-1.7589,-1.7589,-1.7589,-1.7589,-1.7589,-1.7589,-1.7589,-1.7589,-1.7589,-1.7589,-1.7589,-3.0898,-3.0898,-3.0898,-3.0898,-3.0898,-3.0898,-3.0898,-3.0898,-3.0898,-3.0898,-3.1005,-3.1566,-3.1787,-3.2113,-3.2891,-3.3626,-3.3907,-3.4051,-3.4054,-3.388,-3.3742,-3.349,-3.2937,-3.2342,-3.1516,-3.0401,-2.9564,-2.893,-2.8727,-2.8408,-2.8301,-2.8301,-2.8301,-2.8301,-2.8301,-2.8301,-2.8301,-2.8301,-2.8301,-2.8301,-2.8301,-2.8301,-2.8301,-2.8301,-2.8301,-2.8301,-2.8291,-2.8164,-2.8105,-2.8076,-2.7695,-2.7334,-2.706,-2.6894,-2.6826,-2.6816,-2.6709,-2.6621,-2.6572,-2.6238,-2.5983,-2.5727,-2.5121,-2.4548,-2.4134,-2.3564,-2.3073,-2.2898,-2.2469,-2.2121,-2.1947,-2.1723,-2.0891,-1.9316,-1.9063,-1.8786,-1.8177,-1.7833,-1.7694,-1.7589,-1.7589,-1.7589,-1.7589,-1.7595,-1.7609,-1.7589,-1.7589,-1.7589,-1.7589,-1.7589,-1.7589,-1.7589,-1.7589,-1.7589,-1.7589,-1.7589,-1.7589,-1.7589,-1.7589,-1.7589,-1.7589,-1.7589,-1.7589,-1.7589,-1.7589,-1.7589,-1.7589,-1.7589,-1.7589,-1.7589,-1.7589,-1.7589,-1.7589,-1.7589,-1.7589,-3.0898,-3.0898,-3.0898,-3.0898,-3.0898,-3.0898,-3.0898,-3.0898,-3.0898,-3.0898,-3.1005,-3.1566,-3.1787,-3.2018,-3.3048,-3.3749,-3.4166,-3.4516,-3.46,-3.4255,-3.3902,-3.3527,-3.2723,-3.1797,-3.0899,-2.9984,-2.9248,-2.8834,-2.8514,-2.8398,-2.8301,-2.8301,-2.8301,-2.8301,-2.8301,-2.8301,-2.8301,-2.8301,-2.8301,-2.8301,-2.8301,-2.8301,-2.8301,-2.8301,-2.8301,-2.8301,-2.8301,-2.8301,-2.8301,-2.8252,-2.8027,-2.7764,-2.75,-2.7363,-2.7256,-2.7226,-2.71,-2.7002,-2.6982,-2.6748,-2.652,-2.615,-2.5748,-2.5105,-2.4592,-2.4086,-2.3679,-2.3417,-2.3082,-2.2808,-2.2518,-2.2249,-2.1423,-2.0113,-1.9872,-1.9418,-1.8666,-1.8137,-1.7929,-1.7956,-1.7943,-1.7869,-1.7782,-1.7749,-1.7695,-1.7629,-1.7589,-1.7589,-1.7589,-1.7589,-1.7589,-1.7589,-1.7589,-1.7589,-1.7589,-1.7589,-1.7589,-1.7589,-1.7589,-1.7589,-1.7589,-1.7589,-1.7589,-1.7589,-1.7589,-1.7589,-1.7589,-1.7589,-1.7589,-1.7589,-1.7589,-1.7589,-1.7589,-1.7589,-1.7589,-3.0898,-3.0898,-3.0898,-3.0898,-3.0898,-3.0898,-3.0898,-3.0898,-3.0898,-3.0898,-3.1005,-3.145,-3.1787,-3.2018,-3.2934,-3.3625,-3.4086,-3.4613,-3.4791,-3.4385,-3.3937,-3.3317,-3.2575,-3.1206,-3.0183,-2.9554,-2.9036,-2.8621,-2.8301,-2.8291,-2.8301,-2.8301,-2.8301,-2.8301,-2.8301,-2.8301,-2.8301,-2.8301,-2.8301,-2.8301,-2.8301,-2.8301,-2.8301,-2.8301,-2.8301,-2.8301,-2.8301,-2.8301,-2.8301,-2.8291,-2.8252,-2.8213,-2.8184,-2.79,-2.7695,-2.7695,-2.7314,-2.7207,-2.7129,-2.71,-2.6948,-2.6622,-2.6321,-2.5966,-2.5225,-2.4661,-2.414,-2.3852,-2.3436,-2.307,-2.2848,-2.2632,-2.1968,-2.1278,-2.0614,-2.0034,-1.9435,-1.8761,-1.8494,-1.8417,-1.8464,-1.839,-1.8096,-1.807,-1.7929,-1.7736,-1.7655,-1.7662,-1.7589,-1.7589,-1.7589,-1.7589,-1.7589,-1.7589,-1.7589,-1.7589,-1.7589,-1.7589,-1.7589,-1.7589,-1.7589,-1.7589,-1.7589,-1.7589,-1.7589,-1.7589,-1.7589,-1.7589,-1.7589,-1.7589,-1.7589,-1.7589,-1.7589,-1.7589,-1.7589,-3.0898,-3.0898,-3.0898,-3.0898,-3.0898,-3.0898,-3.0898,-3.0898,-3.0898,-3.0898,-3.1005,-3.1228,-3.1556,-3.1903,-3.2581,-3.3161,-3.3749,-3.4311,-3.4602,-3.4483,-3.4042,-3.309,-3.2057,-3.0727,-2.9774,-2.9237,-2.8834,-2.8621,-2.8301,-2.8301,-2.8301,-2.8301,-2.8301,-2.8301,-2.8301,-2.8301,-2.8301,-2.8301,-2.8301,-2.8301,-2.8301,-2.8301,-2.8301,-2.8301,-2.8301,-2.8301,-2.8301,-2.8301,-2.8301,-2.8301,-2.8301,-2.8301,-2.8281,-2.8164,-2.8086,-2.8066,-2.8008,-2.793,-2.7871,-2.7656,-2.7386,-2.7016,-2.6503,-2.5966,-2.5353,-2.4622,-2.4096,-2.3717,-2.3468,-2.311,-2.2925,-2.2782,-2.2362,-2.1564,-2.0559,-1.974,-1.9402,-1.8926,-1.8497,-1.8497,-1.8524,-1.8477,-1.8417,-1.8364,-1.8257,-1.8016,-1.7909,-1.7836,-1.7716,-1.7635,-1.7662,-1.7602,-1.7589,-1.7589,-1.7589,-1.7589,-1.7589,-1.7589,-1.7589,-1.7589,-1.7589,-1.7589,-1.7589,-1.7589,-1.7589,-1.7589,-1.7589,-1.7589,-1.7589,-1.7589,-1.7589,-1.7589,-1.7589,-1.7589,-1.7589,-3.0898,-3.0898,-3.0898,-3.0898,-3.0898,-3.0898,-3.0898,-3.0898,-3.0898,-3.0898,-3.1005,-3.1218,-3.1441,-3.1787,-3.2467,-3.2934,-3.3409,-3.3963,-3.4076,-3.3989,-3.3315,-3.237,-3.1381,-3.0307,-2.9564,-2.893,-2.8621,-2.8408,-2.8301,-2.8301,-2.8301,-2.8301,-2.8301,-2.8301,-2.8301,-2.8301,-2.8301,-2.8301,-2.8301,-2.8301,-2.8301,-2.8301,-2.8301,-2.8301,-2.8301,-2.8301,-2.8301,-2.8301,-2.8301,-2.8301,-2.8301,-2.8301,-2.8301,-2.8301,-2.8301,-2.8301,-2.8301,-2.8281,-2.8262,-2.8057,-2.7728,-2.7352,-2.6807,-2.6194,-2.5557,-2.4782,-2.4244,-2.3771,-2.3382,-2.3013,-2.2736,-2.2573,-2.2214,-2.1479,-2.0408,-1.985,-1.9738,-1.921,-1.8971,-1.8858,-1.8851,-1.8798,-1.8704,-1.8677,-1.8524,-1.833,-1.8237,-1.807,-1.7876,-1.7809,-1.7722,-1.7669,-1.7615,-1.7615,-1.7595,-1.7589,-1.7589,-1.7589,-1.7589,-1.7589,-1.7589,-1.7589,-1.7589,-1.7589,-1.7589,-1.7589,-1.7589,-1.7589,-1.7589,-1.7589,-1.7589,-1.7589,-1.7589,-1.7589,-1.7589,-3.0898,-3.0898,-3.0898,-3.0898,-3.0898,-3.0898,-3.0898,-3.0898,-3.0898,-3.0898,-3.1005,-3.1102,-3.145,-3.1787,-3.2123,-3.2706,-3.3182,-3.3399,-3.3501,-3.3251,-3.2546,-3.1598,-3.088,-2.9972,-2.9359,-2.8747,-2.8408,-2.8301,-2.8301,-2.8301,-2.8301,-2.8301,-2.8301,-2.8301,-2.8301,-2.8301,-2.8301,-2.8301,-2.8301,-2.8301,-2.8301,-2.8301,-2.8301,-2.8301,-2.8301,-2.8301,-2.8301,-2.8301,-2.8301,-2.8301,-2.8301,-2.8301,-2.8301,-2.8301,-2.8301,-2.8301,-2.8301,-2.8301,-2.8301,-2.8262,-2.8038,-2.7473,-2.7149,-2.6545,-2.5691,-2.4997,-2.4327,-2.3661,-2.3231,-2.2854,-2.241,-2.201,-2.1554,-2.1081,-2.0465,-2.0256,-2.0155,-1.9707,-1.9366,-1.9366,-1.9345,-1.9225,-1.9072,-1.8945,-1.8865,-1.8597,-1.8517,-1.8377,-1.8203,-1.8103,-1.7936,-1.7736,-1.7689,-1.7649,-1.7615,-1.7589,-1.7589,-1.7589,-1.7589,-1.7589,-1.7589,-1.7589,-1.7589,-1.7589,-1.7589,-1.7589,-1.7589,-1.7589,-1.7589,-1.7589,-1.7589,-1.7589,-1.7589,-1.7589,-1.7589,-3.0898,-3.0898,-3.0898,-3.0898,-3.0898,-3.0898,-3.0898,-3.0898,-3.0898,-3.0898,-3.0889,-3.1005,-3.1112,-3.1431,-3.1672,-3.2018,-3.2696,-3.281,-3.2913,-3.2737,-3.2107,-3.1411,-3.0661,-2.9839,-2.9192,-2.8739,-2.8408,-2.8291,-2.8301,-2.8301,-2.8301,-2.8301,-2.8301,-2.8301,-2.8301,-2.8301,-2.8301,-2.8301,-2.8301,-2.8301,-2.8301,-2.8301,-2.8301,-2.8301,-2.8301,-2.8301,-2.8301,-2.8301,-2.8301,-2.8301,-2.8301,-2.8301,-2.8301,-2.8301,-2.8301,-2.8301,-2.8301,-2.8301,-2.8301,-2.8291,-2.8087,-2.7431,-2.7098,-2.6545,-2.545,-2.4804,-2.4136,-2.336,-2.2909,-2.2343,-2.166,-2.1439,-2.1096,-2.0622,-2.0162,-1.9924,-1.9815,-1.9597,-1.9482,-1.9366,-1.9366,-1.9339,-1.9272,-1.9239,-1.9112,-1.8891,-1.8771,-1.8684,-1.8551,-1.841,-1.821,-1.7983,-1.7849,-1.7809,-1.7702,-1.7649,-1.7589,-1.7589,-1.7589,-1.7589,-1.7589,-1.7589,-1.7589,-1.7589,-1.7589,-1.7589,-1.7589,-1.7589,-1.7589,-1.7589,-1.7589,-1.7589,-1.7589,-1.7589,-1.7589,-3.0898,-3.0898,-3.0898,-3.0898,-3.0898,-3.0898,-3.0898,-3.0898,-3.0898,-3.0898,-3.0898,-3.0898,-3.0995,-3.1325,-3.1325,-3.1662,-3.2123,-3.2238,-3.2238,-3.2187,-3.1744,-3.1221,-3.0694,-2.9925,-2.9242,-2.8849,-2.8486,-2.831,-2.8301,-2.8301,-2.8301,-2.8301,-2.8301,-2.8301,-2.8301,-2.8301,-2.8301,-2.8301,-2.8301,-2.8301,-2.8301,-2.8301,-2.8301,-2.8301,-2.8301,-2.8301,-2.8301,-2.8301,-2.8301,-2.8301,-2.8301,-2.8301,-2.8301,-2.8301,-2.8301,-2.8301,-2.8301,-2.8301,-2.8301,-2.8291,-2.8077,-2.7431,-2.6989,-2.6218,-2.534,-2.447,-2.3697,-2.2909,-2.223,-2.1546,-2.0859,-2.0744,-2.0507,-2.0162,-1.9931,-1.9707,-1.9591,-1.9482,-1.9366,-1.9366,-1.9366,-1.9366,-1.9366,-1.9366,-1.9332,-1.9112,-1.9105,-1.9011,-1.8811,-1.8664,-1.8524,-1.8317,-1.8116,-1.7969,-1.7836,-1.7722,-1.7595,-1.7589,-1.7589,-1.7589,-1.7589,-1.7589,-1.7589,-1.7589,-1.7589,-1.7589,-1.7589,-1.7589,-1.7589,-1.7589,-1.7589,-1.7589,-1.7589,-1.7589,-1.7589,-3.0898,-3.0898,-3.0898,-3.0898,-3.0898,-3.0898,-3.0898,-3.0898,-3.0898,-3.0898,-3.0898,-3.0898,-3.0995,-3.1218,-3.1218,-3.145,-3.1672,-3.1787,-3.1787,-3.1642,-3.1411,-3.1106,-3.0665,-3.0015,-2.9502,-2.9072,-2.8545,-2.832,-2.8301,-2.8301,-2.8301,-2.8301,-2.8301,-2.8301,-2.8301,-2.8301,-2.8301,-2.8301,-2.8301,-2.8301,-2.8301,-2.8301,-2.8301,-2.8301,-2.8301,-2.8301,-2.8301,-2.8301,-2.8301,-2.8301,-2.8301,-2.8301,-2.8301,-2.8301,-2.8301,-2.8301,-2.8301,-2.8301,-2.8291,-2.8184,-2.796,-2.7422,-2.6881,-2.6109,-2.511,-2.4128,-2.3352,-2.2449,-2.1767,-2.0974,-2.0392,-2.0277,-2.0046,-1.9815,-1.97,-1.9591,-1.9482,-1.9366,-1.9366,-1.9366,-1.9366,-1.9366,-1.9366,-1.9366,-1.9366,-1.9366,-1.9359,-1.9305,-1.9092,-1.8938,-1.8804,-1.8671,-1.8477,-1.815,-1.7983,-1.7889,-1.7749,-1.7615,-1.7609,-1.7595,-1.7595,-1.7589,-1.7589,-1.7589,-1.7589,-1.7589,-1.7589,-1.7589,-1.7589,-1.7589,-1.7589,-1.7589,-1.7589,-1.7589,-1.7589,-3.0898,-3.0898,-3.0898,-3.0898,-3.0898,-3.0898,-3.0898,-3.0898,-3.0898,-3.0898,-3.0898,-3.0898,-3.0889,-3.0995,-3.1005,-3.1112,-3.1334,-3.145,-3.145,-3.1334,-3.1112,-3.0897,-3.077,-3.0234,-3.0,-2.9687,-2.8945,-2.8359,-2.834,-2.8301,-2.8301,-2.8301,-2.8301,-2.8301,-2.8301,-2.8301,-2.8301,-2.8301,-2.8301,-2.8301,-2.8301,-2.8301,-2.8301,-2.8301,-2.8301,-2.8301,-2.8301,-2.8301,-2.8301,-2.8301,-2.8301,-2.8301,-2.8301,-2.8301,-2.8301,-2.8301,-2.8301,-2.8291,-2.8291,-2.8067,-2.7853,-2.7323,-2.6673,-2.5789,-2.4898,-2.4016,-2.3014,-2.2101,-2.1303,-2.0493,-1.9931,-1.9931,-1.9707,-1.9591,-1.9482,-1.9482,-1.9482,-1.9366,-1.9366,-1.9366,-1.9366,-1.9366,-1.9366,-1.9366,-1.9366,-1.9366,-1.9366,-1.9359,-1.9259,-1.9178,-1.9118,-1.8985,-1.8851,-1.8477,-1.813,-1.805,-1.7936,-1.7722,-1.7662,-1.7622,-1.7615,-1.7595,-1.7589,-1.7589,-1.7589,-1.7589,-1.7589,-1.7589,-1.7589,-1.7589,-1.7589,-1.7589,-1.7589,-1.7589,-1.7589,-3.0898,-3.0898,-3.0898,-3.0898,-3.0898,-3.0898,-3.0898,-3.0898,-3.0898,-3.0898,-3.0898,-3.0898,-3.0898,-3.0898,-3.0898,-3.1005,-3.1112,-3.1112,-3.1112,-3.0995,-3.1005,-3.0898,-3.084,-3.041,-3.0244,-2.9912,-2.915,-2.8623,-2.8584,-2.8379,-2.831,-2.8301,-2.8301,-2.8301,-2.8301,-2.8301,-2.8301,-2.8301,-2.8301,-2.8301,-2.8301,-2.8301,-2.8301,-2.8301,-2.8301,-2.8301,-2.8301,-2.8301,-2.8301,-2.8301,-2.8301,-2.8301,-2.8301,-2.8301,-2.8291,-2.8291,-2.8291,-2.8184,-2.8184,-2.796,-2.7638,-2.6989,-2.6336,-2.545,-2.4454,-2.3456,-2.257,-2.1417,-2.073,-2.004,-1.9591,-1.9591,-1.9475,-1.9482,-1.9366,-1.9366,-1.9366,-1.9366,-1.9366,-1.9366,-1.9366,-1.9366,-1.9366,-1.9366,-1.9366,-1.9366,-1.9366,-1.9366,-1.9366,-1.9332,-1.9279,-1.9192,-1.9032,-1.8738,-1.8404,-1.8303,-1.8163,-1.7936,-1.7809,-1.7776,-1.7682,-1.7682,-1.7629,-1.7589,-1.7589,-1.7589,-1.7589,-1.7589,-1.7589,-1.7589,-1.7589,-1.7589,-1.7589,-1.7589,-1.7589,-3.0898,-3.0898,-3.0898,-3.0898,-3.0898,-3.0898,-3.0898,-3.0898,-3.0898,-3.0898,-3.0898,-3.0898,-3.0898,-3.0898,-3.0898,-3.0898,-3.0898,-3.0898,-3.0889,-3.0889,-3.0898,-3.0898,-3.0781,-3.0576,-3.0371,-3.0303,-2.9658,-2.9082,-2.8799,-2.8476,-2.832,-2.8301,-2.8301,-2.8301,-2.8301,-2.8301,-2.8301,-2.8301,-2.8301,-2.8301,-2.8301,-2.8301,-2.8301,-2.8301,-2.8301,-2.8301,-2.8301,-2.8301,-2.8301,-2.8301,-2.8301,-2.8301,-2.8301,-2.8301,-2.8291,-2.8184,-2.8184,-2.8067,-2.796,-2.7638,-2.7196,-2.6554,-2.5889,-2.5,-2.3896,-2.2893,-2.1774,-2.05,-2.004,-1.97,-1.9482,-1.9482,-1.9366,-1.9366,-1.9366,-1.9366,-1.9366,-1.9366,-1.9366,-1.9366,-1.9366,-1.9366,-1.9366,-1.9366,-1.9366,-1.9366,-1.9366,-1.9366,-1.9366,-1.9366,-1.9325,-1.9292,-1.9158,-1.8931,-1.8718,-1.8611,-1.843,-1.8203,-1.8123,-1.8096,-1.7929,-1.7789,-1.7742,-1.7722,-1.7589,-1.7589,-1.7589,-1.7589,-1.7589,-1.7589,-1.7589,-1.7589,-1.7589,-1.7589,-1.7589,-3.0898,-3.0898,-3.0898,-3.0898,-3.0898,-3.0898,-3.0898,-3.0898,-3.0898,-3.0898,-3.0898,-3.0898,-3.0898,-3.0898,-3.0898,-3.0898,-3.0898,-3.0898,-3.0898,-3.0898,-3.0898,-3.0898,-3.0898,-3.0859,-3.0732,-3.0615,-3.0205,-2.9609,-2.9101,-2.8603,-2.831,-2.831,-2.8301,-2.8301,-2.8301,-2.8301,-2.8301,-2.8301,-2.8301,-2.8301,-2.8301,-2.8301,-2.8301,-2.8301,-2.8301,-2.8301,-2.8301,-2.8301,-2.8301,-2.8301,-2.8301,-2.8301,-2.8301,-2.8301,-2.8184,-2.8077,-2.796,-2.796,-2.7745,-2.7206,-2.6654,-2.5999,-2.534,-2.4454,-2.3344,-2.2101,-2.1081,-2.05,-2.004,-1.97,-1.9482,-1.9366,-1.9366,-1.9366,-1.9366,-1.9366,-1.9366,-1.9366,-1.9366,-1.9366,-1.9366,-1.9366,-1.9366,-1.9366,-1.9366,-1.9366,-1.9366,-1.9366,-1.9366,-1.9366,-1.9366,-1.9332,-1.9312,-1.9105,-1.9005,-1.8898,-1.8718,-1.8477,-1.8437,-1.8397,-1.821,-1.8043,-1.7983,-1.7923,-1.7762,-1.7609,-1.7589,-1.7589,-1.7589,-1.7589,-1.7589,-1.7589,-1.7589,-1.7589,-1.7589,-3.0898,-3.0898,-3.0898,-3.0898,-3.0898,-3.0898,-3.0898,-3.0898,-3.0898,-3.0898,-3.0898,-3.0898,-3.0898,-3.0898,-3.0898,-3.0898,-3.0898,-3.0898,-3.0898,-3.0898,-3.0898,-3.0898,-3.0898,-3.0889,-3.0898,-3.0771,-3.0449,-3.0068,-2.9502,-2.8965,-2.8564,-2.833,-2.8301,-2.8301,-2.8301,-2.8301,-2.8301,-2.8301,-2.8301,-2.8301,-2.8301,-2.8301,-2.8301,-2.8301,-2.8301,-2.8301,-2.8301,-2.8301,-2.8301,-2.8301,-2.8301,-2.8301,-2.8301,-2.8291,-2.8184,-2.796,-2.753,-2.7305,-2.7088,-2.6654,-2.5999,-2.534,-2.4565,-2.3464,-2.2335,-2.131,-2.0507,-2.0046,-1.9707,-1.9475,-1.9482,-1.9366,-1.9366,-1.9366,-1.9366,-1.9366,-1.9366,-1.9366,-1.9366,-1.9366,-1.9366,-1.9366,-1.9366,-1.9366,-1.9366,-1.9366,-1.9366,-1.9366,-1.9366,-1.9366,-1.9366,-1.9359,-1.9345,-1.9292,-1.9245,-1.9178,-1.9005,-1.8818,-1.8744,-1.8664,-1.8477,-1.8343,-1.8277,-1.813,-1.7949,-1.7802,-1.7655,-1.7589,-1.7589,-1.7589,-1.7589,-1.7589,-1.7589,-1.7589,-1.7589,-3.0898,-3.0898,-3.0898,-3.0898,-3.0898,-3.0898,-3.0898,-3.0898,-3.0898,-3.0898,-3.0898,-3.0898,-3.0898,-3.0898,-3.0898,-3.0898,-3.0898,-3.0898,-3.0898,-3.0898,-3.0898,-3.0898,-3.0898,-3.0898,-3.0898,-3.0889,-3.0615,-3.0293,-2.9961,-2.9473,-2.8877,-2.8457,-2.835,-2.831,-2.8301,-2.8301,-2.8301,-2.8301,-2.8301,-2.8301,-2.8301,-2.8301,-2.8301,-2.8301,-2.8301,-2.8301,-2.8301,-2.8301,-2.8301,-2.8301,-2.8301,-2.8301,-2.8291,-2.8184,-2.8077,-2.7745,-2.7196,-2.6654,-2.6327,-2.5889,-2.534,-2.4454,-2.3456,-2.2449,-2.1539,-2.0622,-2.0155,-1.9815,-1.9591,-1.9482,-1.9366,-1.9366,-1.9366,-1.9366,-1.9366,-1.9366,-1.9366,-1.9366,-1.9366,-1.9366,-1.9366,-1.9366,-1.9366,-1.9366,-1.9366,-1.9366,-1.9366,-1.9366,-1.9366,-1.9366,-1.9366,-1.9366,-1.9359,-1.9352,-1.9345,-1.9299,-1.9178,-1.9118,-1.9045,-1.8985,-1.8824,-1.8671,-1.8564,-1.8384,-1.8176,-1.7976,-1.7822,-1.7702,-1.7589,-1.7589,-1.7589,-1.7589,-1.7589,-1.7589,-1.7589,-3.0898,-3.0898,-3.0898,-3.0898,-3.0898,-3.0898,-3.0898,-3.0898,-3.0898,-3.0898,-3.0898,-3.0898,-3.0898,-3.0898,-3.0898,-3.0898,-3.0898,-3.0898,-3.0898,-3.0898,-3.0898,-3.0898,-3.0898,-3.0898,-3.0898,-3.0898,-3.0752,-3.0537,-3.0195,-2.9736,-2.9258,-2.8896,-2.8486,-2.835,-2.8301,-2.8301,-2.8301,-2.8301,-2.8301,-2.8301,-2.8301,-2.8301,-2.8301,-2.8301,-2.8301,-2.8301,-2.8301,-2.8301,-2.8301,-2.8301,-2.8301,-2.8291,-2.8184,-2.8067,-2.7862,-2.7314,-2.6871,-2.6218,-2.5551,-2.5,-2.4454,-2.3448,-2.2441,-2.1546,-2.0974,-2.0277,-1.9924,-1.9809,-1.9482,-1.9482,-1.9366,-1.9366,-1.9366,-1.9366,-1.9366,-1.9366,-1.9366,-1.9366,-1.9366,-1.9366,-1.9366,-1.9366,-1.9366,-1.9366,-1.9366,-1.9366,-1.9366,-1.9366,-1.9366,-1.9366,-1.9366,-1.9366,-1.9366,-1.9366,-1.9366,-1.9312,-1.9265,-1.9259,-1.9219,-1.9245,-1.9232,-1.9065,-1.8858,-1.8664,-1.8464,-1.8223,-1.7983,-1.7842,-1.7716,-1.7622,-1.7589,-1.7589,-1.7589,-1.7589,-1.7589,-3.0898,-3.0898,-3.0898,-3.0898,-3.0898,-3.0898,-3.0898,-3.0898,-3.0898,-3.0898,-3.0898,-3.0898,-3.0898,-3.0898,-3.0898,-3.0898,-3.0898,-3.0898,-3.0898,-3.0898,-3.0898,-3.0898,-3.0898,-3.0898,-3.0898,-3.0898,-3.0879,-3.085,-3.0605,-2.9951,-2.958,-2.916,-2.8643,-2.8369,-2.8301,-2.8301,-2.8301,-2.8301,-2.8301,-2.8301,-2.8301,-2.8301,-2.8301,-2.8301,-2.8301,-2.8301,-2.8301,-2.8301,-2.8301,-2.8291,-2.8291,-2.8184,-2.8077,-2.796,-2.753,-2.6989,-2.6336,-2.556,-2.4667,-2.4223,-2.3552,-2.2335,-2.1432,-2.0974,-2.0515,-1.9931,-1.97,-1.9591,-1.9482,-1.9366,-1.9366,-1.9366,-1.9366,-1.9366,-1.9366,-1.9366,-1.9366,-1.9366,-1.9366,-1.9366,-1.9366,-1.9366,-1.9366,-1.9366,-1.9366,-1.9366,-1.9366,-1.9366,-1.9366,-1.9366,-1.9366,-1.9366,-1.9366,-1.9366,-1.9366,-1.9366,-1.9366,-1.9366,-1.9366,-1.9366,-1.9366,-1.9345,-1.9138,-1.8951,-1.8731,-1.8484,-1.8237,-1.8003,-1.7822,-1.7655,-1.7595,-1.7589,-1.7589,-1.7589,-1.7589,-3.0898,-3.0898,-3.0898,-3.0898,-3.0898,-3.0898,-3.0898,-3.0898,-3.0898,-3.0898,-3.0898,-3.0898,-3.0898,-3.0898,-3.0898,-3.0898,-3.0898,-3.0898,-3.0898,-3.0898,-3.0898,-3.0898,-3.0898,-3.0898,-3.0898,-3.0898,-3.0898,-3.0869,-3.081,-3.0098,-2.9736,-2.9365,-2.8877,-2.8535,-2.8301,-2.8301,-2.8301,-2.8301,-2.8301,-2.8301,-2.8301,-2.8301,-2.8301,-2.8301,-2.8301,-2.8301,-2.8301,-2.8301,-2.8301,-2.8291,-2.8184,-2.8077,-2.7853,-2.7638,-2.7206,-2.6554,-2.5789,-2.4898,-2.4008,-2.3111,-2.2546,-2.1546,-2.0859,-2.0392,-1.9931,-1.97,-1.9591,-1.9482,-1.9366,-1.9366,-1.9366,-1.9366,-1.9366,-1.9366,-1.9366,-1.9366,-1.9366,-1.9366,-1.9366,-1.9366,-1.9366,-1.9366,-1.9366,-1.9366,-1.9366,-1.9366,-1.9366,-1.9366,-1.9366,-1.9366,-1.9366,-1.9366,-1.9366,-1.9366,-1.9366,-1.9366,-1.9366,-1.9366,-1.9366,-1.9366,-1.9366,-1.9366,-1.9345,-1.9165,-1.8945,-1.8724,-1.8477,-1.8223,-1.7923,-1.7635,-1.7602,-1.7589,-1.7589,-1.7589,-1.7589,-3.0898,-3.0898,-3.0898,-3.0898,-3.0898,-3.0898,-3.0898,-3.0898,-3.0898,-3.0898,-3.0898,-3.0898,-3.0898,-3.0898,-3.0898,-3.0898,-3.0898,-3.0898,-3.0898,-3.0898,-3.0898,-3.0898,-3.0898,-3.0898,-3.0898,-3.0898,-3.0898,-3.0898,-3.0889,-3.0332,-2.9951,-2.9502,-2.8994,-2.8584,-2.832,-2.8301,-2.8301,-2.8301,-2.8301,-2.8301,-2.8301,-2.8301,-2.8301,-2.8301,-2.8301,-2.8301,-2.8301,-2.8301,-2.8301,-2.8291,-2.8077,-2.796,-2.7745,-2.7098,-2.6554,-2.6008,-2.5229,-2.4351,-2.3472,-2.2116,-2.1318,-2.0981,-2.0399,-1.9931,-1.9815,-1.9591,-1.9482,-1.9366,-1.9366,-1.9366,-1.9366,-1.9366,-1.9366,-1.9366,-1.9366,-1.9366,-1.9366,-1.9366,-1.9366,-1.9366,-1.9366,-1.9366,-1.9366,-1.9366,-1.9366,-1.9366,-1.9366,-1.9366,-1.9366,-1.9366,-1.9366,-1.9366,-1.9366,-1.9366,-1.9366,-1.9366,-1.9366,-1.9366,-1.9366,-1.9366,-1.9366,-1.9366,-1.9339,-1.9299,-1.9165,-1.8938,-1.8691,-1.843,-1.8043,-1.7669,-1.7609,-1.7589,-1.7589,-1.7589,-1.7589,-3.0898,-3.0898,-3.0898,-3.0898,-3.0898,-3.0898,-3.0898,-3.0898,-3.0898,-3.0898,-3.0898,-3.0898,-3.0898,-3.0898,-3.0898,-3.0898,-3.0898,-3.0898,-3.0898,-3.0898,-3.0898,-3.0898,-3.0898,-3.0898,-3.0898,-3.0898,-3.0898,-3.0889,-3.0889,-3.0469,-3.0,-2.9531,-2.8965,-2.8476,-2.833,-2.8301,-2.8301,-2.8301,-2.8301,-2.8301,-2.8301,-2.8301,-2.8301,-2.8301,-2.8301,-2.8301,-2.8301,-2.8301,-2.8291,-2.8184,-2.796,-2.7745,-2.7422,-2.6763,-2.6109,-2.5331,-2.4556,-2.344,-2.2328,-2.1089,-2.0515,-2.0284,-2.0046,-1.97,-1.9591,-1.9482,-1.9366,-1.9366,-1.9366,-1.9366,-1.9366,-1.9366,-1.9366,-1.9366,-1.9366,-1.9366,-1.9366,-1.9366,-1.9366,-1.9366,-1.9366,-1.9366,-1.9366,-1.9366,-1.9366,-1.9366,-1.9366,-1.9366,-1.9366,-1.9366,-1.9366,-1.9366,-1.9366,-1.9366,-1.9366,-1.9366,-1.9366,-1.9366,-1.9366,-1.9366,-1.9366,-1.9366,-1.9359,-1.9332,-1.9259,-1.9152,-1.8804,-1.8437,-1.8023,-1.7729,-1.7635,-1.7589,-1.7589,-1.7589,-1.7589,-3.0801,-3.0654,-3.0654,-3.0566,-3.0498,-3.0752,-3.0898,-3.0898,-3.0898,-3.0898,-3.0898,-3.0898,-3.0898,-3.0898,-3.0898,-3.0898,-3.0898,-3.0898,-3.0898,-3.0898,-3.0898,-3.0898,-3.0898,-3.0898,-3.0898,-3.0898,-3.0898,-3.0889,-3.0889,-3.0596,-3.0127,-2.9531,-2.8887,-2.8535,-2.8369,-2.8301,-2.8301,-2.8301,-2.8301,-2.8301,-2.8301,-2.8301,-2.8301,-2.8301,-2.8301,-2.8301,-2.8301,-2.8291,-2.8291,-2.8067,-2.7853,-2.7422,-2.698,-2.6318,-2.5661,-2.4659,-2.344,-2.2425,-2.1303,-2.0507,-2.0053,-1.9707,-1.97,-1.9591,-1.9482,-1.9366,-1.9366,-1.9366,-1.9366,-1.9366,-1.9366,-1.9366,-1.9366,-1.9366,-1.9366,-1.9366,-1.9366,-1.9366,-1.9366,-1.9366,-1.9366,-1.9366,-1.9366,-1.9366,-1.9366,-1.9366,-1.9366,-1.9366,-1.9366,-1.9366,-1.9366,-1.9366,-1.9366,-1.9366,-1.9366,-1.9366,-1.9366,-1.9366,-1.9366,-1.9366,-1.9366,-1.9366,-1.9366,-1.9366,-1.9312,-1.9165,-1.8804,-1.843,-1.809,-1.7809,-1.7615,-1.7589,-1.7589,-1.7589,-1.7589,-3.0586,-3.0205,-3.0185,-2.9961,-2.9775,-3.0439,-3.0781,-3.082,-3.081,-3.0801,-3.0801,-3.0742,-3.0732,-3.082,-3.084,-3.0859,-3.0898,-3.0898,-3.0898,-3.0898,-3.0898,-3.0898,-3.0898,-3.0898,-3.0898,-3.0898,-3.0898,-3.0889,-3.0879,-3.0654,-3.0225,-2.9717,-2.9199,-2.8848,-2.8613,-2.8545,-2.8467,-2.8369,-2.8301,-2.8301,-2.8301,-2.8301,-2.8301,-2.8301,-2.8301,-2.8301,-2.8291,-2.8291,-2.8184,-2.7853,-2.753,-2.7098,-2.6445,-2.567,-2.4778,-2.3656,-2.2093,-2.1417,-2.073,-2.0046,-1.9822,-1.9482,-1.9482,-1.9366,-1.9366,-1.9366,-1.9366,-1.9366,-1.9366,-1.9366,-1.9366,-1.9366,-1.9366,-1.9366,-1.9366,-1.9366,-1.9366,-1.9366,-1.9366,-1.9366,-1.9366,-1.9366,-1.9366,-1.9366,-1.9366,-1.9366,-1.9366,-1.9366,-1.9366,-1.9366,-1.9366,-1.9366,-1.9366,-1.9366,-1.9366,-1.9366,-1.9366,-1.9366,-1.9366,-1.9366,-1.9366,-1.9366,-1.9366,-1.9366,-1.9366,-1.9185,-1.8851,-1.8544,-1.8243,-1.7969,-1.7695,-1.7589,-1.7589,-1.7589,-1.7589,-2.9873,-2.9756,-2.9756,-2.9678,-2.9619,-2.9844,-2.9941,-2.9951,-2.9951,-2.9951,-2.9961,-2.9951,-3.0176,-3.0381,-3.04,-3.0596,-3.0762,-3.0898,-3.0898,-3.0859,-3.0752,-3.085,-3.0879,-3.085,-3.0879,-3.0898,-3.0898,-3.0889,-3.081,-3.0644,-3.042,-2.999,-2.957,-2.9297,-2.9189,-2.918,-2.8809,-2.8516,-2.8428,-2.8418,-2.8379,-2.8369,-2.8359,-2.835,-2.831,-2.8301,-2.8291,-2.8174,-2.796,-2.7853,-2.7196,-2.6545,-2.6008,-2.5,-2.3983,-2.2418,-2.1531,-2.0974,-2.027,-1.9931,-1.9707,-1.9482,-1.9366,-1.9366,-1.9366,-1.9366,-1.9366,-1.9366,-1.9366,-1.9366,-1.9366,-1.9366,-1.9366,-1.9366,-1.9366,-1.9366,-1.9366,-1.9366,-1.9366,-1.9366,-1.9366,-1.9366,-1.9366,-1.9366,-1.9366,-1.9366,-1.9366,-1.9366,-1.9366,-1.9366,-1.9366,-1.9366,-1.9366,-1.9366,-1.9366,-1.9366,-1.9366,-1.9366,-1.9366,-1.9366,-1.9366,-1.9366,-1.9366,-1.9366,-1.9366,-1.9192,-1.8918,-1.8617,-1.8317,-1.8043,-1.7782,-1.7669,-1.7589,-1.7589,-1.7589,-2.9463,-2.9316,-2.9316,-2.9219,-2.9072,-2.9062,-2.9062,-2.9111,-2.9414,-2.958,-2.958,-2.96,-2.9717,-2.9922,-2.9971,-3.0088,-3.0303,-3.0283,-3.0283,-3.0283,-3.042,-3.0469,-3.0527,-3.0644,-3.0723,-3.0801,-3.0889,-3.0889,-3.081,-3.0664,-3.0439,-3.0166,-2.9893,-2.9736,-2.958,-2.9453,-2.9277,-2.9004,-2.8838,-2.8789,-2.8721,-2.8613,-2.8555,-2.8506,-2.8437,-2.832,-2.831,-2.8087,-2.7853,-2.752,-2.6763,-2.6109,-2.5238,-2.4111,-2.3095,-2.1638,-2.0845,-2.0392,-1.9931,-1.97,-1.9591,-1.9482,-1.9366,-1.9366,-1.9366,-1.9366,-1.9366,-1.9366,-1.9366,-1.9366,-1.9366,-1.9366,-1.9366,-1.9366,-1.9366,-1.9366,-1.9366,-1.9366,-1.9366,-1.9366,-1.9366,-1.9366,-1.9366,-1.9366,-1.9366,-1.9366,-1.9366,-1.9366,-1.9366,-1.9366,-1.9366,-1.9366,-1.9366,-1.9366,-1.9366,-1.9366,-1.9366,-1.9366,-1.9366,-1.9366,-1.9366,-1.9366,-1.9366,-1.9366,-1.9366,-1.9178,-1.8985,-1.8677,-1.8384,-1.8116,-1.7849,-1.7669,-1.7589,-1.7589,-1.7589,-2.9228,-2.8867,-2.8867,-2.8682,-2.833,-2.835,-2.8359,-2.8379,-2.9082,-2.9453,-2.9414,-2.9434,-2.9424,-2.9492,-2.9521,-2.959,-2.9756,-2.9795,-2.9814,-2.959,-2.9766,-2.9922,-3.0107,-3.0205,-3.0469,-3.0723,-3.0879,-3.0898,-3.0898,-3.0781,-3.0586,-3.0264,-3.0264,-3.0146,-2.9941,-2.9893,-2.9814,-2.9756,-2.9648,-2.96,-2.9375,-2.918,-2.8955,-2.8896,-2.8643,-2.8379,-2.8252,-2.7999,-2.753,-2.6989,-2.6327,-2.556,-2.4342,-2.3111,-2.1881,-2.1196,-2.0392,-2.0053,-1.9707,-1.9597,-1.9482,-1.9366,-1.9366,-1.9366,-1.9366,-1.9366,-1.9366,-1.9366,-1.9366,-1.9366,-1.9366,-1.9366,-1.9366,-1.9366,-1.9366,-1.9366,-1.9366,-1.9366,-1.9366,-1.9366,-1.9366,-1.9366,-1.9366,-1.9366,-1.9366,-1.9366,-1.9366,-1.9366,-1.9366,-1.9366,-1.9366,-1.9366,-1.9366,-1.9366,-1.9366,-1.9366,-1.9366,-1.9366,-1.9366,-1.9366,-1.9366,-1.9366,-1.9366,-1.9366,-1.9359,-1.9245,-1.9052,-1.8738,-1.8444,-1.8196,-1.7936,-1.7675,-1.7589,-1.7589,-1.7589,-2.8535,-2.8447,-2.8437,-2.8379,-2.8301,-2.8301,-2.8301,-2.8301,-2.8486,-2.8633,-2.8613,-2.8643,-2.8799,-2.9053,-2.9072,-2.9189,-2.9453,-2.9385,-2.9541,-2.9492,-2.9473,-2.9482,-2.9756,-2.9941,-3.0225,-3.0439,-3.0644,-3.0898,-3.0898,-3.0869,-3.0859,-3.0723,-3.0684,-3.0537,-3.0459,-3.0439,-3.0439,-3.04,-3.0391,-3.0117,-2.9717,-2.957,-2.9404,-2.9277,-2.9033,-2.867,-2.8346,-2.7809,-2.7272,-2.6654,-2.5881,-2.4667,-2.3231,-2.1995,-2.1196,-2.0507,-2.0046,-1.9707,-1.9597,-1.9482,-1.9482,-1.9366,-1.9366,-1.9366,-1.9366,-1.9366,-1.9366,-1.9366,-1.9366,-1.9366,-1.9366,-1.9366,-1.9366,-1.9366,-1.9366,-1.9366,-1.9366,-1.9366,-1.9366,-1.9366,-1.9366,-1.9366,-1.9366,-1.9366,-1.9366,-1.9366,-1.9366,-1.9366,-1.9366,-1.9366,-1.9366,-1.9366,-1.9366,-1.9366,-1.9366,-1.9366,-1.9366,-1.9366,-1.9366,-1.9366,-1.9366,-1.9366,-1.9366,-1.9366,-1.9339,-1.9259,-1.9098,-1.8771,-1.849,-1.8277,-1.7943,-1.7649,-1.7589,-1.7589,-1.7589,-2.8301,-2.8301,-2.8301,-2.8301,-2.8301,-2.8301,-2.8301,-2.8301,-2.8301,-2.8301,-2.8301,-2.831,-2.8428,-2.8643,-2.8643,-2.874,-2.9023,-2.8984,-2.8926,-2.8965,-2.9092,-2.9121,-2.9326,-2.957,-2.9922,-3.0176,-3.0635,-3.0898,-3.0898,-3.0889,-3.0889,-3.0898,-3.0898,-3.0898,-3.0898,-3.0898,-3.0898,-3.0869,-3.0898,-3.0586,-3.0068,-2.998,-2.9873,-2.9717,-2.9492,-2.8988,-2.8349,-2.7791,-2.7085,-2.6062,-2.4898,-2.356,-2.2214,-2.1417,-2.073,-2.0155,-1.9815,-1.9597,-1.9482,-1.9366,-1.9366,-1.9366,-1.9366,-1.9366,-1.9366,-1.9366,-1.9366,-1.9366,-1.9366,-1.9366,-1.9366,-1.9366,-1.9366,-1.9366,-1.9366,-1.9366,-1.9366,-1.9366,-1.9366,-1.9366,-1.9366,-1.9366,-1.9366,-1.9366,-1.9366,-1.9366,-1.9366,-1.9366,-1.9366,-1.9366,-1.9366,-1.9366,-1.9366,-1.9366,-1.9366,-1.9366,-1.9366,-1.9366,-1.9366,-1.9366,-1.9366,-1.9366,-1.9366,-1.9366,-1.9366,-1.9352,-1.9145,-1.8811,-1.8604,-1.8417,-1.8016,-1.7595,-1.7589,-1.7589,-1.7589,-2.8301,-2.8301,-2.8301,-2.8301,-2.8301,-2.8301,-2.8301,-2.8301,-2.8301,-2.8301,-2.8301,-2.8301,-2.8301,-2.8301,-2.8301,-2.8301,-2.8359,-2.8516,-2.8418,-2.8398,-2.8398,-2.8623,-2.8809,-2.8984,-2.9541,-3.0137,-3.0654,-3.083,-3.0898,-3.0898,-3.0898,-3.0898,-3.0898,-3.0898,-3.0898,-3.0898,-3.0898,-3.0898,-3.0898,-3.0898,-3.0693,-3.0518,-3.0351,-3.0146,-2.9883,-2.9259,-2.8655,-2.7807,-2.6967,-2.5541,-2.4058,-2.2667,-2.1653,-2.0845,-2.0385,-1.9924,-1.9591,-1.9482,-1.9366,-1.9366,-1.9366,-1.9366,-1.9366,-1.9366,-1.9366,-1.9366,-1.9366,-1.9366,-1.9366,-1.9366,-1.9366,-1.9366,-1.9366,-1.9366,-1.9366,-1.9366,-1.9366,-1.9366,-1.9366,-1.9366,-1.9366,-1.9366,-1.9366,-1.9366,-1.9366,-1.9366,-1.9366,-1.9366,-1.9366,-1.9366,-1.9366,-1.9366,-1.9366,-1.9366,-1.9366,-1.9366,-1.9366,-1.9366,-1.9366,-1.9366,-1.9366,-1.9366,-1.9366,-1.9366,-1.9366,-1.9366,-1.9172,-1.8851,-1.8677,-1.8497,-1.8016,-1.7595,-1.7589,-1.7589,-1.7589,-2.8301,-2.8301,-2.8301,-2.8301,-2.8301,-2.8301,-2.8301,-2.8301,-2.8301,-2.8301,-2.8301,-2.8301,-2.8301,-2.8301,-2.8301,-2.8301,-2.8301,-2.8301,-2.8301,-2.831,-2.8301,-2.8359,-2.8516,-2.8828,-2.9443,-3.0029,-3.0557,-3.083,-3.0889,-3.0898,-3.0898,-3.0898,-3.0898,-3.0898,-3.0898,-3.0898,-3.0898,-3.0898,-3.0889,-3.0889,-3.0889,-3.0781,-3.0791,-3.047,-3.0102,-2.9651,-2.8909,-2.793,-2.6879,-2.5414,-2.361,-2.2146,-2.1196,-2.05,-2.004,-1.9815,-1.9482,-1.9482,-1.9366,-1.9366,-1.9366,-1.9366,-1.9366,-1.9366,-1.9366,-1.9366,-1.9366,-1.9366,-1.9366,-1.9366,-1.9366,-1.9366,-1.9366,-1.9366,-1.9366,-1.9366,-1.9366,-1.9366,-1.9366,-1.9366,-1.9366,-1.9366,-1.9366,-1.9366,-1.9366,-1.9366,-1.9366,-1.9366,-1.9366,-1.9366,-1.9366,-1.9366,-1.9366,-1.9366,-1.9366,-1.9366,-1.9366,-1.9366,-1.9366,-1.9366,-1.9366,-1.9366,-1.9366,-1.9366,-1.9366,-1.9366,-1.9132,-1.8891,-1.8657,-1.8424,-1.7943,-1.7602,-1.7595,-1.7589,-1.7589]},{"header":{"parameterUnit":"m.s-1","parameterCategory":1,"la1":31.0,"la2":29.5877,"lo1":-88.7671,"lo2":-86.6584,"dy":0.0162,"dx":0.0185,"nx":115,"ny":88,"refTime":"2023-06-25T18:00:00:Z","depth":0,"parameterNumber":3,"parameterNumberName":"V-component_of_WINDS"},"data":[0.0,0.0,0.0,0.0,0.0,0.0,0.0,0.0,0.0,0.0,0.0,0.0,0.0,0.0,0.0,0.0,0.0,0.0,0.0,0.0,0.0,0.0,0.0,0.0,0.0,0.0,0.0,0.0,0.0,0.0,0.0,0.0,0.0,0.0,0.0,0.0,0.0,0.0,0.0,0.0,0.0,0.0,0.0,0.0,0.0,0.0,0.0,0.0,0.0,0.0,0.0,0.0,0.0,0.0,0.0,0.0,0.0,0.0,0.0,0.0,0.0,0.0,0.0,0.0,0.0,0.0,0.0,0.0,0.0,0.0,0.0,0.0,0.0,0.0,0.0,0.0,0.0,0.0,0.0,0.0,0.0,0.0,0.0,0.0,0.0,0.0,0.0,0.0,0.0,0.0,0.0,0.0,0.0,0.0,0.0,0.0,0.0,0.0,0.0,0.0,0.0,0.0,0.0,0.0,0.0,0.0,0.0,0.0,0.0,0.0,0.0,0.0,0.0,0.0,0.0,0.0,0.0,0.0,0.0,0.0,0.0,0.0,0.0,0.0,0.0,0.0,0.0,0.0,0.0,0.0,0.0,0.0,0.0,0.0,0.0,0.0,0.0,0.0,0.0,0.0,0.0,0.0,0.0,0.0,0.0,0.0,0.0,0.0,0.0,0.0,0.0,0.0,0.0,0.0,0.0,0.0,0.0,0.0,0.0,0.0,0.0,0.0,0.0,0.0,0.0,0.0,0.0,0.0,0.0,0.0,0.0,0.0,0.0,0.0,0.0,0.0,0.0,0.0,0.0,0.0,0.0,0.0,0.0,0.0,0.0,0.0,0.0,0.0,0.0,0.0,0.0,0.0,0.0,0.0,0.0,0.0,0.0,0.0,0.0,0.0,0.0,0.0,0.0,0.0,0.0,0.0,0.0,0.0,0.0,0.0,0.0,0.0,0.0,0.0,0.0,0.0,0.0,0.0,0.0,0.0,0.0,0.0,0.0,0.0,0.0,0.0,0.0,0.0,0.0,0.0,0.0,0.0,0.0,0.0,0.0,0.0,0.0,0.0,0.0,0.0,0.0,0.0,0.0,0.0,0.0,0.0,0.0,0.0,0.0,0.0,0.0,0.0,0.0,0.0,0.0,0.0,0.0,0.0,0.0,0.0,0.0,0.0,0.0,0.0,0.0,0.0,0.0,0.0,0.0,0.0,0.0,0.0,0.0,0.0,0.0,0.0,0.0,0.0,0.0,0.0,0.0,0.0,0.0,0.0,0.0,0.0,0.0,0.0,0.0,0.0,0.0,0.0,0.0,0.0,0.0,0.0,0.0,0.0,0.0,0.0,0.0,0.0,0.0,0.0,0.0,0.0,0.0,0.0,0.0,0.0,0.0,0.0,0.0,0.0,0.0,0.0,0.0,0.0,0.0,0.0,0.0,0.0,0.0,0.0,0.0,0.0,0.0,0.0,0.0,0.0,0.0,0.0,0.0,0.0,0.0,0.0,0.0,0.0,0.0,0.0,0.0,0.0,0.0,0.0,0.0,0.0,0.0,0.0,0.0,0.0,0.0,0.0,0.0,0.0,0.0,0.0,0.0,0.0,0.0,0.0,0.0,0.0,0.0,0.0,0.0,0.0,0.0,0.0,0.0,0.0,0.0,0.0,0.0,0.0,0.0,0.0,0.0,0.0,0.0,0.0,0.0,0.0,0.0,0.0,0.0,0.0,0.0,0.0,0.0,0.0,0.0,0.0,0.0,0.0,0.0,0.0,0.0,0.0,0.0,0.0,0.0,0.0,0.0,0.0,0.0,0.0,0.0,0.0,0.0,0.0,0.0,0.0,0.0,0.0,0.0,0.0,0.0,0.0,0.0,0.0,0.0,0.0,0.0,0.0,0.0,0.0,0.0,0.0,0.0,0.0,0.0,0.0,0.0,0.0,0.0,0.0,0.0,0.0,0.0,0.0,0.0,0.0,0.0,0.0,0.0,0.0,0.0,0.0,0.0,0.0,0.0,0.0,0.0,0.0,0.0,0.0,0.0,0.0,0.0,0.0,0.0,0.0,0.0,0.0,0.0,0.0,0.0,0.0,0.0,0.0,0.0,0.0,0.0,0.0,0.0,0.0,0.0,0.0,0.0,0.0,0.0,0.0,0.0,0.0,0.0,0.0,0.0,0.0,0.0,0.0,0.0,0.0,0.0,0.0,0.0,0.0,0.0,0.0,0.0,0.0,0.0,0.0,0.0,0.0,0.0,0.0,0.0,0.0,0.0,0.0,0.0,0.0,0.0,0.0,0.0,0.0,0.0,0.0,0.0,0.0,0.0,0.0,0.0,0.0,0.0,0.0,0.0,0.0,0.0,0.0,0.0,0.0,0.0,0.0,0.0,0.0,0.0,0.0,0.0,0.0,0.0,0.0,0.0,0.0,0.0,0.0,0.0,0.0,0.0,0.0,0.0,0.0,0.0,0.0,0.0,0.0,0.0,0.0,0.0,0.0,0.0,0.0,0.0,0.0,0.0,0.0,0.0,0.0,0.0,0.0,0.0,0.0,0.0,0.0,0.0,0.0,0.0,0.0,0.0,0.0,0.0,0.0,0.0,0.0,0.0,0.0,0.0,0.0,0.0,0.0,0.0,0.0,0.0,0.0,0.0,0.0,0.0,0.0,0.0,0.0,0.0,0.0,0.0,0.0,0.0,0.0,0.0,0.0,0.0,0.0,0.0,0.0,0.0,0.0,0.0,0.0,0.0,0.0,0.0,0.0,0.0,0.0,0.0,0.0,0.0,0.0,0.0,0.0,0.0,0.0,0.0,0.0,0.0,0.0,0.0,0.0,0.0,0.0,0.0,0.0,0.0,0.0,0.0,0.0,0.0,0.0,0.0,0.0,0.0,0.0,0.0,0.0,0.0,0.0,0.0,0.0,0.0,0.0,0.0,0.0,0.0,0.0,0.0,0.0,0.0,0.0,0.0,0.0,0.0,0.0,0.0,0.0,0.0,0.0,0.0,0.0,0.0,0.0,0.0,0.0,0.0,0.0,0.0,0.0,0.0,0.0,0.0,0.0,0.0,0.0,0.0,0.0,0.0,0.0,0.0,0.0,0.0,0.0,0.0,0.0,0.0,0.0,0.0,0.0,0.0,0.0,0.0,0.0,0.0,0.0,0.0,0.0,0.0,0.0,0.0,0.0,0.0,0.0,0.0,0.0,0.0,0.0,0.0,0.0,0.0,0.0,0.0,0.0,0.0,0.0,0.0,0.0,0.0,0.0,0.0,0.0,0.0,0.0,0.0,0.0,0.0,0.0,0.0,0.0,0.0,0.0,0.0,0.0,0.0,0.0,0.0,0.0,0.0,0.0,0.0,0.0,0.0,0.0,0.0,0.0,0.0,0.0,0.0,0.0,0.0,0.0,0.0,0.0,0.0,0.0,0.0,0.0,0.0,0.0,0.0,0.0,0.0,0.0,0.0,0.0,0.0,0.0,0.0,0.0,0.0,0.0,0.0,0.0,0.0,0.0,0.0,0.0,0.0,0.0,0.0,0.0,0.0,0.0,0.0,0.0,0.0,0.0,0.0,0.0,0.0,0.0,0.0,0.0,0.0,0.0,0.0,0.0,0.0,0.0,0.0,0.0,0.0,0.0,0.0,0.0,0.0,0.0,0.0,0.0,0.0,0.0,0.0,0.0,0.0,0.0,0.0,0.0,0.0,0.0,0.0,0.0,0.0,0.0,0.0,0.0,0.0,0.0,0.0,0.0,0.0,0.0,0.0,0.0,0.0,0.0,0.0,0.0,0.0,0.0,0.0,0.0,0.0,0.0,0.0,0.0,0.0,0.0,0.0,0.0,0.0,0.0,0.0,0.0,0.0,0.0,0.0,0.0,0.0,0.0,0.0,0.0,0.0,0.0,0.0,0.0,0.0,0.0,0.0,0.0,0.0,0.0,0.0,0.0,0.0,0.0,0.0,0.0,0.0,0.0,0.0,0.0,0.0,0.0,0.0,0.0,0.0,0.0,0.0,0.0,0.0,0.0,0.0,0.0,0.0,0.0,0.0,0.0,0.0,0.0,0.0,0.0,0.0,0.0,0.0,0.0,0.0,0.0,0.0,0.0,0.0,0.0,0.0,0.0,0.0,0.0,0.0,0.0,0.0,0.0,0.0,0.0,0.0,0.0,0.0,0.0,0.0,0.0,0.0,0.0,0.0,0.0,0.0,0.0,0.0,0.0,0.0,0.0,0.0,0.0,0.0,0.0,0.0,0.0,0.0,0.0,0.0,0.0,0.0,0.0,0.0,0.0,-1.3198,0.0,0.0,0.0,0.0,0.0,0.0,0.0,0.0,0.0,0.0,0.0,0.0,0.0,0.0,0.0,0.0,0.0,0.0,0.0,0.0,0.0,0.0,0.0,0.0,0.0,0.0,0.0,0.0,0.0,0.0,0.0,0.0,0.0,0.0,0.0,0.0,0.0,0.0,0.0,0.0,0.0,0.0,0.0,0.0,0.0,0.0,0.0,0.0,0.0,0.0,0.0,0.0,0.0,0.0,0.0,0.0,0.0,0.0,0.0,0.0,0.0,0.0,0.0,0.0,0.0,0.0,0.0,0.0,0.0,0.0,0.0,0.0,0.0,0.0,0.0,0.0,0.0,0.0,0.0,0.0,0.0,0.0,0.0,0.0,0.0,0.0,0.0,0.0,0.0,0.0,0.0,0.0,0.0,0.0,0.0,0.0,0.0,0.0,0.0,0.0,0.0,0.0,0.0,0.0,0.0,0.0,0.0,0.0,0.0,0.0,-1.321,-1.321,-1.321,-1.321,-1.321,0.0,0.0,0.0,0.0,0.0,0.0,0.0,0.0,0.0,0.0,0.0,0.0,0.0,0.0,0.0,0.0,0.0,0.0,0.0,0.0,0.0,0.0,0.0,0.0,0.0,0.0,0.0,0.0,0.0,0.0,0.0,0.0,0.0,0.0,0.0,0.0,0.0,0.0,0.0,0.0,0.0,0.0,0.0,0.0,0.0,0.0,0.0,0.0,0.0,0.0,0.0,0.0,0.0,0.0,0.0,0.0,0.0,0.0,0.0,0.0,0.0,0.0,0.0,0.0,0.0,0.0,0.0,0.0,0.0,0.0,0.0,0.0,0.0,0.0,0.0,0.0,0.0,0.0,0.0,0.0,0.0,0.0,0.0,0.0,0.0,0.0,0.0,0.0,0.0,0.0,0.0,0.0,0.0,0.0,0.0,0.0,0.0,0.0,0.0,0.0,0.0,0.0,0.0,0.0,0.0,0.0,0.0,0.0,0.0,0.0,0.0,0.0,-1.3267,-1.3254,-1.3267,0.0,0.0,0.0,0.0,0.0,0.0,0.0,0.0,0.0,0.0,0.0,0.0,0.0,0.0,0.0,0.0,0.0,0.0,0.0,0.0,0.0,0.0,0.0,0.0,0.0,0.0,0.0,0.0,0.0,0.0,0.0,0.0,0.0,0.0,0.0,0.0,0.0,0.0,0.0,0.0,0.0,0.0,0.0,0.0,0.0,0.0,0.0,0.0,0.0,0.0,0.0,0.0,0.0,0.0,0.0,0.0,0.0,0.0,0.0,0.0,0.0,0.0,0.0,0.0,0.0,0.0,0.0,0.0,0.0,0.0,0.0,0.0,0.0,0.0,0.0,0.0,0.0,0.0,0.0,0.0,0.0,0.0,0.0,0.0,0.0,0.0,0.0,0.0,0.0,0.0,0.0,0.0,0.0,0.0,0.0,0.0,0.0,0.0,0.0,0.0,0.0,0.0,0.0,0.0,0.0,0.0,0.0,0.0,0.0,0.0,-1.3459,-1.3391,-1.3459,0.0,-1.348,0.0,0.0,0.0,0.0,0.0,0.0,0.0,0.0,0.0,0.0,0.0,0.0,0.0,0.0,0.0,0.0,0.0,0.0,0.0,0.0,0.0,0.0,0.0,0.0,0.0,0.0,0.0,0.0,0.0,0.0,0.0,0.0,0.0,0.0,0.0,0.0,0.0,0.0,0.0,0.0,0.0,0.0,0.0,0.0,0.0,0.0,0.0,0.0,0.0,0.0,0.0,0.0,0.0,0.0,0.0,0.0,0.0,0.0,0.0,0.0,0.0,0.0,0.0,0.0,0.0,0.0,0.0,0.0,0.0,0.0,0.0,0.0,0.0,0.0,0.0,0.0,0.0,0.0,0.0,0.0,0.0,0.0,0.0,0.0,0.0,0.0,0.0,0.0,0.0,0.0,0.0,0.0,0.0,0.0,0.0,0.0,0.0,0.0,0.0,0.0,0.0,0.0,0.0,0.0,0.0,0.0,0.0,0.0,0.0,0.0,-1.4005,-1.3983,-1.3672,-1.3514,0.0,0.0,0.0,0.0,0.0,0.0,0.0,0.0,0.0,0.0,0.0,0.0,0.0,0.0,0.0,0.0,0.0,0.0,0.0,0.0,0.0,0.0,0.0,0.0,0.0,0.0,0.0,0.0,0.0,0.0,0.0,0.0,0.0,0.0,0.0,0.0,0.0,0.0,0.0,0.0,0.0,0.0,0.0,0.0,0.0,0.0,0.0,0.0,0.0,0.0,0.0,0.0,0.0,0.0,0.0,0.0,0.0,0.0,0.0,0.0,0.0,0.0,0.0,0.0,0.0,0.0,0.0,0.0,0.0,0.0,0.0,0.0,0.0,0.0,0.0,0.0,0.0,0.0,0.0,0.0,0.0,0.0,0.0,0.0,0.0,0.0,0.0,0.0,0.0,0.0,0.0,0.0,0.0,0.0,0.0,0.0,0.0,0.0,0.0,0.0,0.0,0.0,0.0,0.0,0.0,0.0,0.0,0.0,0.0,0.0,-1.5136,-1.4764,-1.4751,-1.4349,-1.4128,-1.4185,0.0,0.0,0.0,0.0,0.0,0.0,0.0,0.0,0.0,0.0,0.0,0.0,0.0,0.0,0.0,0.0,0.0,0.0,0.0,0.0,0.0,0.0,0.0,0.0,0.0,0.0,0.0,0.0,0.0,0.0,0.0,0.0,0.0,0.0,0.0,0.0,0.0,0.0,0.0,0.0,0.0,0.0,0.0,0.0,0.0,0.0,0.0,0.0,0.0,0.0,0.0,0.0,0.0,0.0,0.0,0.0,0.0,0.0,0.0,0.0,0.0,0.0,0.0,0.0,0.0,0.0,0.0,0.0,0.0,0.0,0.0,0.0,0.0,0.0,0.0,0.0,0.0,0.0,0.0,0.0,0.0,0.0,0.0,0.0,0.0,0.0,0.0,0.0,0.0,0.0,0.0,0.0,0.0,0.0,0.0,0.0,0.0,0.0,0.0,0.0,0.0,0.0,0.0,0.0,0.0,0.0,0.0,0.0,-1.6637,-1.6064,-1.5745,-1.5731,-1.5631,-1.5631,0.0,0.0,0.0,0.0,0.0,0.0,0.0,0.0,0.0,0.0,0.0,0.0,0.0,0.0,0.0,0.0,0.0,0.0,0.0,0.0,0.0,0.0,0.0,0.0,0.0,0.0,0.0,0.0,0.0,0.0,0.0,0.0,0.0,0.0,0.0,0.0,0.0,0.0,0.0,0.0,0.0,0.0,0.0,0.0,0.0,0.0,0.0,0.0,0.0,0.0,0.0,0.0,0.0,0.0,0.0,0.0,0.0,0.0,0.0,0.0,0.0,0.0,0.0,0.0,0.0,0.0,0.0,0.0,0.0,0.0,0.0,0.0,0.0,0.0,0.0,0.0,0.0,0.0,0.0,0.0,0.0,0.0,0.0,0.0,0.0,0.0,0.0,0.0,0.0,0.0,0.0,0.0,0.0,0.0,0.0,0.0,0.0,0.0,0.0,0.0,0.0,0.0,0.0,0.0,0.0,0.0,0.0,0.0,0.0,-1.7502,-1.6908,-1.6369,-1.6018,-1.5955,-1.6005,0.0,0.0,0.0,0.0,0.0,0.0,0.0,0.0,0.0,0.0,0.0,0.0,0.0,0.0,0.0,0.0,0.0,0.0,0.0,0.0,0.0,0.0,0.0,0.0,0.0,0.0,0.0,0.0,0.0,0.0,0.0,0.0,0.0,0.0,0.0,0.0,0.0,0.0,0.0,0.0,0.0,0.0,0.0,0.0,0.0,0.0,0.0,0.0,0.0,0.0,0.0,0.0,0.0,0.0,0.0,0.0,0.0,0.0,0.0,0.0,0.0,0.0,0.0,0.0,0.0,0.0,0.0,0.0,0.0,0.0,0.0,0.0,0.0,0.0,0.0,0.0,0.0,0.0,0.0,0.0,0.0,0.0,0.0,0.0,0.0,0.0,0.0,0.0,0.0,0.0,0.0,0.0,0.0,0.0,0.0,0.0,0.0,0.0,0.0,0.0,0.0,0.0,0.0,0.0,0.0,0.0,0.0,0.0,0.0,-1.8161,0.0,-1.7284,-1.6899,-1.6872,-1.6922,0.0,0.0,0.0,0.0,0.0,0.0,0.0,0.0,0.0,0.0,0.0,0.0,0.0,0.0,0.0,0.0,0.0,0.0,0.0,0.0,0.0,0.0,0.0,0.0,0.0,0.0,0.0,0.0,0.0,0.0,0.0,0.0,0.0,0.0,0.0,0.0,0.0,0.0,0.0,0.0,0.0,0.0,0.0,0.0,0.0,0.0,0.0,0.0,0.0,0.0,0.0,0.0,0.0,0.0,0.0,0.0,0.0,0.0,0.0,0.0,0.0,0.0,0.0,0.0,0.0,0.0,0.0,0.0,0.0,0.0,0.0,0.0,0.0,0.0,0.0,0.0,0.0,0.0,0.0,0.0,0.0,0.0,0.0,0.0,0.0,0.0,0.0,0.0,0.0,0.0,0.0,0.0,0.0,0.0,0.0,0.0,0.0,0.0,0.0,0.0,0.0,0.0,0.0,0.0,0.0,0.0,0.0,0.0,-1.8574,-1.8531,-1.8559,-1.852,-1.8531,-1.8464,-1.8503,0.0,0.0,0.0,0.0,0.0,0.0,0.0,0.0,0.0,0.0,0.0,0.0,0.0,0.0,0.0,0.0,0.0,0.0,0.0,0.0,0.0,0.0,0.0,0.0,0.0,0.0,0.0,0.0,0.0,0.0,0.0,0.0,0.0,0.0,0.0,0.0,0.0,0.0,0.0,0.0,0.0,0.0,0.0,0.0,0.0,0.0,0.0,0.0,0.0,0.0,0.0,0.0,0.0,0.0,0.0,0.0,0.0,0.0,0.0,0.0,0.0,0.0,0.0,0.0,0.0,0.0,0.0,0.0,0.0,0.0,0.0,0.0,0.0,0.0,0.0,0.0,0.0,0.0,0.0,0.0,0.0,0.0,0.0,0.0,0.0,0.0,0.0,0.0,0.0,0.0,0.0,0.0,0.0,0.0,0.0,0.0,0.0,0.0,0.0,0.0,0.0,0.0,0.0,0.0,0.0,0.0,0.0,0.0,0.0,-1.9523,-1.9843,-1.9989,-2.0016,-1.9618,-1.9415,0.0,0.0,0.0,0.0,0.0,0.0,0.0,0.0,0.0,0.0,0.0,0.0,0.0,0.0,0.0,0.0,0.0,0.0,0.0,0.0,0.0,0.0,0.0,0.0,0.0,0.0,0.0,0.0,0.0,0.0,0.0,0.0,0.0,0.0,0.0,0.0,0.0,0.0,0.0,0.0,0.0,0.0,0.0,0.0,0.0,0.0,0.0,0.0,0.0,0.0,0.0,0.0,0.0,0.0,0.0,0.0,0.0,0.0,0.0,0.0,0.0,0.0,0.0,0.0,0.0,0.0,0.0,0.0,0.0,0.0,0.0,0.0,0.0,0.0,0.0,0.0,0.0,0.0,0.0,0.0,0.0,0.0,0.0,0.0,0.0,0.0,0.0,0.0,0.0,0.0,0.0,0.0,0.0,0.0,0.0,0.0,0.0,0.0,0.0,0.0,0.0,0.0,0.0,0.0,0.0,0.0,0.0,0.0,0.0,-2.1637,-2.1423,-2.1236,-2.0949,-2.0599,-2.0422,-2.0433,0.0,0.0,0.0,0.0,0.0,0.0,0.0,0.0,0.0,0.0,0.0,0.0,0.0,0.0,0.0,0.0,0.0,0.0,0.0,0.0,0.0,0.0,0.0,0.0,0.0,0.0,0.0,0.0,0.0,0.0,0.0,0.0,0.0,0.0,0.0,0.0,0.0,0.0,0.0,0.0,0.0,0.0,0.0,0.0,0.0,0.0,0.0,0.0,0.0,0.0,0.0,0.0,0.0,0.0,0.0,0.0,0.0,0.0,0.0,0.0,0.0,0.0,0.0,0.0,0.0,0.0,0.0,0.0,0.0,0.0,0.0,0.0,0.0,0.0,0.0,0.0,0.0,0.0,0.0,0.0,0.0,0.0,0.0,0.0,0.0,0.0,0.0,0.0,0.0,0.0,0.0,0.0,0.0,0.0,0.0,0.0,0.0,0.0,0.0,0.0,0.0,0.0,0.0,0.0,0.0,0.0,0.0,0.0,-2.4581,-2.3333,-2.233,-2.168,-2.1606,-2.1573,0.0,0.0,0.0,0.0,0.0,0.0,0.0,0.0,0.0,0.0,0.0,0.0,0.0,0.0,0.0,0.0,0.0,0.0,0.0,0.0,0.0,0.0,0.0,0.0,0.0,0.0,0.0,0.0,0.0,0.0,0.0,0.0,0.0,0.0,0.0,0.0,0.0,0.0,0.0,0.0,0.0,0.0,0.0,0.0,0.0,0.0,0.0,0.0,0.0,0.0,0.0,0.0,0.0,0.0,0.0,0.0,0.0,0.0,0.0,0.0,0.0,0.0,0.0,0.0,0.0,0.0,0.0,0.0,0.0,0.0,0.0,0.0,0.0,0.0,0.0,0.0,0.0,0.0,0.0,0.0,0.0,0.0,0.0,0.0,0.0,0.0,0.0,0.0,0.0,0.0,0.0,0.0,0.0,0.0,0.0,0.0,0.0,0.0,0.0,0.0,0.0,0.0,0.0,0.0,0.0,0.0,0.0,0.0,0.0,-2.5314,-2.5448,-2.5116,-2.4294,-2.3792,-2.3348,0.0,0.0,0.0,0.0,0.0,0.0,0.0,0.0,0.0,0.0,0.0,0.0,0.0,0.0,0.0,0.0,0.0,0.0,0.0,0.0,0.0,0.0,0.0,0.0,0.0,0.0,0.0,0.0,0.0,0.0,0.0,0.0,0.0,0.0,0.0,0.0,0.0,0.0,0.0,0.0,0.0,0.0,0.0,0.0,0.0,0.0,0.0,0.0,0.0,0.0,0.0,0.0,0.0,0.0,0.0,0.0,0.0,0.0,0.0,0.0,0.0,0.0,0.0,0.0,0.0,0.0,0.0,0.0,0.0,0.0,0.0,0.0,0.0,0.0,0.0,0.0,0.0,0.0,0.0,0.0,0.0,0.0,0.0,0.0,0.0,0.0,0.0,0.0,0.0,0.0,0.0,0.0,0.0,0.0,0.0,0.0,0.0,0.0,0.0,0.0,0.0,0.0,0.0,0.0,0.0,0.0,0.0,0.0,-2.6303,-2.6856,-2.7245,-2.721,-2.6688,-2.5485,-2.4581,0.0,0.0,0.0,0.0,0.0,0.0,0.0,0.0,0.0,0.0,0.0,0.0,0.0,0.0,0.0,0.0,0.0,0.0,0.0,0.0,0.0,0.0,0.0,0.0,0.0,0.0,0.0,0.0,0.0,0.0,0.0,0.0,0.0,0.0,0.0,0.0,0.0,0.0,0.0,0.0,0.0,0.0,0.0,0.0,0.0,0.0,0.0,0.0,0.0,0.0,0.0,0.0,0.0,0.0,0.0,0.0,0.0,0.0,0.0,0.0,0.0,0.0,0.0,0.0,0.0,0.0,0.0,0.0,0.0,0.0,0.0,0.0,0.0,0.0,0.0,0.0,0.0,0.0,0.0,0.0,0.0,0.0,0.0,0.0,0.0,0.0,0.0,0.0,0.0,0.0,0.0,0.0,0.0,0.0,0.0,0.0,0.0,0.0,0.0,0.0,0.0,0.0,0.0,0.0,0.0,0.0,0.0,0.0,-2.7305,-2.8562,-2.8667,-2.8652,-2.8562,-2.6871,-2.557,0.0,0.0,0.0,0.0,0.0,0.0,0.0,0.0,0.0,0.0,0.0,0.0,0.0,0.0,0.0,0.0,0.0,0.0,0.0,0.0,0.0,0.0,0.0,0.0,0.0,0.0,0.0,0.0,0.0,0.0,0.0,0.0,0.0,0.0,0.0,0.0,0.0,0.0,0.0,0.0,0.0,0.0,0.0,0.0,0.0,0.0,0.0,0.0,0.0,0.0,0.0,0.0,0.0,0.0,0.0,0.0,0.0,0.0,0.0,0.0,0.0,0.0,0.0,0.0,0.0,0.0,0.0,0.0,0.0,0.0,0.0,0.0,0.0,0.0,0.0,0.0,0.0,0.0,0.0,0.0,0.0,0.0,0.0,0.0,0.0,0.0,0.0,0.0,0.0,0.0,0.0,0.0,0.0,0.0,0.0,0.0,0.0,0.0,0.0,0.0,0.0,0.0,0.0,0.0,0.0,0.0,0.0,0.0,-2.7769,-2.8592,-2.9192,-2.9313,-2.8733,-2.824,-2.7395,0.0,0.0,0.0,0.0,0.0,0.0,0.0,0.0,0.0,0.0,0.0,0.0,0.0,0.0,0.0,0.0,0.0,0.0,0.0,0.0,0.0,0.0,0.0,0.0,0.0,0.0,0.0,0.0,0.0,0.0,0.0,0.0,0.0,0.0,0.0,0.0,0.0,0.0,0.0,0.0,0.0,0.0,0.0,0.0,0.0,0.0,0.0,0.0,-2.0137,0.0,0.0,0.0,0.0,0.0,0.0,0.0,0.0,0.0,0.0,0.0,0.0,0.0,0.0,0.0,0.0,0.0,0.0,0.0,0.0,0.0,0.0,0.0,0.0,0.0,0.0,0.0,0.0,0.0,0.0,0.0,0.0,0.0,0.0,0.0,0.0,0.0,0.0,0.0,0.0,0.0,0.0,0.0,0.0,0.0,0.0,0.0,0.0,0.0,0.0,0.0,0.0,0.0,0.0,0.0,0.0,0.0,0.0,0.0,-2.8486,-2.9147,-2.9954,-3.0189,-2.9841,-2.9433,-2.8432,0.0,0.0,0.0,0.0,0.0,0.0,0.0,0.0,0.0,0.0,0.0,0.0,0.0,0.0,0.0,0.0,0.0,0.0,0.0,0.0,0.0,0.0,0.0,0.0,0.0,0.0,0.0,0.0,0.0,0.0,0.0,0.0,0.0,0.0,0.0,0.0,0.0,0.0,0.0,0.0,0.0,0.0,0.0,0.0,0.0,0.0,0.0,0.0,0.0,0.0,0.0,0.0,0.0,0.0,0.0,0.0,0.0,0.0,0.0,0.0,0.0,0.0,0.0,0.0,0.0,0.0,0.0,0.0,0.0,0.0,0.0,0.0,0.0,0.0,0.0,0.0,0.0,0.0,0.0,0.0,0.0,0.0,0.0,0.0,0.0,0.0,0.0,0.0,0.0,0.0,0.0,0.0,0.0,0.0,0.0,0.0,0.0,0.0,0.0,0.0,0.0,0.0,0.0,0.0,0.0,0.0,0.0,-2.7816,-2.926,-2.9872,-3.0737,-3.111,-3.0952,-3.0456,-2.9154,-2.7016,0.0,0.0,0.0,0.0,0.0,0.0,0.0,0.0,0.0,0.0,0.0,0.0,0.0,0.0,0.0,0.0,0.0,0.0,0.0,0.0,0.0,0.0,0.0,0.0,0.0,0.0,0.0,0.0,0.0,0.0,0.0,0.0,0.0,0.0,0.0,0.0,0.0,0.0,-2.0553,-2.1425,0.0,0.0,0.0,0.0,0.0,0.0,0.0,0.0,-2.4855,0.0,0.0,0.0,0.0,0.0,0.0,0.0,0.0,0.0,0.0,0.0,0.0,0.0,0.0,0.0,0.0,0.0,0.0,0.0,0.0,0.0,0.0,0.0,0.0,0.0,0.0,0.0,0.0,0.0,0.0,0.0,0.0,0.0,0.0,0.0,0.0,0.0,0.0,0.0,0.0,0.0,0.0,0.0,0.0,0.0,0.0,0.0,0.0,0.0,0.0,0.0,0.0,0.0,0.0,0.0,0.0,-2.5786,-2.8318,-2.9819,-3.0166,-3.1489,-3.1705,-3.0732,-3.0783,-2.9757,-2.7535,0.0,0.0,0.0,0.0,0.0,0.0,0.0,0.0,0.0,0.0,0.0,0.0,0.0,0.0,0.0,0.0,0.0,0.0,0.0,0.0,0.0,0.0,0.0,0.0,0.0,0.0,0.0,0.0,0.0,0.0,0.0,0.0,0.0,0.0,0.0,0.0,0.0,0.0,0.0,-2.3103,-2.387,0.0,0.0,0.0,0.0,0.0,0.0,0.0,0.0,-2.5564,0.0,0.0,0.0,0.0,0.0,0.0,0.0,0.0,0.0,0.0,0.0,0.0,0.0,0.0,0.0,0.0,0.0,0.0,0.0,0.0,0.0,0.0,0.0,0.0,0.0,0.0,0.0,0.0,0.0,0.0,0.0,0.0,0.0,0.0,0.0,0.0,0.0,0.0,0.0,0.0,0.0,0.0,0.0,0.0,0.0,0.0,0.0,0.0,0.0,0.0,0.0,0.0,0.0,0.0,0.0,-2.6919,-2.9012,-3.0341,-3.0814,-3.2121,-3.2329,-3.1384,-3.1247,-3.0289,0.0,0.0,0.0,0.0,0.0,0.0,0.0,0.0,0.0,0.0,0.0,0.0,0.0,0.0,0.0,0.0,0.0,0.0,0.0,0.0,0.0,0.0,0.0,0.0,0.0,0.0,0.0,0.0,0.0,0.0,0.0,0.0,0.0,0.0,0.0,0.0,0.0,0.0,0.0,0.0,-2.3967,-2.5029,-2.5837,0.0,0.0,0.0,0.0,0.0,0.0,-2.7496,-2.7332,0.0,0.0,0.0,0.0,0.0,0.0,0.0,0.0,0.0,0.0,0.0,0.0,0.0,0.0,0.0,0.0,0.0,0.0,0.0,0.0,0.0,0.0,0.0,0.0,0.0,0.0,0.0,0.0,0.0,0.0,0.0,0.0,0.0,0.0,0.0,0.0,0.0,0.0,0.0,0.0,0.0,0.0,0.0,0.0,0.0,0.0,0.0,0.0,0.0,0.0,0.0,0.0,0.0,0.0,0.0,-2.7925,-2.9587,-3.0809,-3.1595,-3.2682,-3.2809,-3.1974,-3.1739,-3.0704,0.0,0.0,0.0,0.0,0.0,0.0,0.0,0.0,0.0,0.0,0.0,0.0,0.0,0.0,0.0,0.0,0.0,0.0,0.0,0.0,0.0,0.0,0.0,0.0,0.0,0.0,0.0,0.0,0.0,0.0,0.0,0.0,0.0,0.0,0.0,0.0,0.0,0.0,0.0,0.0,0.0,-2.6043,-2.7163,-2.72,0.0,0.0,0.0,0.0,-2.9365,-2.9347,0.0,0.0,0.0,0.0,0.0,0.0,0.0,0.0,0.0,0.0,0.0,0.0,0.0,0.0,0.0,0.0,0.0,0.0,0.0,0.0,0.0,0.0,0.0,0.0,0.0,0.0,0.0,0.0,0.0,0.0,0.0,0.0,0.0,0.0,0.0,0.0,0.0,0.0,0.0,0.0,0.0,0.0,0.0,0.0,0.0,0.0,0.0,0.0,0.0,0.0,0.0,0.0,0.0,0.0,0.0,0.0,-2.835,-2.994,-3.1221,-3.2183,-3.3137,-3.3035,-3.1887,-3.2059,-3.0819,0.0,0.0,0.0,0.0,0.0,0.0,0.0,0.0,0.0,0.0,0.0,0.0,0.0,0.0,0.0,0.0,0.0,0.0,0.0,0.0,0.0,0.0,0.0,0.0,0.0,0.0,0.0,0.0,0.0,0.0,0.0,0.0,0.0,0.0,0.0,0.0,0.0,0.0,0.0,0.0,0.0,-2.7273,-2.9475,-2.9159,-2.9237,0.0,0.0,-3.0191,-3.0999,-3.0522,0.0,0.0,0.0,0.0,0.0,0.0,0.0,0.0,0.0,0.0,0.0,0.0,0.0,0.0,0.0,0.0,0.0,0.0,0.0,0.0,0.0,0.0,0.0,0.0,0.0,0.0,0.0,0.0,0.0,0.0,0.0,0.0,0.0,0.0,0.0,0.0,0.0,0.0,0.0,0.0,0.0,0.0,0.0,0.0,0.0,0.0,0.0,0.0,0.0,0.0,0.0,0.0,0.0,0.0,0.0,-2.7535,-2.9692,-3.0694,-3.1779,-3.3077,-3.3636,-3.3516,-3.2611,-3.2564,-3.132,0.0,0.0,0.0,0.0,0.0,0.0,0.0,0.0,0.0,0.0,0.0,0.0,0.0,0.0,0.0,0.0,0.0,0.0,0.0,0.0,0.0,0.0,0.0,0.0,0.0,0.0,0.0,0.0,0.0,0.0,0.0,0.0,0.0,0.0,0.0,0.0,0.0,0.0,0.0,0.0,0.0,0.0,-2.9934,-3.0301,0.0,0.0,0.0,-3.1146,-3.1971,0.0,0.0,0.0,0.0,0.0,0.0,0.0,0.0,0.0,0.0,0.0,0.0,0.0,0.0,0.0,0.0,0.0,0.0,0.0,0.0,0.0,0.0,0.0,0.0,0.0,0.0,0.0,0.0,0.0,0.0,0.0,0.0,0.0,0.0,0.0,0.0,0.0,0.0,0.0,0.0,0.0,0.0,0.0,0.0,0.0,0.0,0.0,0.0,0.0,0.0,0.0,0.0,0.0,0.0,0.0,0.0,0.0,-3.0914,-3.1388,-3.2319,-3.3783,-3.4151,-3.3991,-3.3368,-3.3003,0.0,0.0,0.0,0.0,0.0,0.0,0.0,0.0,0.0,0.0,0.0,0.0,0.0,0.0,0.0,0.0,0.0,0.0,0.0,0.0,0.0,0.0,0.0,0.0,0.0,0.0,0.0,-2.5739,0.0,0.0,0.0,0.0,0.0,0.0,0.0,0.0,0.0,0.0,0.0,0.0,0.0,0.0,-2.876,-3.0558,-3.1494,-3.199,0.0,0.0,-3.243,-3.2852,-3.2228,-3.1439,0.0,0.0,0.0,0.0,0.0,0.0,0.0,0.0,0.0,0.0,0.0,0.0,0.0,0.0,0.0,0.0,0.0,0.0,0.0,0.0,0.0,0.0,0.0,0.0,0.0,0.0,0.0,0.0,0.0,0.0,0.0,0.0,0.0,0.0,0.0,0.0,0.0,0.0,0.0,0.0,0.0,0.0,0.0,0.0,0.0,0.0,0.0,0.0,0.0,0.0,0.0,0.0,0.0,0.0,0.0,-3.1422,-3.1821,-3.2707,-3.4185,-3.4643,-3.4504,-3.376,-3.3389,-3.2429,0.0,0.0,0.0,0.0,0.0,0.0,0.0,0.0,0.0,0.0,0.0,0.0,0.0,0.0,0.0,0.0,0.0,0.0,0.0,0.0,0.0,0.0,0.0,0.0,0.0,0.0,0.0,0.0,0.0,0.0,0.0,0.0,0.0,0.0,0.0,0.0,0.0,0.0,0.0,0.0,0.0,-2.9787,-3.2118,-3.3128,-3.3623,0.0,0.0,-3.4541,-3.3825,-3.3036,-3.2247,-3.1439,0.0,0.0,0.0,0.0,0.0,0.0,0.0,0.0,0.0,0.0,0.0,0.0,0.0,0.0,0.0,0.0,0.0,0.0,0.0,0.0,0.0,0.0,0.0,0.0,0.0,0.0,0.0,0.0,0.0,0.0,0.0,0.0,0.0,0.0,0.0,0.0,0.0,0.0,0.0,0.0,0.0,0.0,0.0,0.0,0.0,0.0,0.0,0.0,0.0,0.0,0.0,0.0,0.0,-2.881,-3.1757,-3.2134,-3.3069,-3.4577,-3.4899,-3.4908,-3.4735,-3.4164,-3.316,0.0,0.0,0.0,0.0,0.0,0.0,0.0,0.0,0.0,0.0,0.0,0.0,0.0,0.0,0.0,0.0,0.0,0.0,0.0,0.0,0.0,0.0,0.0,0.0,0.0,0.0,0.0,0.0,-3.0574,-3.0357,-2.9099,0.0,0.0,0.0,0.0,0.0,0.0,0.0,0.0,0.0,0.0,-3.0999,-3.2412,-3.3715,0.0,0.0,-3.4486,-3.4697,-3.3917,-3.355,-3.3073,-3.2265,-3.0815,0.0,0.0,0.0,0.0,0.0,0.0,0.0,0.0,0.0,0.0,0.0,0.0,0.0,0.0,0.0,0.0,0.0,0.0,0.0,0.0,0.0,0.0,0.0,0.0,0.0,0.0,0.0,0.0,0.0,0.0,0.0,0.0,0.0,0.0,0.0,0.0,0.0,0.0,0.0,0.0,0.0,0.0,0.0,0.0,0.0,0.0,0.0,0.0,0.0,0.0,0.0,0.0,-2.9248,-3.2164,-3.2669,-3.3561,-3.4977,-3.5152,-3.5245,-3.5337,-3.4718,-3.3869,0.0,0.0,0.0,0.0,0.0,0.0,0.0,0.0,0.0,0.0,0.0,0.0,0.0,0.0,0.0,0.0,0.0,0.0,0.0,0.0,0.0,0.0,0.0,0.0,0.0,0.0,0.0,0.0,-3.143,-3.0821,-2.9489,0.0,0.0,0.0,0.0,0.0,0.0,0.0,0.0,0.0,0.0,-3.2137,-3.3201,-3.4495,-3.5183,-3.4614,-3.5037,-3.511,-3.4284,-3.3954,-3.3532,-3.2724,0.0,0.0,0.0,0.0,0.0,0.0,0.0,0.0,0.0,0.0,0.0,0.0,0.0,0.0,0.0,0.0,0.0,0.0,0.0,0.0,0.0,0.0,0.0,0.0,0.0,0.0,0.0,0.0,0.0,0.0,-2.2164,0.0,0.0,0.0,0.0,0.0,0.0,0.0,0.0,0.0,0.0,0.0,0.0,0.0,0.0,0.0,0.0,0.0,0.0,0.0,0.0,0.0,0.0,-3.0054,-3.2646,-3.3375,-3.4276,-3.5291,-3.54,-3.5508,-3.5492,-3.4884,-3.4489,-3.4421,0.0,0.0,0.0,0.0,0.0,0.0,0.0,0.0,0.0,0.0,0.0,0.0,0.0,0.0,0.0,0.0,0.0,0.0,0.0,0.0,0.0,0.0,0.0,0.0,0.0,0.0,-3.2363,-3.1836,-3.1054,0.0,0.0,0.0,0.0,0.0,0.0,0.0,0.0,0.0,0.0,-3.2063,-3.3183,-3.4697,-3.5697,-3.6193,-3.6156,-3.6193,-3.5936,-3.5045,-3.4321,-3.3532,0.0,0.0,0.0,0.0,0.0,0.0,0.0,0.0,0.0,0.0,0.0,0.0,0.0,0.0,0.0,0.0,0.0,0.0,0.0,0.0,0.0,0.0,0.0,0.0,0.0,0.0,0.0,-2.5589,-2.5532,0.0,0.0,0.0,0.0,0.0,0.0,0.0,0.0,0.0,0.0,0.0,-2.9273,-2.9224,0.0,0.0,0.0,0.0,0.0,0.0,0.0,0.0,0.0,0.0,0.0,0.0,-3.0647,-3.263,-3.3606,-3.4726,-3.6118,-3.6308,-3.6354,-3.6371,-3.6163,-3.5537,-3.4506,0.0,0.0,0.0,0.0,0.0,0.0,0.0,0.0,0.0,0.0,0.0,0.0,0.0,0.0,0.0,0.0,0.0,0.0,0.0,0.0,0.0,0.0,0.0,0.0,0.0,-3.2198,0.0,0.0,0.0,0.0,0.0,0.0,0.0,0.0,0.0,0.0,0.0,-3.1806,-3.2852,-3.4174,-3.5055,-3.5009,-3.5734,-3.5899,0.0,0.0,0.0,0.0,0.0,0.0,0.0,0.0,0.0,0.0,0.0,0.0,0.0,0.0,-3.0338,-2.9549,-2.9824,-3.0265,-3.054,0.0,0.0,0.0,0.0,0.0,0.0,0.0,0.0,0.0,0.0,0.0,0.0,0.0,0.0,-2.8196,0.0,-2.7348,0.0,0.0,0.0,0.0,0.0,0.0,0.0,0.0,-2.9902,-3.0469,-3.1027,-3.0927,-3.0642,0.0,-3.0302,-2.9658,0.0,0.0,0.0,0.0,0.0,0.0,0.0,0.0,-3.1902,-3.3561,-3.4571,-3.5681,-3.7,-3.7131,-3.7178,-3.7161,-3.7178,-3.6468,-3.4945,-3.3508,-3.2374,0.0,0.0,0.0,0.0,0.0,0.0,0.0,0.0,0.0,0.0,0.0,0.0,0.0,0.0,0.0,0.0,0.0,0.0,0.0,0.0,0.0,0.0,0.0,-3.2745,0.0,0.0,0.0,0.0,0.0,0.0,0.0,0.0,0.0,-3.0241,-3.1836,-3.322,-3.3733,-3.5238,-3.5991,-3.5119,0.0,0.0,0.0,0.0,0.0,0.0,0.0,-3.4853,-3.5385,-3.5018,-3.4669,-3.4669,-3.3788,-3.3091,-3.3091,0.0,0.0,-3.1751,-3.21,-3.2742,-3.3036,-3.3091,-3.3091,-3.3091,-3.3091,-3.3091,0.0,0.0,0.0,0.0,0.0,0.0,0.0,0.0,-3.0038,-3.0082,0.0,-2.9237,0.0,0.0,0.0,0.0,0.0,-2.8889,0.0,0.0,-3.1236,-3.1369,-3.158,-3.1365,-3.1234,-3.1351,-3.125,-3.1448,-3.1838,-3.0505,0.0,0.0,0.0,0.0,0.0,0.0,-3.3689,-3.5224,-3.6135,-3.7067,-3.7905,-3.7939,-3.7939,-3.7939,-3.7905,-3.7195,-3.5791,-3.5605,-3.4607,-3.2534,-3.163,0.0,0.0,0.0,0.0,0.0,0.0,0.0,0.0,0.0,0.0,0.0,0.0,0.0,0.0,0.0,0.0,0.0,0.0,0.0,0.0,-3.3358,0.0,0.0,0.0,0.0,0.0,0.0,0.0,0.0,0.0,0.0,-3.2706,-3.3403,-3.3899,-3.3954,0.0,0.0,0.0,0.0,-3.7459,-3.7386,-3.7452,-3.7404,-3.7386,-3.6762,-3.6285,-3.6321,0.0,0.0,-3.634,-3.6303,-3.6174,-3.6266,-3.6174,-3.5807,-3.4211,-3.4468,-3.5202,-3.5973,-3.6064,-3.6229,-3.6248,-3.5936,-3.6028,-3.5059,0.0,0.0,0.0,0.0,-3.1665,-3.1955,-3.2067,-3.2067,-3.1996,-3.1835,-3.1577,0.0,0.0,0.0,0.0,0.0,0.0,-3.1839,-3.2815,-3.3339,-3.3937,-3.4542,-3.4452,-3.4452,-3.4452,-3.4558,-3.4732,-3.5007,-3.4787,-3.3582,-3.1483,0.0,0.0,0.0,0.0,-3.4747,-3.5463,-3.672,-3.7778,-3.8667,-3.8684,-3.8684,-3.8667,-3.8176,-3.7702,-3.7263,-3.6214,-3.5318,-3.4675,-3.2933,0.0,0.0,0.0,0.0,0.0,0.0,0.0,0.0,0.0,0.0,0.0,0.0,0.0,0.0,0.0,0.0,0.0,0.0,0.0,-3.5064,-3.4862,-3.4247,0.0,0.0,0.0,0.0,0.0,0.0,0.0,0.0,0.0,-3.5073,-3.544,-3.5789,0.0,0.0,-3.7716,-3.6909,-3.7184,-3.7276,-3.6725,-3.6633,0.0,-3.6633,-3.645,-3.6486,-3.7037,-3.7147,-3.7147,-3.7147,-3.6688,-3.6285,-3.6303,-3.6762,-3.6964,-3.6541,-3.6119,-3.6064,-3.6248,-3.6285,-3.6285,-3.6285,-3.6285,-3.6303,-3.8753,-3.6249,-3.5496,-3.4628,-3.3795,-3.4231,-3.4538,-3.4714,-3.4731,-3.4638,-3.4529,-3.4247,-3.3773,-3.3159,-3.2758,0.0,0.0,0.0,-3.3906,-3.4647,-3.508,-3.5514,-3.5953,-3.5937,-3.5937,-3.6023,-3.6077,-3.6238,-3.6482,-3.6744,-3.6059,-3.4612,0.0,0.0,-3.433,-3.5496,-3.639,-3.6835,-3.7711,-3.8618,-3.9394,-3.9428,-3.9428,-3.9411,-3.9005,-3.8633,-3.8345,-3.7449,-3.6688,-3.6096,-3.4506,-3.3254,0.0,0.0,0.0,0.0,0.0,0.0,0.0,0.0,0.0,0.0,0.0,-2.8457,0.0,0.0,0.0,0.0,-3.3679,-3.5145,-3.6211,-3.5826,0.0,0.0,0.0,0.0,0.0,0.0,0.0,-3.4174,-3.4578,-3.5293,-3.6578,-3.6762,-3.6817,-3.6982,-3.7991,-3.8285,-3.7165,0.0,-3.7679,-3.6872,-3.7055,-3.7257,-3.7257,-3.7257,-3.7422,-3.7881,-3.7973,-3.7973,-3.7955,-3.7551,-3.7257,-3.7312,-3.7643,-3.7973,-3.7973,-3.7569,-3.7257,-3.7257,-3.7257,-3.7257,-3.7257,-3.7239,-3.7257,-4.2134,-4.1255,-3.8366,-3.6959,-3.6678,-3.6678,-3.7081,-3.7684,-3.7634,-3.7634,-3.755,-3.6829,-3.6463,-3.6252,-3.5315,0.0,-3.5526,-3.5526,-3.5815,-3.6388,-3.6388,-3.647,-3.6546,-3.6389,-3.6422,-3.6659,-3.6664,-3.6808,-3.7105,-3.738,-3.7602,-3.7836,-3.7669,-3.7268,-3.6595,-3.741,-3.8117,-3.8823,-3.8989,-3.9394,-4.0054,-4.0087,-4.0087,-4.007,-4.0087,-3.9749,-3.9123,-3.9022,-3.8362,-3.7026,-3.6163,-3.5368,-3.4573,0.0,0.0,0.0,0.0,0.0,0.0,0.0,0.0,0.0,0.0,0.0,0.0,0.0,0.0,0.0,-3.5373,0.0,-3.6486,-3.6413,0.0,0.0,0.0,-3.4816,-3.4082,-3.4642,-3.5137,-3.5265,0.0,0.0,-3.7661,-3.7771,-3.7496,-3.6762,-3.79,-3.8248,-3.678,-3.7973,-3.8634,-3.7973,-3.8432,-3.8872,-3.8891,-3.8891,-3.8909,-3.8964,-3.8891,-3.8909,-3.8836,-3.8781,-3.8799,-3.8597,-3.8689,-3.8689,-3.8689,-3.8615,-3.8707,-3.8615,-3.8634,-3.8652,-3.8579,-3.8579,-3.8542,-4.4451,-4.3673,-4.2317,-4.0797,-3.9243,-3.921,-3.9294,-3.9446,-3.8873,-3.857,-3.847,-3.7681,-3.7314,-3.7168,-3.6721,-3.6588,-3.6687,-3.65,-3.6685,-3.7178,-3.7194,-3.7757,-3.8699,-3.8699,-3.9064,-3.9699,-3.9715,-3.9871,-4.016,-4.0376,-4.0612,-4.0833,-4.0385,-3.9278,-3.7624,-3.8314,-3.877,-3.8939,-3.9546,-3.9901,-4.007,-4.0087,-4.0087,-4.0087,-4.0087,-4.0003,-3.9817,-3.9292,-3.8836,-3.8447,-3.7212,-3.6146,-3.5385,-3.432,0.0,0.0,0.0,0.0,0.0,0.0,0.0,0.0,0.0,-3.0666,-3.2541,0.0,-3.4714,0.0,-3.6538,-3.7459,-3.8083,-3.7569,0.0,0.0,-3.6358,-3.5917,-3.5716,-3.5881,-3.645,-3.7698,-3.801,-3.867,-4.0084,-4.0249,-4.0175,-3.9992,-3.9753,-3.9441,-3.9111,-3.9882,-4.0487,-4.0267,-4.0341,-4.0524,-4.0487,-4.0543,-4.0487,-4.0543,-4.0524,-4.0341,-3.9717,-3.9625,-3.9441,-3.8854,-3.8707,-3.8707,-3.8744,-3.8707,-3.8726,-3.8707,-3.8707,-3.8707,-3.8707,-3.8707,-3.8707,-4.594,-4.5517,-4.5094,-4.4198,-4.2963,-4.166,-4.1068,-4.1018,-4.0629,-4.0408,-4.0323,-3.9868,-3.9597,-3.9546,-3.9287,-3.9129,-3.9113,-3.8879,-3.8805,-3.9054,-3.8998,-3.9267,-3.9914,-3.993,-4.0274,-4.0798,-4.0841,-4.0983,-4.1181,-4.1442,-4.1683,-4.1904,-4.1631,-4.0912,-3.9901,-3.9614,-3.9478,-3.9478,-3.9868,-4.0087,-4.0087,-4.0087,-4.0087,-4.0087,-4.0087,-4.0087,-4.0087,-3.9681,-3.9326,-3.9005,-3.821,-3.7415,-3.6654,-3.5588,-3.432,0.0,0.0,0.0,0.0,0.0,0.0,0.0,0.0,0.0,0.0,0.0,-3.6194,-3.7168,-3.7741,-3.8212,-3.867,-3.8615,-3.856,-3.856,-3.8487,-3.8432,-3.845,-3.845,-3.8799,-3.9662,-3.9772,-4.0102,-4.1001,-4.1097,-4.1097,-4.1097,-4.1038,-4.0836,-4.0543,-4.0836,-4.1097,-4.1097,-4.1097,-4.1097,-4.1097,-4.1097,-4.1097,-4.1097,-4.1097,-4.0946,-4.0524,-4.0432,-4.0286,-3.9882,-3.9772,-3.9772,-3.9772,-3.9772,-3.9772,-3.9772,-3.979,-3.9643,-3.9313,-3.9239,-3.9313,-4.7158,-4.7073,-4.6972,-4.6887,-4.6583,-4.3978,-4.2861,-4.2844,-4.2658,-4.2472,-4.2303,-4.2196,-4.2159,-4.2088,-4.1849,-4.1738,-4.1683,-4.1345,-4.1099,-4.0983,-4.0792,-4.0664,-4.0642,-4.0626,-4.0826,-4.1043,-4.122,-4.1362,-4.1576,-4.1893,-4.2078,-4.2189,-4.2236,-4.2348,-4.2371,-4.1068,-4.0358,-4.0358,-4.0358,-4.0358,-4.0358,-4.0273,-4.0206,-4.0223,-4.0138,-4.0087,-4.0087,-4.0087,-3.9783,-3.9174,-3.9039,-3.8717,-3.8058,-3.6688,-3.5571,0.0,-3.3575,0.0,0.0,0.0,0.0,0.0,0.0,0.0,0.0,-3.6472,-3.7898,-3.8768,-3.8964,-3.9001,-3.9001,-3.9625,-4.0047,-4.0065,-4.0671,-4.1097,-4.1111,-4.1097,-4.1134,-4.124,-4.1258,-4.1295,-4.146,-4.1423,-4.1423,-4.157,-4.2029,-4.2158,-4.1589,-4.1497,-4.1552,-4.1405,-4.1423,-4.1625,-4.157,-4.1497,-4.1515,-4.146,-4.1534,-4.1368,-4.1295,-4.1258,-4.1222,-4.1093,-4.0969,-4.1056,-4.1111,-4.1042,-4.1042,-4.1001,-4.0983,-4.0781,-4.023,-4.0047,-4.0286,-4.912,-4.8545,-4.7953,-4.7361,-4.6735,-4.6177,-4.594,-4.5855,-4.4671,-4.3453,-4.2303,-4.2286,-4.225,-4.2233,-4.2013,-4.1866,-4.1849,-4.1402,-4.1116,-4.0983,-4.0808,-4.0924,-4.1355,-4.1371,-4.1845,-4.2626,-4.272,-4.296,-4.3406,-4.3564,-4.3736,-4.3816,-4.3411,-4.3162,-4.3166,0.0,0.0,0.0,-4.1863,-4.1863,-4.1847,-4.1288,-4.1001,-4.0967,-4.0392,0.0,-4.0087,-4.0087,-4.002,-3.9868,-3.9309,0.0,0.0,0.0,0.0,0.0,0.0,0.0,0.0,0.0,0.0,0.0,-3.7179,-3.7327,-3.6504,-3.8172,-3.9438,-3.9662,-4.0267,-4.0653,-4.0653,-4.0781,-4.0891,-4.0891,-4.102,-4.1097,-4.1097,-4.1148,-4.1332,-4.2011,-4.2103,-4.2341,-4.2928,-4.3039,-4.3039,-4.3039,-4.3149,-4.3204,-4.3075,-4.3002,-4.3002,-4.302,-4.291,-4.3002,-4.3039,-4.2965,-4.2892,-4.3039,-4.3039,-4.2763,-4.2213,-4.2066,-4.1809,-4.1332,-4.1097,-4.1134,-4.1167,-4.1097,-4.1222,-4.1115,-4.1134,-4.1056,-4.091,-4.0891,-4.0928,-5.0439,0.0,-4.9306,-4.8765,0.0,-4.8037,-4.7885,-4.7767,-4.6295,-4.5229,-4.4536,-4.4519,-4.4316,-4.3978,-4.3681,-4.3327,-4.2919,-4.2385,-4.2091,-4.2032,-4.1671,-4.1743,-4.2099,-4.2037,-4.2402,-4.3096,-4.3096,-4.3355,-4.3898,-4.4056,-4.4155,-4.4293,-4.4108,-4.3995,-4.3978,-4.3606,-4.3047,-4.2303,-4.2303,-4.2303,-4.2269,-4.1931,-4.1745,-4.1728,-4.1373,0.0,0.0,0.0,0.0,0.0,0.0,0.0,0.0,-3.8836,0.0,-3.7905,-3.7533,-3.7254,-3.712,-3.7264,-3.7525,-3.7988,-3.8919,-3.9265,-3.8787,-3.975,-4.039,-4.0506,-4.0873,-4.1097,-4.113,-4.146,-4.1699,-4.1717,-4.2047,-4.2433,-4.2818,-4.2892,-4.3204,-4.392,-4.4085,-4.425,-4.4635,-4.4672,-4.4672,-4.4672,-4.469,-4.4654,-4.458,-4.3993,-4.3479,-4.3479,-4.3479,-4.3479,-4.3479,-4.3479,-4.3479,-4.3479,-4.3479,-4.3314,-4.2965,-4.2892,-4.2745,-4.2359,-4.2286,-4.2286,-4.2286,-4.2286,-4.2286,-4.2286,-4.2286,-4.2286,-4.2268,-4.1974,-4.1827,-5.142,-5.1336,-5.0608,-5.0287,-5.0236,-4.9492,-4.912,-4.8917,0.0,0.0,0.0,-4.6786,-4.6464,-4.5848,-4.5564,-4.5051,-4.444,-4.3812,-4.349,-4.3506,-4.3022,-4.2815,-4.3006,-4.2815,-4.299,-4.349,-4.3506,-4.3767,-4.4323,-4.4307,-4.4397,-4.4552,-4.4564,-4.457,-4.457,-4.457,-4.3961,-4.2777,-4.2692,-4.2692,-4.2709,-4.2557,-4.2489,-4.2489,-4.2354,-4.1999,-4.1424,-4.139,-4.1102,-4.0493,-4.0341,-4.0273,-4.024,-3.958,-3.9174,-3.9157,-3.8616,-3.8374,-3.8576,-3.8716,-3.9036,-3.9546,-4.0184,-4.0561,-4.0775,-4.0985,-4.1159,-4.1299,-4.146,-4.1607,-4.1754,-4.2323,-4.2782,-4.291,-4.3516,-4.4195,-4.48,-4.4929,-4.5094,-4.5773,-4.5773,-4.5883,-4.5828,-4.581,-4.5902,-4.5883,-4.5755,-4.5902,-4.5718,-4.4635,-4.3791,-4.3773,-4.3663,-4.3479,-4.3479,-4.3479,-4.3479,-4.3479,-4.3479,-4.3479,-4.3479,-4.3479,-4.3479,-4.3369,-4.3479,-4.3424,-4.3461,-4.3369,-4.3479,-4.3479,-4.3479,-4.3479,-4.3424,-4.2965,-4.2708,-5.2147,-5.208,-5.1369,-5.1048,-5.0997,-5.0253,-4.9576,-4.8934,-4.8139,-4.7394,-4.6786,-4.6786,-4.6735,-4.6633,-4.6337,-4.6089,-4.5929,-4.5296,-4.498,-4.498,-4.448,-4.4282,-4.448,-4.4282,-4.4464,-4.498,-4.498,-4.5359,-4.5862,-4.5369,-4.5169,-4.5392,-4.4891,-4.4587,-4.457,-4.457,-4.4468,-4.4265,-4.4265,-4.4265,-4.4248,-4.3606,-4.325,-4.3234,-4.2642,-4.2252,-4.2134,-4.2134,-4.21,-4.1965,-4.139,-4.1052,-4.1018,-4.0358,-3.9918,-3.9918,-3.9817,-3.9915,-4.0161,-4.0275,-4.0683,-4.1427,-4.1848,-4.1692,-4.0833,-4.1411,-4.1933,-4.2142,-4.2782,-4.3461,-4.4103,-4.4268,-4.4562,-4.5204,-4.5461,-4.5626,-4.5718,-4.5718,-4.5792,-4.5993,-4.5902,-4.5975,-4.6049,-4.6012,-4.6049,-4.5957,-4.6159,-4.5975,-4.592,-4.5131,-4.4599,-4.4433,-4.3938,-4.3552,-4.3571,-4.3497,-4.3534,-4.3479,-4.3479,-4.3479,-4.3479,-4.3479,-4.3479,-4.3479,-4.3479,-4.3479,-4.3479,-4.3479,-4.3479,-4.3479,-4.3479,-4.3479,-4.3479,-4.3351,-4.3332,-5.2959,-5.2858,-5.2131,-5.1809,-5.1758,-5.1014,-5.027,-4.9576,-4.9255,-4.868,-4.802,-4.7986,-4.7784,-4.7352,-4.7015,-4.6675,-4.629,-4.561,-4.5275,-4.5227,-4.4623,-4.4522,-4.4721,-4.4506,-4.4689,-4.5275,-4.5275,-4.5673,-4.6196,-4.5939,-4.5984,-4.6261,-4.594,-4.5771,-4.5788,-4.5788,-4.5771,-4.5754,-4.4976,-4.457,-4.457,-4.4231,-4.4045,-4.4045,-4.369,-4.3318,-4.2912,-4.2912,-4.2709,-4.2303,-4.1982,-4.1796,-4.1796,-4.1457,-4.1288,-4.1288,-4.1271,-4.1392,-4.1563,-4.1915,-4.2337,-4.2833,-4.3279,-4.3376,-4.3,-4.3177,-4.356,-4.4125,-4.4581,-4.4947,-4.5314,-4.5351,-4.5498,-4.5847,-4.5902,-4.6085,-4.6489,-4.6562,-4.6728,-4.7113,-4.7205,-4.7205,-4.7205,-4.7205,-4.7205,-4.7205,-4.7205,-4.7205,-4.715,-4.6507,-4.5847,-4.5424,-4.5021,-4.4635,-4.425,-4.4158,-4.3975,-4.3589,-4.3479,-4.3479,-4.3479,-4.3497,-4.3497,-4.3479,-4.3479,-4.3479,-4.3479,-4.3479,-4.3479,-4.3479,-4.3479,-4.3479,-4.3479,-4.3479,-4.3479,-5.3518,-5.3433,-5.2841,-5.2469,-5.2249,-5.1691,-5.1031,-5.0355,-5.0168,-4.9779,-4.9272,-4.9086,-4.868,-4.8129,-4.7771,-4.7328,-4.6765,-4.6104,-4.5783,-4.5636,-4.4973,-4.4853,-4.5072,-4.4837,-4.504,-4.5636,-4.5783,-4.6168,-4.6698,-4.6625,-4.6639,-4.6819,-4.6786,-4.6786,-4.6786,-4.6786,-4.6786,-4.6718,-4.5669,-4.501,-4.4823,-4.4671,-4.457,-4.457,-4.4553,-4.4299,-4.3724,-4.3673,-4.3403,-4.2844,-4.2642,-4.2557,-4.254,-4.2371,-4.2303,-4.2303,-4.2303,-4.2356,-4.2567,-4.2979,-4.336,-4.3715,-4.4117,-4.4591,-4.5024,-4.4983,-4.5093,-4.5699,-4.5755,-4.5883,-4.6122,-4.6159,-4.6232,-4.6397,-4.6434,-4.6746,-4.7278,-4.7388,-4.7609,-4.8214,-4.8324,-4.8269,-4.8324,-4.8324,-4.8251,-4.8214,-4.8324,-4.8324,-4.8233,-4.7737,-4.7131,-4.6599,-4.6177,-4.5645,-4.5076,-4.4984,-4.4727,-4.4103,-4.4103,-4.4066,-4.3938,-4.3791,-4.3644,-4.3589,-4.3479,-4.3479,-4.3479,-4.3479,-4.3479,-4.3479,-4.3479,-4.3479,-4.3479,-4.3479,-4.3479,-5.3518,-5.3501,-5.3399,-5.2959,-5.235,-5.2232,-5.1792,-5.1082,-5.0405,-5.0067,-4.9949,-4.9289,-4.8984,-4.8855,-4.8493,-4.8283,-4.8152,-4.7589,-4.7141,-4.6922,-4.6421,-4.6141,-4.6077,-4.6109,-4.6421,-4.6922,-4.7125,-4.7523,-4.8115,-4.7579,-4.716,-4.6794,-4.6786,-4.6836,-4.6819,-4.6819,-4.6802,-4.6802,-4.6667,-4.6278,-4.5602,-4.4925,-4.457,-4.457,-4.4587,-4.4553,-4.4418,-4.4468,-4.4434,-4.4316,-4.3673,-4.3318,-4.325,-4.2675,-4.2303,-4.2337,-4.2337,-4.2392,-4.2688,-4.2928,-4.3331,-4.365,-4.4078,-4.4742,-4.5781,-4.6158,-4.6139,-4.599,-4.5846,-4.6268,-4.6855,-4.7021,-4.726,-4.7792,-4.7921,-4.8122,-4.8122,-4.8196,-4.8214,-4.8288,-4.8324,-4.8324,-4.8324,-4.8324,-4.8324,-4.8324,-4.8324,-4.8324,-4.8306,-4.8196,-4.8067,-4.7774,-4.6929,-4.6049,-4.581,-4.5792,-4.5663,-4.559,-4.5626,-4.5259,-4.4782,-4.4562,-4.4415,-4.4048,-4.3681,-4.3736,-4.3663,-4.3497,-4.3608,-4.3828,-4.3773,-4.3571,-4.3516,-4.3626,-4.3681,-5.3518,-5.3518,-5.3518,-5.3315,-5.3044,-5.301,-5.257,-5.1843,-5.1539,-5.1166,-5.0693,-4.9873,-4.9316,-4.8894,-4.8627,-4.8356,-4.8179,-4.7737,-4.7335,-4.6961,-4.6545,-4.6262,-4.6262,-4.6262,-4.6615,-4.7167,-4.7403,-4.7869,-4.837,-4.8371,-4.827,-4.8122,-4.8105,-4.8088,-4.8088,-4.8105,-4.8105,-4.8088,-4.7682,-4.731,-4.6972,-4.6278,-4.5669,-4.5297,-4.5246,-4.501,-4.4621,-4.457,-4.457,-4.457,-4.4265,-4.4096,-4.4113,-4.3809,-4.3639,-4.3639,-4.3639,-4.3749,-4.3912,-4.4214,-4.4458,-4.4813,-4.519,-4.5729,-4.6417,-4.6677,-4.6794,-4.6935,-4.7101,-4.7403,-4.7716,-4.7791,-4.7957,-4.8269,-4.8324,-4.8324,-4.8324,-4.8324,-4.8324,-4.8324,-4.8324,-4.8324,-4.8324,-4.8324,-4.8324,-4.8324,-4.8324,-4.8324,-4.8324,-4.8324,-4.8324,-4.8233,-4.7682,-4.7168,-4.6746,-4.6617,-4.6434,-4.6067,-4.5902,-4.5681,-4.5553,-4.5406,-4.5259,-4.4911,-4.4819,-4.48,-4.5002,-4.4911,-4.4911,-4.4837,-4.4892,-4.4911,-4.4911,-4.4929,-4.4911,-5.3518,-5.3518,-5.3518,-5.3518,-5.3518,-5.3518,-5.3179,-5.2621,-5.2418,-5.1995,-5.1471,-5.0568,-4.9914,-4.9312,-4.8701,-4.8227,-4.7935,-4.7521,-4.7183,-4.6807,-4.6404,-4.6207,-4.6207,-4.6278,-4.6615,-4.7115,-4.7386,-4.7853,-4.8483,-4.8815,-4.9018,-4.9018,-4.9018,-4.9018,-4.9018,-4.9018,-4.9018,-4.8951,-4.846,-4.8223,-4.8139,-4.7682,-4.6955,-4.6109,-4.5991,-4.5737,-4.5213,-4.4993,-4.4891,-4.4891,-4.4705,-4.457,-4.457,-4.457,-4.457,-4.457,-4.457,-4.4682,-4.4776,-4.5049,-4.5283,-4.5529,-4.5938,-4.6284,-4.6637,-4.6888,-4.716,-4.7493,-4.7866,-4.8032,-4.8187,-4.8247,-4.8286,-4.8324,-4.8324,-4.8324,-4.8324,-4.8324,-4.8324,-4.8324,-4.8324,-4.8324,-4.8324,-4.8324,-4.8324,-4.8324,-4.8324,-4.8324,-4.8324,-4.8324,-4.8324,-4.8324,-4.8288,-4.8067,-4.7572,-4.7443,-4.7113,-4.6856,-4.6673,-4.6617,-4.6324,-4.6232,-4.5975,-4.5608,-4.5847,-4.5847,-4.559,-4.5736,-4.592,-4.5902,-4.5902,-4.5902,-4.5681,-4.5847,-4.5865,-5.3518,-5.3518,-5.3518,-5.3518,-5.3518,-5.3518,-5.3484,-5.3315,-5.2655,-5.2283,-5.2164,-5.1326,-5.0841,-5.0476,-4.8911,-4.8034,-4.7886,-4.7251,-4.6807,-4.6598,-4.6294,-4.6024,-4.5896,-4.6152,-4.6545,-4.6961,-4.7319,-4.7853,-4.8483,-4.8815,-4.9018,-4.9018,-4.9018,-4.9018,-4.9018,-4.9018,-4.9018,-4.8984,-4.8917,-4.8917,-4.8934,-4.8883,-4.8139,-4.6955,-4.6752,-4.6684,-4.6549,-4.6007,-4.5652,-4.5652,-4.501,-4.4604,-4.4604,-4.4587,-4.457,-4.457,-4.457,-4.4626,-4.4793,-4.494,-4.514,-4.5389,-4.5735,-4.6137,-4.6429,-4.6731,-4.6998,-4.7241,-4.7547,-4.7824,-4.8108,-4.8148,-4.8226,-4.8267,-4.8306,-4.8306,-4.8324,-4.8324,-4.8324,-4.8324,-4.8324,-4.8324,-4.8324,-4.8324,-4.8324,-4.8324,-4.8324,-4.8324,-4.8324,-4.8324,-4.8324,-4.8324,-4.8324,-4.8288,-4.8251,-4.8067,-4.8086,-4.7884,-4.7609,-4.781,-4.7407,-4.6985,-4.6599,-4.6305,-4.6324,-4.625,-4.6012,-4.5993,-4.614,-4.6214,-4.6269,-4.625,-4.6507,-4.6085,-4.6159,-5.3518,-5.3518,-5.3518,-5.3518,-5.3518,-5.3518,-5.3518,-5.3484,-5.3213,-5.3061,-5.2876,-5.2001,-5.1464,-5.1363,-4.9755,-4.8721,-4.8125,-4.731,-4.6684,-4.6278,-4.6168,-4.5968,-4.5896,-4.6136,-4.6545,-4.6892,-4.7335,-4.7853,-4.8467,-4.8798,-4.9018,-4.9018,-4.9018,-4.9018,-4.9018,-4.9018,-4.9018,-4.9018,-4.9018,-4.9018,-4.9018,-4.9018,-4.8714,-4.8223,-4.775,-4.7276,-4.6802,-4.6532,-4.6413,-4.6397,-4.5703,-4.5297,-4.5246,-4.484,-4.457,-4.457,-4.457,-4.4626,-4.4682,-4.4776,-4.4978,-4.523,-4.5494,-4.5837,-4.6204,-4.6381,-4.659,-4.6888,-4.7116,-4.7381,-4.7621,-4.787,-4.8148,-4.8226,-4.8208,-4.8247,-4.8286,-4.8324,-4.8324,-4.8324,-4.8324,-4.8324,-4.8324,-4.8324,-4.8324,-4.8324,-4.8324,-4.8324,-4.8324,-4.8324,-4.8324,-4.8324,-4.8324,-4.8324,-4.8324,-4.8306,-4.8306,-4.8306,-4.8214,-4.8159,-4.7865,-4.7792,-4.748,-4.737,-4.7223,-4.7168,-4.7113,-4.7131,-4.715,-4.7205,-4.7223,-4.7095,-4.7462,-4.7113,-4.7205,-5.3518,-5.3518,-5.3518,-5.3518,-5.3518,-5.3518,-5.3518,-5.3518,-5.3518,-5.3518,-5.3332,-5.2504,-5.215,-5.1879,-5.0624,-4.9573,-4.879,-4.7632,-4.6811,-4.6398,-4.6135,-4.5952,-4.5952,-4.6223,-4.6545,-4.703,-4.7571,-4.8115,-4.8564,-4.8861,-4.9001,-4.9018,-4.9018,-4.9018,-4.9018,-4.9018,-4.9018,-4.9018,-4.9018,-4.9018,-4.9018,-4.9018,-4.9018,-4.8934,-4.8528,-4.8037,-4.7513,-4.7293,-4.7158,-4.7073,-4.6447,-4.6058,-4.5991,-4.5348,-4.4942,-4.4925,-4.4705,-4.457,-4.4626,-4.4737,-4.4886,-4.5103,-4.5283,-4.558,-4.592,-4.6087,-4.6332,-4.659,-4.6824,-4.7007,-4.7232,-4.7536,-4.7829,-4.801,-4.809,-4.8169,-4.8247,-4.8286,-4.8286,-4.8324,-4.8324,-4.8324,-4.8324,-4.8324,-4.8324,-4.8324,-4.8324,-4.8324,-4.8324,-4.8324,-4.8324,-4.8324,-4.8324,-4.8324,-4.8324,-4.8324,-4.8324,-4.8324,-4.8324,-4.8324,-4.8324,-4.8324,-4.8324,-4.8324,-4.8324,-4.8324,-4.8324,-4.8324,-4.8324,-4.8324,-4.8104,-4.7847,-4.8067,-4.8196,-4.8049,-5.3518,-5.3518,-5.3518,-5.3518,-5.3518,-5.3518,-5.3518,-5.3518,-5.3518,-5.3518,-5.3416,-5.2991,-5.2769,-5.2564,-5.1317,-5.0431,-4.9848,-4.8369,-4.7349,-4.6971,-4.6212,-4.5927,-4.6112,-4.6278,-4.6684,-4.7251,-4.8098,-4.8564,-4.8786,-4.894,-4.9018,-4.9018,-4.9018,-4.9018,-4.9018,-4.9018,-4.9018,-4.9018,-4.9018,-4.9018,-4.9018,-4.9018,-4.9018,-4.9018,-4.8951,-4.89,-4.8883,-4.8274,-4.7919,-4.7851,-4.7208,-4.6819,-4.6633,-4.6075,-4.5703,-4.5602,-4.506,-4.4688,-4.4744,-4.4856,-4.4912,-4.4988,-4.5228,-4.5389,-4.5529,-4.5887,-4.6186,-4.6284,-4.6631,-4.6913,-4.7105,-4.7375,-4.7587,-4.771,-4.7911,-4.805,-4.8187,-4.8187,-4.8208,-4.8267,-4.8324,-4.8324,-4.8324,-4.8324,-4.8324,-4.8324,-4.8324,-4.8324,-4.8324,-4.8324,-4.8324,-4.8324,-4.8324,-4.8324,-4.8324,-4.8324,-4.8324,-4.8324,-4.8324,-4.8324,-4.8324,-4.8324,-4.8324,-4.8324,-4.8324,-4.8324,-4.8324,-4.8324,-4.8324,-4.8324,-4.8324,-4.8324,-4.8324,-4.8324,-4.8324,-5.3518,-5.3518,-5.3518,-5.3518,-5.3518,-5.3518,-5.3518,-5.3518,-5.3518,-5.3518,-5.3433,-5.3058,-5.2903,-5.2661,-5.1878,-5.1288,-5.0985,-4.9544,-4.8185,-4.7062,-4.6655,-4.6307,-4.6176,-4.6404,-4.6945,-4.7721,-4.8244,-4.8627,-4.8769,-4.8956,-4.9018,-4.9018,-4.9018,-4.9018,-4.9018,-4.9018,-4.9018,-4.9018,-4.9018,-4.9018,-4.9018,-4.9018,-4.9018,-4.9018,-4.9018,-4.9018,-4.9001,-4.8781,-4.868,-4.8629,-4.797,-4.7344,-4.687,-4.6583,-4.6464,-4.6447,-4.6261,-4.6109,-4.6024,-4.5676,-4.5462,-4.5473,-4.532,-4.5211,-4.5389,-4.5753,-4.6025,-4.6178,-4.6843,-4.7439,-4.7606,-4.8224,-4.8335,-4.7808,-4.7783,-4.7997,-4.8294,-4.8339,-4.8286,-4.8324,-4.8324,-4.8324,-4.8324,-4.8343,-4.8379,-4.8324,-4.8324,-4.8324,-4.8324,-4.8324,-4.8324,-4.8324,-4.8324,-4.8324,-4.8324,-4.8324,-4.8324,-4.8324,-4.8324,-4.8324,-4.8324,-4.8324,-4.8324,-4.8324,-4.8324,-4.8324,-4.8324,-4.8324,-4.8324,-4.8324,-4.8324,-4.8324,-4.8324,-4.8324,-4.8324,-5.3518,-5.3518,-5.3518,-5.3518,-5.3518,-5.3518,-5.3518,-5.3518,-5.3518,-5.3518,-5.3433,-5.3058,-5.2903,-5.2764,-5.2125,-5.1721,-5.1376,-5.0456,-4.9186,-4.7802,-4.7093,-4.6786,-4.6733,-4.692,-4.7354,-4.7984,-4.8436,-4.8707,-4.8894,-4.894,-4.9018,-4.9018,-4.9018,-4.9018,-4.9018,-4.9018,-4.9018,-4.9018,-4.9018,-4.9018,-4.9018,-4.9018,-4.9018,-4.9018,-4.9018,-4.9018,-4.9018,-4.9018,-4.9018,-4.8934,-4.8545,-4.8088,-4.7631,-4.7394,-4.7208,-4.7158,-4.6938,-4.6769,-4.6735,-4.6329,-4.6167,-4.6221,-4.5976,-4.5997,-4.6251,-4.6517,-4.6725,-4.6966,-4.7588,-4.8088,-4.8289,-4.8821,-4.8977,-4.8558,-4.8573,-4.8672,-4.8944,-4.9163,-4.926,-4.9334,-4.9297,-4.9095,-4.8857,-4.8765,-4.8618,-4.8434,-4.8324,-4.8324,-4.8324,-4.8324,-4.8324,-4.8324,-4.8324,-4.8324,-4.8324,-4.8324,-4.8324,-4.8324,-4.8324,-4.8324,-4.8324,-4.8324,-4.8324,-4.8324,-4.8324,-4.8324,-4.8324,-4.8324,-4.8324,-4.8324,-4.8324,-4.8324,-4.8324,-4.8324,-4.8324,-5.3518,-5.3518,-5.3518,-5.3518,-5.3518,-5.3518,-5.3518,-5.3518,-5.3518,-5.3518,-5.3433,-5.3127,-5.2903,-5.2764,-5.2197,-5.1778,-5.1499,-5.1075,-5.0386,-4.9336,-4.8243,-4.7581,-4.7619,-4.7596,-4.7836,-4.8227,-4.8564,-4.8832,-4.9018,-4.9001,-4.9018,-4.9018,-4.9018,-4.9018,-4.9018,-4.9018,-4.9018,-4.9018,-4.9018,-4.9018,-4.9018,-4.9018,-4.9018,-4.9018,-4.9018,-4.9018,-4.9018,-4.9018,-4.9018,-4.9001,-4.8934,-4.8866,-4.8815,-4.8325,-4.797,-4.797,-4.731,-4.7124,-4.6989,-4.6938,-4.6912,-4.7053,-4.6999,-4.7329,-4.7441,-4.7627,-4.7893,-4.8102,-4.8588,-4.8915,-4.8997,-4.9376,-4.9633,-4.9826,-4.9767,-4.9898,-5.0302,-5.0515,-5.0468,-5.06,-5.0729,-5.0527,-4.9719,-4.9646,-4.926,-4.8728,-4.8508,-4.8526,-4.8324,-4.8324,-4.8324,-4.8324,-4.8324,-4.8324,-4.8324,-4.8324,-4.8324,-4.8324,-4.8324,-4.8324,-4.8324,-4.8324,-4.8324,-4.8324,-4.8324,-4.8324,-4.8324,-4.8324,-4.8324,-4.8324,-4.8324,-4.8324,-4.8324,-4.8324,-4.8324,-5.3518,-5.3518,-5.3518,-5.3518,-5.3518,-5.3518,-5.3518,-5.3518,-5.3518,-5.3518,-5.3433,-5.328,-5.3041,-5.2834,-5.2395,-5.2053,-5.1721,-5.135,-5.1059,-5.0645,-4.9763,-4.8828,-4.8204,-4.8,-4.8115,-4.842,-4.8707,-4.8832,-4.9018,-4.9018,-4.9018,-4.9018,-4.9018,-4.9018,-4.9018,-4.9018,-4.9018,-4.9018,-4.9018,-4.9018,-4.9018,-4.9018,-4.9018,-4.9018,-4.9018,-4.9018,-4.9018,-4.9018,-4.9018,-4.9018,-4.9018,-4.9018,-4.8984,-4.8781,-4.8646,-4.8612,-4.8511,-4.8376,-4.8274,-4.7902,-4.7674,-4.775,-4.7568,-4.7329,-4.7683,-4.8064,-4.833,-4.8626,-4.9201,-4.9844,-5.0016,-5.0574,-5.1124,-5.1423,-5.0886,-5.0435,-5.0545,-5.062,-5.082,-5.082,-5.0894,-5.0765,-5.06,-5.0453,-5.016,-4.9499,-4.9205,-4.9003,-4.8673,-4.8453,-4.8526,-4.8361,-4.8324,-4.8324,-4.8324,-4.8324,-4.8324,-4.8324,-4.8324,-4.8324,-4.8324,-4.8324,-4.8324,-4.8324,-4.8324,-4.8324,-4.8324,-4.8324,-4.8324,-4.8324,-4.8324,-4.8324,-4.8324,-4.8324,-4.8324,-5.3518,-5.3518,-5.3518,-5.3518,-5.3518,-5.3518,-5.3518,-5.3518,-5.3518,-5.3518,-5.3433,-5.3264,-5.311,-5.2903,-5.2466,-5.2197,-5.1941,-5.1557,-5.1483,-5.1352,-5.0814,-4.9845,-4.8787,-4.8266,-4.8244,-4.8627,-4.8832,-4.8956,-4.9018,-4.9018,-4.9018,-4.9018,-4.9018,-4.9018,-4.9018,-4.9018,-4.9018,-4.9018,-4.9018,-4.9018,-4.9018,-4.9018,-4.9018,-4.9018,-4.9018,-4.9018,-4.9018,-4.9018,-4.9018,-4.9018,-4.9018,-4.9018,-4.9018,-4.9018,-4.9018,-4.9018,-4.9018,-4.8984,-4.8951,-4.8595,-4.8514,-4.8592,-4.836,-4.8495,-4.8834,-4.9166,-4.9433,-4.9836,-5.0429,-5.0791,-5.1066,-5.1607,-5.2018,-5.2177,-5.1809,-5.1377,-5.142,-5.1724,-5.177,-5.1811,-5.1793,-5.1646,-5.1389,-5.1316,-5.0894,-5.0362,-5.0105,-4.9646,-4.9114,-4.893,-4.8691,-4.8545,-4.8398,-4.8398,-4.8343,-4.8324,-4.8324,-4.8324,-4.8324,-4.8324,-4.8324,-4.8324,-4.8324,-4.8324,-4.8324,-4.8324,-4.8324,-4.8324,-4.8324,-4.8324,-4.8324,-4.8324,-4.8324,-4.8324,-4.8324,-5.3518,-5.3518,-5.3518,-5.3518,-5.3518,-5.3518,-5.3518,-5.3518,-5.3518,-5.3518,-5.3433,-5.3332,-5.3127,-5.2903,-5.2677,-5.234,-5.2086,-5.1924,-5.1835,-5.1694,-5.1333,-5.0568,-4.9658,-4.891,-4.862,-4.8803,-4.8956,-4.9018,-4.9018,-4.9018,-4.9018,-4.9018,-4.9018,-4.9018,-4.9018,-4.9018,-4.9018,-4.9018,-4.9018,-4.9018,-4.9018,-4.9018,-4.9018,-4.9018,-4.9018,-4.9018,-4.9018,-4.9018,-4.9018,-4.9018,-4.9018,-4.9018,-4.9018,-4.9018,-4.9018,-4.9018,-4.9018,-4.9018,-4.9018,-4.8951,-4.9057,-4.9308,-4.9487,-4.9924,-5.015,-5.0412,-5.0717,-5.1031,-5.1571,-5.1633,-5.1848,-5.2168,-5.2358,-5.2508,-5.2626,-5.2769,-5.285,-5.306,-5.3206,-5.3206,-5.3151,-5.2821,-5.2399,-5.205,-5.183,-5.1096,-5.0875,-5.049,-5.0013,-4.9738,-4.9279,-4.8728,-4.86,-4.8489,-4.8398,-4.8324,-4.8324,-4.8324,-4.8324,-4.8324,-4.8324,-4.8324,-4.8324,-4.8324,-4.8324,-4.8324,-4.8324,-4.8324,-4.8324,-4.8324,-4.8324,-4.8324,-4.8324,-4.8324,-4.8324,-5.3518,-5.3518,-5.3518,-5.3518,-5.3518,-5.3518,-5.3518,-5.3518,-5.3518,-5.3518,-5.3501,-5.3433,-5.3348,-5.3093,-5.2972,-5.2764,-5.2324,-5.2252,-5.2164,-5.2137,-5.1632,-5.151,-5.1028,-5.0154,-4.9312,-4.9034,-4.8956,-4.9001,-4.9018,-4.9018,-4.9018,-4.9018,-4.9018,-4.9018,-4.9018,-4.9018,-4.9018,-4.9018,-4.9018,-4.9018,-4.9018,-4.9018,-4.9018,-4.9018,-4.9018,-4.9018,-4.9018,-4.9018,-4.9018,-4.9018,-4.9018,-4.9018,-4.9018,-4.9018,-4.9018,-4.9018,-4.9018,-4.9018,-4.9018,-4.9001,-4.9141,-4.9488,-4.9649,-4.9924,-5.0492,-5.0855,-5.1176,-5.1556,-5.1758,-5.2005,-5.2293,-5.2405,-5.2544,-5.269,-5.2868,-5.2937,-5.2999,-5.3121,-5.3164,-5.3206,-5.3206,-5.3133,-5.2949,-5.2858,-5.2509,-5.1903,-5.1573,-5.1334,-5.0967,-5.0582,-5.0031,-4.9407,-4.904,-4.893,-4.8636,-4.8489,-4.8324,-4.8324,-4.8324,-4.8324,-4.8324,-4.8324,-4.8324,-4.8324,-4.8324,-4.8324,-4.8324,-4.8324,-4.8324,-4.8324,-4.8324,-4.8324,-4.8324,-4.8324,-4.8324,-5.3518,-5.3518,-5.3518,-5.3518,-5.3518,-5.3518,-5.3518,-5.3518,-5.3518,-5.3518,-5.3518,-5.3518,-5.3416,-5.3179,-5.3179,-5.2956,-5.2677,-5.2607,-5.2607,-5.2524,-5.2313,-5.2218,-5.185,-5.1056,-5.0143,-4.9468,-4.9092,-4.9035,-4.9018,-4.9018,-4.9018,-4.9018,-4.9018,-4.9018,-4.9018,-4.9018,-4.9018,-4.9018,-4.9018,-4.9018,-4.9018,-4.9018,-4.9018,-4.9018,-4.9018,-4.9018,-4.9018,-4.9018,-4.9018,-4.9018,-4.9018,-4.9018,-4.9018,-4.9018,-4.9018,-4.9018,-4.9018,-4.9018,-4.9018,-4.9001,-4.9124,-4.9488,-4.9708,-5.0097,-5.0547,-5.1017,-5.1402,-5.1758,-5.2054,-5.234,-5.2618,-5.2663,-5.2735,-5.2868,-5.2955,-5.306,-5.3103,-5.3164,-5.3206,-5.3206,-5.3206,-5.3206,-5.3206,-5.3206,-5.3115,-5.2509,-5.2491,-5.2234,-5.1683,-5.1279,-5.0894,-5.0325,-4.9774,-4.937,-4.9003,-4.8691,-4.8343,-4.8324,-4.8324,-4.8324,-4.8324,-4.8324,-4.8324,-4.8324,-4.8324,-4.8324,-4.8324,-4.8324,-4.8324,-4.8324,-4.8324,-4.8324,-4.8324,-4.8324,-4.8324,-5.3518,-5.3518,-5.3518,-5.3518,-5.3518,-5.3518,-5.3518,-5.3518,-5.3518,-5.3518,-5.3518,-5.3518,-5.3416,-5.3264,-5.3264,-5.3127,-5.2972,-5.2903,-5.2903,-5.2922,-5.306,-5.2808,-5.232,-5.1727,-5.1099,-5.0355,-4.9441,-4.9052,-4.9018,-4.9018,-4.9018,-4.9018,-4.9018,-4.9018,-4.9018,-4.9018,-4.9018,-4.9018,-4.9018,-4.9018,-4.9018,-4.9018,-4.9018,-4.9018,-4.9018,-4.9018,-4.9018,-4.9018,-4.9018,-4.9018,-4.9018,-4.9018,-4.9018,-4.9018,-4.9018,-4.9018,-4.9018,-4.9018,-4.9001,-4.9063,-4.9168,-4.9471,-4.9767,-5.0154,-5.064,-5.1158,-5.1538,-5.1938,-5.2228,-5.2572,-5.2779,-5.2824,-5.2912,-5.2999,-5.3042,-5.3103,-5.3164,-5.3206,-5.3206,-5.3206,-5.3206,-5.3206,-5.3206,-5.3206,-5.3206,-5.3206,-5.3188,-5.3041,-5.2454,-5.2032,-5.1665,-5.1298,-5.0765,-4.9866,-4.9407,-4.915,-4.8765,-4.8398,-4.8379,-4.8343,-4.8343,-4.8324,-4.8324,-4.8324,-4.8324,-4.8324,-4.8324,-4.8324,-4.8324,-4.8324,-4.8324,-4.8324,-4.8324,-4.8324,-4.8324,-5.3518,-5.3518,-5.3518,-5.3518,-5.3518,-5.3518,-5.3518,-5.3518,-5.3518,-5.3518,-5.3518,-5.3518,-5.3501,-5.3416,-5.3433,-5.3348,-5.3195,-5.3127,-5.3127,-5.3195,-5.3348,-5.3247,-5.3028,-5.2367,-5.1961,-5.142,-5.0135,-4.912,-4.9086,-4.9018,-4.9018,-4.9018,-4.9018,-4.9018,-4.9018,-4.9018,-4.9018,-4.9018,-4.9018,-4.9018,-4.9018,-4.9018,-4.9018,-4.9018,-4.9018,-4.9018,-4.9018,-4.9018,-4.9018,-4.9018,-4.9018,-4.9018,-4.9018,-4.9018,-4.9018,-4.9018,-4.9018,-4.9001,-4.9001,-4.9107,-4.9229,-4.9547,-4.9901,-5.0341,-5.0766,-5.1211,-5.169,-5.2066,-5.2397,-5.2698,-5.2955,-5.2955,-5.306,-5.3103,-5.3164,-5.3164,-5.3164,-5.3206,-5.3206,-5.3206,-5.3206,-5.3206,-5.3206,-5.3206,-5.3206,-5.3206,-5.3206,-5.3188,-5.2913,-5.2692,-5.2527,-5.216,-5.1793,-5.0765,-4.9811,-4.9591,-4.9279,-4.8691,-4.8526,-4.8416,-4.8398,-4.8343,-4.8324,-4.8324,-4.8324,-4.8324,-4.8324,-4.8324,-4.8324,-4.8324,-4.8324,-4.8324,-4.8324,-4.8324,-4.8324,-5.3518,-5.3518,-5.3518,-5.3518,-5.3518,-5.3518,-5.3518,-5.3518,-5.3518,-5.3518,-5.3518,-5.3518,-5.3518,-5.3518,-5.3518,-5.3433,-5.3348,-5.3348,-5.3348,-5.3416,-5.3433,-5.3518,-5.3416,-5.2672,-5.2384,-5.1809,-5.049,-4.9576,-4.9509,-4.9154,-4.9035,-4.9018,-4.9018,-4.9018,-4.9018,-4.9018,-4.9018,-4.9018,-4.9018,-4.9018,-4.9018,-4.9018,-4.9018,-4.9018,-4.9018,-4.9018,-4.9018,-4.9018,-4.9018,-4.9018,-4.9018,-4.9018,-4.9018,-4.9018,-4.9001,-4.9001,-4.9001,-4.9063,-4.9063,-4.9168,-4.935,-4.9708,-5.0057,-5.0492,-5.0982,-5.147,-5.1907,-5.2351,-5.2627,-5.2893,-5.3103,-5.3103,-5.3146,-5.3164,-5.3206,-5.3206,-5.3206,-5.3206,-5.3206,-5.3206,-5.3206,-5.3206,-5.3206,-5.3206,-5.3206,-5.3206,-5.3206,-5.3206,-5.3206,-5.3115,-5.2968,-5.2729,-5.2289,-5.1481,-5.0563,-5.0288,-4.9903,-4.9279,-4.893,-4.8838,-4.8581,-4.8581,-4.8434,-4.8324,-4.8324,-4.8324,-4.8324,-4.8324,-4.8324,-4.8324,-4.8324,-4.8324,-4.8324,-4.8324,-4.8324,-5.3518,-5.3518,-5.3518,-5.3518,-5.3518,-5.3518,-5.3518,-5.3518,-5.3518,-5.3518,-5.3518,-5.3518,-5.3518,-5.3518,-5.3518,-5.3518,-5.3518,-5.3518,-5.3501,-5.3501,-5.3518,-5.3518,-5.3315,-5.2959,-5.2604,-5.2486,-5.1369,-5.0371,-4.9881,-4.9323,-4.9052,-4.9018,-4.9018,-4.9018,-4.9018,-4.9018,-4.9018,-4.9018,-4.9018,-4.9018,-4.9018,-4.9018,-4.9018,-4.9018,-4.9018,-4.9018,-4.9018,-4.9018,-4.9018,-4.9018,-4.9018,-4.9018,-4.9018,-4.9018,-4.9001,-4.9063,-4.9063,-4.9107,-4.9168,-4.935,-4.9573,-4.9942,-5.0268,-5.0694,-5.1245,-5.1722,-5.2246,-5.2717,-5.2893,-5.3042,-5.3164,-5.3164,-5.3206,-5.3206,-5.3206,-5.3206,-5.3206,-5.3206,-5.3206,-5.3206,-5.3206,-5.3206,-5.3206,-5.3206,-5.3206,-5.3206,-5.3206,-5.3206,-5.3206,-5.3206,-5.3096,-5.3004,-5.2637,-5.2013,-5.1426,-5.1132,-5.0637,-5.0013,-4.9793,-4.9719,-4.926,-4.8875,-4.8746,-4.8691,-4.8324,-4.8324,-4.8324,-4.8324,-4.8324,-4.8324,-4.8324,-4.8324,-4.8324,-4.8324,-4.8324,-5.3518,-5.3518,-5.3518,-5.3518,-5.3518,-5.3518,-5.3518,-5.3518,-5.3518,-5.3518,-5.3518,-5.3518,-5.3518,-5.3518,-5.3518,-5.3518,-5.3518,-5.3518,-5.3518,-5.3518,-5.3518,-5.3518,-5.3518,-5.345,-5.323,-5.3027,-5.2317,-5.1285,-5.0405,-4.9543,-4.9035,-4.9035,-4.9018,-4.9018,-4.9018,-4.9018,-4.9018,-4.9018,-4.9018,-4.9018,-4.9018,-4.9018,-4.9018,-4.9018,-4.9018,-4.9018,-4.9018,-4.9018,-4.9018,-4.9018,-4.9018,-4.9018,-4.9018,-4.9018,-4.9063,-4.9124,-4.9168,-4.9168,-4.929,-4.959,-4.9866,-5.0211,-5.0547,-5.0982,-5.1521,-5.2066,-5.2508,-5.2717,-5.2893,-5.3042,-5.3164,-5.3206,-5.3206,-5.3206,-5.3206,-5.3206,-5.3206,-5.3206,-5.3206,-5.3206,-5.3206,-5.3206,-5.3206,-5.3206,-5.3206,-5.3206,-5.3206,-5.3206,-5.3206,-5.3206,-5.3206,-5.3115,-5.3059,-5.2491,-5.2215,-5.1922,-5.1426,-5.0765,-5.0655,-5.0545,-5.0031,-4.9572,-4.9407,-4.9242,-4.8802,-4.8379,-4.8324,-4.8324,-4.8324,-4.8324,-4.8324,-4.8324,-4.8324,-4.8324,-4.8324,-5.3518,-5.3518,-5.3518,-5.3518,-5.3518,-5.3518,-5.3518,-5.3518,-5.3518,-5.3518,-5.3518,-5.3518,-5.3518,-5.3518,-5.3518,-5.3518,-5.3518,-5.3518,-5.3518,-5.3518,-5.3518,-5.3518,-5.3518,-5.3501,-5.3518,-5.3298,-5.2739,-5.208,-5.1099,-5.0168,-4.9475,-4.9069,-4.9018,-4.9018,-4.9018,-4.9018,-4.9018,-4.9018,-4.9018,-4.9018,-4.9018,-4.9018,-4.9018,-4.9018,-4.9018,-4.9018,-4.9018,-4.9018,-4.9018,-4.9018,-4.9018,-4.9018,-4.9018,-4.9001,-4.9063,-4.9168,-4.9411,-4.9513,-4.9632,-4.9866,-5.0211,-5.0547,-5.0928,-5.1487,-5.1987,-5.2415,-5.2735,-5.2912,-5.306,-5.3146,-5.3164,-5.3206,-5.3206,-5.3206,-5.3206,-5.3206,-5.3206,-5.3206,-5.3206,-5.3206,-5.3206,-5.3206,-5.3206,-5.3206,-5.3206,-5.3206,-5.3206,-5.3206,-5.3206,-5.3206,-5.3206,-5.3188,-5.3151,-5.3004,-5.2876,-5.2692,-5.2215,-5.1701,-5.1499,-5.1279,-5.0765,-5.0398,-5.0215,-4.9811,-4.9315,-4.8912,-4.8508,-4.8324,-4.8324,-4.8324,-4.8324,-4.8324,-4.8324,-4.8324,-4.8324,-5.3518,-5.3518,-5.3518,-5.3518,-5.3518,-5.3518,-5.3518,-5.3518,-5.3518,-5.3518,-5.3518,-5.3518,-5.3518,-5.3518,-5.3518,-5.3518,-5.3518,-5.3518,-5.3518,-5.3518,-5.3518,-5.3518,-5.3518,-5.3518,-5.3518,-5.3501,-5.3027,-5.2469,-5.1894,-5.1048,-5.0016,-4.9289,-4.9103,-4.9035,-4.9018,-4.9018,-4.9018,-4.9018,-4.9018,-4.9018,-4.9018,-4.9018,-4.9018,-4.9018,-4.9018,-4.9018,-4.9018,-4.9018,-4.9018,-4.9018,-4.9018,-4.9018,-4.9001,-4.9063,-4.9124,-4.929,-4.9573,-4.9866,-5.004,-5.0268,-5.0547,-5.0982,-5.147,-5.1938,-5.2322,-5.269,-5.285,-5.2999,-5.3103,-5.3164,-5.3206,-5.3206,-5.3206,-5.3206,-5.3206,-5.3206,-5.3206,-5.3206,-5.3206,-5.3206,-5.3206,-5.3206,-5.3206,-5.3206,-5.3206,-5.3206,-5.3206,-5.3206,-5.3206,-5.3206,-5.3206,-5.3206,-5.3188,-5.317,-5.3151,-5.3023,-5.2692,-5.2527,-5.2325,-5.216,-5.172,-5.1298,-5.1004,-5.0508,-4.9939,-4.9389,-4.8967,-4.8636,-4.8324,-4.8324,-4.8324,-4.8324,-4.8324,-4.8324,-4.8324,-5.3518,-5.3518,-5.3518,-5.3518,-5.3518,-5.3518,-5.3518,-5.3518,-5.3518,-5.3518,-5.3518,-5.3518,-5.3518,-5.3518,-5.3518,-5.3518,-5.3518,-5.3518,-5.3518,-5.3518,-5.3518,-5.3518,-5.3518,-5.3518,-5.3518,-5.3518,-5.3264,-5.2892,-5.23,-5.1505,-5.0676,-5.005,-4.934,-4.9103,-4.9018,-4.9018,-4.9018,-4.9018,-4.9018,-4.9018,-4.9018,-4.9018,-4.9018,-4.9018,-4.9018,-4.9018,-4.9018,-4.9018,-4.9018,-4.9018,-4.9018,-4.9001,-4.9063,-4.9107,-4.9246,-4.953,-4.975,-5.0097,-5.0418,-5.0694,-5.0982,-5.1452,-5.192,-5.234,-5.2572,-5.2824,-5.2937,-5.298,-5.3164,-5.3164,-5.3206,-5.3206,-5.3206,-5.3206,-5.3206,-5.3206,-5.3206,-5.3206,-5.3206,-5.3206,-5.3206,-5.3206,-5.3206,-5.3206,-5.3206,-5.3206,-5.3206,-5.3206,-5.3206,-5.3206,-5.3206,-5.3206,-5.3206,-5.3206,-5.3206,-5.3059,-5.2931,-5.2913,-5.2803,-5.2876,-5.2839,-5.238,-5.1811,-5.1279,-5.0729,-5.0068,-4.9407,-4.9022,-4.8673,-4.8416,-4.8324,-4.8324,-4.8324,-4.8324,-4.8324,-5.3518,-5.3518,-5.3518,-5.3518,-5.3518,-5.3518,-5.3518,-5.3518,-5.3518,-5.3518,-5.3518,-5.3518,-5.3518,-5.3518,-5.3518,-5.3518,-5.3518,-5.3518,-5.3518,-5.3518,-5.3518,-5.3518,-5.3518,-5.3518,-5.3518,-5.3518,-5.3484,-5.3433,-5.301,-5.1877,-5.1234,-5.0507,-4.961,-4.9137,-4.9018,-4.9018,-4.9018,-4.9018,-4.9018,-4.9018,-4.9018,-4.9018,-4.9018,-4.9018,-4.9018,-4.9018,-4.9018,-4.9018,-4.9018,-4.9001,-4.9001,-4.9063,-4.9124,-4.9168,-4.9411,-4.9708,-5.0057,-5.0436,-5.0857,-5.107,-5.1383,-5.1987,-5.2387,-5.2572,-5.2753,-5.2955,-5.3042,-5.3103,-5.3164,-5.3206,-5.3206,-5.3206,-5.3206,-5.3206,-5.3206,-5.3206,-5.3206,-5.3206,-5.3206,-5.3206,-5.3206,-5.3206,-5.3206,-5.3206,-5.3206,-5.3206,-5.3206,-5.3206,-5.3206,-5.3206,-5.3206,-5.3206,-5.3206,-5.3206,-5.3206,-5.3206,-5.3206,-5.3206,-5.3206,-5.3206,-5.3206,-5.3151,-5.2582,-5.2068,-5.1463,-5.0784,-5.0105,-4.9462,-4.8967,-4.8508,-4.8343,-4.8324,-4.8324,-4.8324,-4.8324,-5.3518,-5.3518,-5.3518,-5.3518,-5.3518,-5.3518,-5.3518,-5.3518,-5.3518,-5.3518,-5.3518,-5.3518,-5.3518,-5.3518,-5.3518,-5.3518,-5.3518,-5.3518,-5.3518,-5.3518,-5.3518,-5.3518,-5.3518,-5.3518,-5.3518,-5.3518,-5.3518,-5.3467,-5.3365,-5.2131,-5.1505,-5.0862,-5.0016,-4.9424,-4.9018,-4.9018,-4.9018,-4.9018,-4.9018,-4.9018,-4.9018,-4.9018,-4.9018,-4.9018,-4.9018,-4.9018,-4.9018,-4.9018,-4.9018,-4.9001,-4.9063,-4.9124,-4.9229,-4.935,-4.959,-4.9942,-5.0341,-5.0766,-5.1193,-5.1604,-5.1853,-5.234,-5.2618,-5.2779,-5.2955,-5.3042,-5.3103,-5.3164,-5.3206,-5.3206,-5.3206,-5.3206,-5.3206,-5.3206,-5.3206,-5.3206,-5.3206,-5.3206,-5.3206,-5.3206,-5.3206,-5.3206,-5.3206,-5.3206,-5.3206,-5.3206,-5.3206,-5.3206,-5.3206,-5.3206,-5.3206,-5.3206,-5.3206,-5.3206,-5.3206,-5.3206,-5.3206,-5.3206,-5.3206,-5.3206,-5.3206,-5.3206,-5.3151,-5.2656,-5.205,-5.1444,-5.0765,-5.0068,-4.9242,-4.8453,-4.8361,-4.8324,-4.8324,-4.8324,-4.8324,-5.3518,-5.3518,-5.3518,-5.3518,-5.3518,-5.3518,-5.3518,-5.3518,-5.3518,-5.3518,-5.3518,-5.3518,-5.3518,-5.3518,-5.3518,-5.3518,-5.3518,-5.3518,-5.3518,-5.3518,-5.3518,-5.3518,-5.3518,-5.3518,-5.3518,-5.3518,-5.3518,-5.3518,-5.3501,-5.2536,-5.1877,-5.1099,-5.0219,-4.9509,-4.9052,-4.9018,-4.9018,-4.9018,-4.9018,-4.9018,-4.9018,-4.9018,-4.9018,-4.9018,-4.9018,-4.9018,-4.9018,-4.9018,-4.9018,-4.9001,-4.9124,-4.9168,-4.929,-4.9649,-4.9942,-5.0228,-5.0602,-5.1052,-5.1505,-5.2102,-5.2434,-5.259,-5.2798,-5.2955,-5.2999,-5.3103,-5.3164,-5.3206,-5.3206,-5.3206,-5.3206,-5.3206,-5.3206,-5.3206,-5.3206,-5.3206,-5.3206,-5.3206,-5.3206,-5.3206,-5.3206,-5.3206,-5.3206,-5.3206,-5.3206,-5.3206,-5.3206,-5.3206,-5.3206,-5.3206,-5.3206,-5.3206,-5.3206,-5.3206,-5.3206,-5.3206,-5.3206,-5.3206,-5.3206,-5.3206,-5.3206,-5.3206,-5.3133,-5.3023,-5.2656,-5.2032,-5.1353,-5.0637,-4.9572,-4.8545,-4.8379,-4.8324,-4.8324,-4.8324,-4.8324,-5.3518,-5.3518,-5.3518,-5.3518,-5.3518,-5.3518,-5.3518,-5.3518,-5.3518,-5.3518,-5.3518,-5.3518,-5.3518,-5.3518,-5.3518,-5.3518,-5.3518,-5.3518,-5.3518,-5.3518,-5.3518,-5.3518,-5.3518,-5.3518,-5.3518,-5.3518,-5.3518,-5.3501,-5.3501,-5.2773,-5.1961,-5.115,-5.0168,-4.9323,-4.9069,-4.9018,-4.9018,-4.9018,-4.9018,-4.9018,-4.9018,-4.9018,-4.9018,-4.9018,-4.9018,-4.9018,-4.9018,-4.9018,-4.9001,-4.9063,-4.9168,-4.929,-4.9471,-4.9808,-5.0154,-5.053,-5.091,-5.1434,-5.1969,-5.2526,-5.2753,-5.2842,-5.2912,-5.3042,-5.3103,-5.3164,-5.3206,-5.3206,-5.3206,-5.3206,-5.3206,-5.3206,-5.3206,-5.3206,-5.3206,-5.3206,-5.3206,-5.3206,-5.3206,-5.3206,-5.3206,-5.3206,-5.3206,-5.3206,-5.3206,-5.3206,-5.3206,-5.3206,-5.3206,-5.3206,-5.3206,-5.3206,-5.3206,-5.3206,-5.3206,-5.3206,-5.3206,-5.3206,-5.3206,-5.3206,-5.3206,-5.3206,-5.3188,-5.3115,-5.2913,-5.2619,-5.1665,-5.0655,-4.9517,-4.871,-4.8453,-4.8324,-4.8324,-4.8324,-4.8324,-5.3348,-5.3095,-5.3095,-5.2942,-5.2824,-5.3264,-5.3518,-5.3518,-5.3518,-5.3518,-5.3518,-5.3518,-5.3518,-5.3518,-5.3518,-5.3518,-5.3518,-5.3518,-5.3518,-5.3518,-5.3518,-5.3518,-5.3518,-5.3518,-5.3518,-5.3518,-5.3518,-5.3501,-5.3501,-5.2993,-5.2181,-5.115,-5.0033,-4.9424,-4.9137,-4.9018,-4.9018,-4.9018,-4.9018,-4.9018,-4.9018,-4.9018,-4.9018,-4.9018,-4.9018,-4.9018,-4.9018,-4.9001,-4.9001,-4.9107,-4.9229,-4.9471,-4.9691,-5.0022,-5.0363,-5.0839,-5.1434,-5.1884,-5.2397,-5.2735,-5.293,-5.306,-5.3042,-5.3103,-5.3164,-5.3206,-5.3206,-5.3206,-5.3206,-5.3206,-5.3206,-5.3206,-5.3206,-5.3206,-5.3206,-5.3206,-5.3206,-5.3206,-5.3206,-5.3206,-5.3206,-5.3206,-5.3206,-5.3206,-5.3206,-5.3206,-5.3206,-5.3206,-5.3206,-5.3206,-5.3206,-5.3206,-5.3206,-5.3206,-5.3206,-5.3206,-5.3206,-5.3206,-5.3206,-5.3206,-5.3206,-5.3206,-5.3206,-5.3206,-5.3059,-5.2656,-5.1665,-5.0637,-4.9701,-4.893,-4.8398,-4.8324,-4.8324,-4.8324,-4.8324,-5.2976,-5.2317,-5.2283,-5.1894,-5.1572,-5.2723,-5.3315,-5.3382,-5.3365,-5.3348,-5.3348,-5.3247,-5.323,-5.3382,-5.3416,-5.345,-5.3518,-5.3518,-5.3518,-5.3518,-5.3518,-5.3518,-5.3518,-5.3518,-5.3518,-5.3518,-5.3518,-5.3501,-5.3484,-5.3095,-5.235,-5.1471,-5.0574,-4.9965,-4.956,-4.9441,-4.9306,-4.9137,-4.9018,-4.9018,-4.9018,-4.9018,-4.9018,-4.9018,-4.9018,-4.9018,-4.9001,-4.9001,-4.9063,-4.9229,-4.9411,-4.9649,-4.9999,-5.038,-5.0803,-5.1314,-5.2048,-5.2351,-5.2627,-5.2912,-5.3017,-5.3164,-5.3164,-5.3206,-5.3206,-5.3206,-5.3206,-5.3206,-5.3206,-5.3206,-5.3206,-5.3206,-5.3206,-5.3206,-5.3206,-5.3206,-5.3206,-5.3206,-5.3206,-5.3206,-5.3206,-5.3206,-5.3206,-5.3206,-5.3206,-5.3206,-5.3206,-5.3206,-5.3206,-5.3206,-5.3206,-5.3206,-5.3206,-5.3206,-5.3206,-5.3206,-5.3206,-5.3206,-5.3206,-5.3206,-5.3206,-5.3206,-5.3206,-5.3206,-5.3206,-5.2711,-5.1793,-5.0949,-5.0123,-4.937,-4.8618,-4.8324,-4.8324,-4.8324,-4.8324,-5.1742,-5.1539,-5.1539,-5.1403,-5.1302,-5.1691,-5.186,-5.1877,-5.1877,-5.1877,-5.1894,-5.1877,-5.2266,-5.2621,-5.2655,-5.2993,-5.3281,-5.3518,-5.3518,-5.345,-5.3264,-5.3433,-5.3484,-5.3433,-5.3484,-5.3518,-5.3518,-5.3501,-5.3365,-5.3078,-5.2689,-5.1944,-5.1217,-5.0744,-5.0557,-5.0541,-4.9898,-4.939,-4.9238,-4.9221,-4.9154,-4.9137,-4.912,-4.9103,-4.9035,-4.9018,-4.9001,-4.9046,-4.9168,-4.9229,-4.9573,-4.9924,-5.0228,-5.0694,-5.114,-5.1866,-5.2304,-5.2572,-5.2806,-5.2955,-5.306,-5.3164,-5.3206,-5.3206,-5.3206,-5.3206,-5.3206,-5.3206,-5.3206,-5.3206,-5.3206,-5.3206,-5.3206,-5.3206,-5.3206,-5.3206,-5.3206,-5.3206,-5.3206,-5.3206,-5.3206,-5.3206,-5.3206,-5.3206,-5.3206,-5.3206,-5.3206,-5.3206,-5.3206,-5.3206,-5.3206,-5.3206,-5.3206,-5.3206,-5.3206,-5.3206,-5.3206,-5.3206,-5.3206,-5.3206,-5.3206,-5.3206,-5.3206,-5.3206,-5.3206,-5.2729,-5.1977,-5.1151,-5.0325,-4.9572,-4.8857,-4.8545,-4.8324,-4.8324,-4.8324,-5.1031,-5.0777,-5.0777,-5.0608,-5.0355,-5.0338,-5.0338,-5.0422,-5.0947,-5.1234,-5.1234,-5.1268,-5.1471,-5.1826,-5.1911,-5.2114,-5.2486,-5.2452,-5.2452,-5.2452,-5.2689,-5.2773,-5.2875,-5.3078,-5.3213,-5.3348,-5.3501,-5.3501,-5.3365,-5.3112,-5.2723,-5.2249,-5.1775,-5.1505,-5.1234,-5.1014,-5.071,-5.0236,-4.9949,-4.9864,-4.9746,-4.956,-4.9458,-4.9373,-4.9255,-4.9052,-4.9035,-4.9141,-4.9229,-4.9394,-4.9808,-5.0154,-5.062,-5.1123,-5.1569,-5.2239,-5.2581,-5.2779,-5.2955,-5.3042,-5.3103,-5.3164,-5.3206,-5.3206,-5.3206,-5.3206,-5.3206,-5.3206,-5.3206,-5.3206,-5.3206,-5.3206,-5.3206,-5.3206,-5.3206,-5.3206,-5.3206,-5.3206,-5.3206,-5.3206,-5.3206,-5.3206,-5.3206,-5.3206,-5.3206,-5.3206,-5.3206,-5.3206,-5.3206,-5.3206,-5.3206,-5.3206,-5.3206,-5.3206,-5.3206,-5.3206,-5.3206,-5.3206,-5.3206,-5.3206,-5.3206,-5.3206,-5.3206,-5.3206,-5.3206,-5.2692,-5.216,-5.1316,-5.0508,-4.9774,-4.904,-4.8545,-4.8324,-4.8324,-4.8324,-5.0625,-4.9999,-4.9999,-4.9678,-4.9069,-4.9103,-4.912,-4.9154,-5.0371,-5.1014,-5.0947,-5.098,-5.0963,-5.1082,-5.1133,-5.1251,-5.1539,-5.1606,-5.164,-5.1251,-5.1555,-5.1826,-5.2147,-5.2317,-5.2773,-5.3213,-5.3484,-5.3518,-5.3518,-5.3315,-5.2976,-5.2418,-5.2418,-5.2215,-5.186,-5.1775,-5.164,-5.1539,-5.1352,-5.1268,-5.0879,-5.0541,-5.0152,-5.005,-4.961,-4.9154,-4.9182,-4.9236,-4.9411,-4.9708,-5.004,-5.0436,-5.1035,-5.1604,-5.218,-5.2462,-5.2779,-5.293,-5.306,-5.3121,-5.3164,-5.3206,-5.3206,-5.3206,-5.3206,-5.3206,-5.3206,-5.3206,-5.3206,-5.3206,-5.3206,-5.3206,-5.3206,-5.3206,-5.3206,-5.3206,-5.3206,-5.3206,-5.3206,-5.3206,-5.3206,-5.3206,-5.3206,-5.3206,-5.3206,-5.3206,-5.3206,-5.3206,-5.3206,-5.3206,-5.3206,-5.3206,-5.3206,-5.3206,-5.3206,-5.3206,-5.3206,-5.3206,-5.3206,-5.3206,-5.3206,-5.3206,-5.3206,-5.3206,-5.3188,-5.2876,-5.2344,-5.1481,-5.0674,-4.9994,-4.9279,-4.8563,-4.8324,-4.8324,-4.8324,-4.9424,-4.9272,-4.9255,-4.9154,-4.9018,-4.9018,-4.9018,-4.9018,-4.934,-4.9593,-4.956,-4.961,-4.9881,-5.0321,-5.0355,-5.0557,-5.1014,-5.0896,-5.1166,-5.1082,-5.1048,-5.1065,-5.1539,-5.186,-5.235,-5.2723,-5.3078,-5.3518,-5.3518,-5.3467,-5.345,-5.3213,-5.3145,-5.2892,-5.2756,-5.2723,-5.2723,-5.2655,-5.2638,-5.2164,-5.1471,-5.1217,-5.093,-5.071,-5.0287,-4.991,-4.9848,-4.9657,-4.971,-4.9866,-5.025,-5.0857,-5.1571,-5.2132,-5.2462,-5.2735,-5.2912,-5.306,-5.3121,-5.3164,-5.3164,-5.3206,-5.3206,-5.3206,-5.3206,-5.3206,-5.3206,-5.3206,-5.3206,-5.3206,-5.3206,-5.3206,-5.3206,-5.3206,-5.3206,-5.3206,-5.3206,-5.3206,-5.3206,-5.3206,-5.3206,-5.3206,-5.3206,-5.3206,-5.3206,-5.3206,-5.3206,-5.3206,-5.3206,-5.3206,-5.3206,-5.3206,-5.3206,-5.3206,-5.3206,-5.3206,-5.3206,-5.3206,-5.3206,-5.3206,-5.3206,-5.3206,-5.3206,-5.3206,-5.3133,-5.2913,-5.2472,-5.1573,-5.0802,-5.0215,-4.9297,-4.8489,-4.8324,-4.8324,-4.8324,-4.9018,-4.9018,-4.9018,-4.9018,-4.9018,-4.9018,-4.9018,-4.9018,-4.9018,-4.9018,-4.9018,-4.9035,-4.9238,-4.961,-4.961,-4.9779,-5.027,-5.0202,-5.0101,-5.0168,-5.0388,-5.0439,-5.0794,-5.1217,-5.1826,-5.2266,-5.3061,-5.3518,-5.3518,-5.3501,-5.3501,-5.3518,-5.3518,-5.3518,-5.3518,-5.3518,-5.3518,-5.3467,-5.3518,-5.2976,-5.208,-5.1928,-5.1742,-5.1471,-5.1082,-5.0718,-5.0362,-5.0137,-5.0145,-5.0332,-5.0766,-5.1401,-5.2018,-5.2351,-5.2627,-5.285,-5.2999,-5.3121,-5.3164,-5.3206,-5.3206,-5.3206,-5.3206,-5.3206,-5.3206,-5.3206,-5.3206,-5.3206,-5.3206,-5.3206,-5.3206,-5.3206,-5.3206,-5.3206,-5.3206,-5.3206,-5.3206,-5.3206,-5.3206,-5.3206,-5.3206,-5.3206,-5.3206,-5.3206,-5.3206,-5.3206,-5.3206,-5.3206,-5.3206,-5.3206,-5.3206,-5.3206,-5.3206,-5.3206,-5.3206,-5.3206,-5.3206,-5.3206,-5.3206,-5.3206,-5.3206,-5.3206,-5.3206,-5.3206,-5.3206,-5.317,-5.2601,-5.1683,-5.1114,-5.06,-4.9499,-4.8343,-4.8324,-4.8324,-4.8324,-4.9018,-4.9018,-4.9018,-4.9018,-4.9018,-4.9018,-4.9018,-4.9018,-4.9018,-4.9018,-4.9018,-4.9018,-4.9018,-4.9018,-4.9018,-4.9018,-4.912,-4.939,-4.9221,-4.9187,-4.9187,-4.9576,-4.9898,-5.0202,-5.1166,-5.2198,-5.3095,-5.3399,-5.3518,-5.3518,-5.3518,-5.3518,-5.3518,-5.3518,-5.3518,-5.3518,-5.3518,-5.3518,-5.3518,-5.3518,-5.3162,-5.2858,-5.257,-5.2215,-5.1758,-5.1193,-5.0907,-5.0686,-5.0718,-5.0949,-5.1299,-5.1822,-5.2275,-5.2581,-5.2761,-5.2937,-5.3103,-5.3164,-5.3206,-5.3206,-5.3206,-5.3206,-5.3206,-5.3206,-5.3206,-5.3206,-5.3206,-5.3206,-5.3206,-5.3206,-5.3206,-5.3206,-5.3206,-5.3206,-5.3206,-5.3206,-5.3206,-5.3206,-5.3206,-5.3206,-5.3206,-5.3206,-5.3206,-5.3206,-5.3206,-5.3206,-5.3206,-5.3206,-5.3206,-5.3206,-5.3206,-5.3206,-5.3206,-5.3206,-5.3206,-5.3206,-5.3206,-5.3206,-5.3206,-5.3206,-5.3206,-5.3206,-5.3206,-5.3206,-5.3206,-5.3206,-5.2674,-5.1793,-5.1316,-5.082,-4.9499,-4.8343,-4.8324,-4.8324,-4.8324,-4.9018,-4.9018,-4.9018,-4.9018,-4.9018,-4.9018,-4.9018,-4.9018,-4.9018,-4.9018,-4.9018,-4.9018,-4.9018,-4.9018,-4.9018,-4.9018,-4.9018,-4.9018,-4.9018,-4.9035,-4.9018,-4.912,-4.939,-4.9932,-5.0997,-5.2012,-5.2926,-5.3399,-5.3501,-5.3518,-5.3518,-5.3518,-5.3518,-5.3518,-5.3518,-5.3518,-5.3518,-5.3518,-5.3501,-5.3501,-5.3501,-5.3315,-5.3331,-5.3043,-5.2668,-5.2408,-5.2152,-5.1442,-5.136,-5.1535,-5.1807,-5.2174,-5.2462,-5.2717,-5.2893,-5.2999,-5.3164,-5.3164,-5.3206,-5.3206,-5.3206,-5.3206,-5.3206,-5.3206,-5.3206,-5.3206,-5.3206,-5.3206,-5.3206,-5.3206,-5.3206,-5.3206,-5.3206,-5.3206,-5.3206,-5.3206,-5.3206,-5.3206,-5.3206,-5.3206,-5.3206,-5.3206,-5.3206,-5.3206,-5.3206,-5.3206,-5.3206,-5.3206,-5.3206,-5.3206,-5.3206,-5.3206,-5.3206,-5.3206,-5.3206,-5.3206,-5.3206,-5.3206,-5.3206,-5.3206,-5.3206,-5.3206,-5.3206,-5.3206,-5.3206,-5.3206,-5.2564,-5.1903,-5.1261,-5.0618,-4.9297,-4.8361,-4.8343,-4.8324,-4.8324]}]]